
<gpx xmlns="http://www.topografix.com/GPX/1/1" xmlns:gpxx="http://www.garmin.com/xmlschemas/GpxExtensions/v3" xmlns:wptx1="http://www.garmin.com/xmlschemas/WaypointExtension/v1" xmlns:xsi="http://www.w3.org/2001/XMLSchema-instance" version="1.1" creator="Adze - https://getadze.com/" xsi:schemaLocation="http://www.topografix.com/GPX/1/1 http://www.topografix.com/GPX/1/1/gpx.xsd http://www.garmin.com/xmlschemas/GpxExtensions/v3 http://www8.garmin.com/xmlschemas/GpxExtensionsv3.xsd http://www.garmin.com/xmlschemas/WaypointExtension/v1 http://www8.garmin.com/xmlschemas/WaypointExtensionv1.xsd">
    <metadata>
        <name>Untitled Document</name>
        <link href="http://www.garmin.com"></link>
        <time>2018-03-06T03:49:41.509Z</time>
    </metadata>
    <wpt lon="100.900985" lat="12.909753">
        <ele>21.000000</ele>
        <name>Eastern Grand Palace</name>
        <sym>Building</sym>
        <type>user</type>
        <extensions>
            <gpxx:WaypointExtension>
                <gpxx:DisplayMode>SymbolAndName</gpxx:DisplayMode>
            </gpxx:WaypointExtension>
            <wptx1:WaypointExtension>
                <wptx1:DisplayMode>SymbolAndName</wptx1:DisplayMode>
            </wptx1:WaypointExtension>
        </extensions>
    </wpt>
    <trk>
        <name>May 2005 - Saturday</name>
        <extensions>
            <gpxx:TrackExtension>
                <gpxx:DisplayColor>DarkGray</gpxx:DisplayColor>
            </gpxx:TrackExtension>
        </extensions>
        <trkseg>
            <trkpt lon="100.900626" lat="12.909579">
                <ele>43.396606</ele>
                <time>2006-05-27T06:11:02Z</time>
            </trkpt>
            <trkpt lon="100.900390" lat="12.909515">
                <ele>43.396606</ele>
                <time>2006-05-27T06:11:30Z</time>
            </trkpt>
            <trkpt lon="100.900283" lat="12.909429">
                <ele>43.396606</ele>
                <time>2006-05-27T06:11:37Z</time>
            </trkpt>
            <trkpt lon="100.900326" lat="12.909150">
                <ele>39.070679</ele>
                <time>2006-05-27T06:11:48Z</time>
            </trkpt>
            <trkpt lon="100.901270" lat="12.909021">
                <ele>29.938110</ele>
                <time>2006-05-27T06:12:10Z</time>
            </trkpt>
            <trkpt lon="100.901871" lat="12.908893">
                <ele>26.092896</ele>
                <time>2006-05-27T06:12:26Z</time>
            </trkpt>
            <trkpt lon="100.902407" lat="12.908807">
                <ele>25.131714</ele>
                <time>2006-05-27T06:12:43Z</time>
            </trkpt>
            <trkpt lon="100.903072" lat="12.908592">
                <ele>21.286377</ele>
                <time>2006-05-27T06:13:05Z</time>
            </trkpt>
            <trkpt lon="100.903780" lat="12.908227">
                <ele>22.247559</ele>
                <time>2006-05-27T06:13:27Z</time>
            </trkpt>
            <trkpt lon="100.904317" lat="12.907991">
                <ele>22.728271</ele>
                <time>2006-05-27T06:13:43Z</time>
            </trkpt>
            <trkpt lon="100.905154" lat="12.907820">
                <ele>24.170288</ele>
                <time>2006-05-27T06:14:06Z</time>
            </trkpt>
            <trkpt lon="100.905905" lat="12.907798">
                <ele>25.612305</ele>
                <time>2006-05-27T06:14:28Z</time>
            </trkpt>
            <trkpt lon="100.906656" lat="12.907820">
                <ele>27.534912</ele>
                <time>2006-05-27T06:14:50Z</time>
            </trkpt>
            <trkpt lon="100.907342" lat="12.907884">
                <ele>28.976929</ele>
                <time>2006-05-27T06:15:11Z</time>
            </trkpt>
            <trkpt lon="100.908093" lat="12.907906">
                <ele>32.341553</ele>
                <time>2006-05-27T06:15:34Z</time>
            </trkpt>
            <trkpt lon="100.908759" lat="12.907863">
                <ele>35.225464</ele>
                <time>2006-05-27T06:15:54Z</time>
            </trkpt>
            <trkpt lon="100.909467" lat="12.907820">
                <ele>35.225464</ele>
                <time>2006-05-27T06:16:16Z</time>
            </trkpt>
            <trkpt lon="100.910046" lat="12.907777">
                <ele>37.148071</ele>
                <time>2006-05-27T06:16:34Z</time>
            </trkpt>
            <trkpt lon="100.910668" lat="12.907712">
                <ele>39.551270</ele>
                <time>2006-05-27T06:16:54Z</time>
            </trkpt>
            <trkpt lon="100.911226" lat="12.907648">
                <ele>42.435425</ele>
                <time>2006-05-27T06:17:13Z</time>
            </trkpt>
            <trkpt lon="100.911763" lat="12.907605">
                <ele>43.877319</ele>
                <time>2006-05-27T06:17:31Z</time>
            </trkpt>
            <trkpt lon="100.912299" lat="12.907691">
                <ele>44.838623</ele>
                <time>2006-05-27T06:17:48Z</time>
            </trkpt>
            <trkpt lon="100.912964" lat="12.907884">
                <ele>47.722534</ele>
                <time>2006-05-27T06:18:07Z</time>
            </trkpt>
            <trkpt lon="100.913651" lat="12.908034">
                <ele>51.087158</ele>
                <time>2006-05-27T06:18:28Z</time>
            </trkpt>
            <trkpt lon="100.914295" lat="12.908249">
                <ele>54.451782</ele>
                <time>2006-05-27T06:18:48Z</time>
            </trkpt>
            <trkpt lon="100.915024" lat="12.908614">
                <ele>57.335815</ele>
                <time>2006-05-27T06:19:11Z</time>
            </trkpt>
            <trkpt lon="100.915689" lat="12.908828">
                <ele>62.142334</ele>
                <time>2006-05-27T06:19:31Z</time>
            </trkpt>
            <trkpt lon="100.916269" lat="12.909043">
                <ele>64.545654</ele>
                <time>2006-05-27T06:19:49Z</time>
            </trkpt>
            <trkpt lon="100.916698" lat="12.909365">
                <ele>64.545654</ele>
                <time>2006-05-27T06:20:06Z</time>
            </trkpt>
            <trkpt lon="100.916977" lat="12.909451">
                <ele>64.545654</ele>
                <time>2006-05-27T06:20:20Z</time>
            </trkpt>
            <trkpt lon="100.917127" lat="12.909472">
                <ele>64.545654</ele>
                <time>2006-05-27T06:20:32Z</time>
            </trkpt>
            <trkpt lon="100.917213" lat="12.909429">
                <ele>67.910278</ele>
                <time>2006-05-27T06:20:48Z</time>
            </trkpt>
            <trkpt lon="100.917234" lat="12.909451">
                <ele>69.352295</ele>
                <time>2006-05-27T06:21:38Z</time>
            </trkpt>
            <trkpt lon="100.917234" lat="12.909451">
                <ele>69.352295</ele>
                <time>2006-05-27T06:23:25Z</time>
            </trkpt>
            <trkpt lon="100.917213" lat="12.909451">
                <ele>68.871582</ele>
                <time>2006-05-27T06:25:08Z</time>
            </trkpt>
            <trkpt lon="100.917213" lat="12.909429">
                <ele>71.274902</ele>
                <time>2006-05-27T06:26:47Z</time>
            </trkpt>
            <trkpt lon="100.917170" lat="12.909451">
                <ele>70.313477</ele>
                <time>2006-05-27T06:27:36Z</time>
            </trkpt>
            <trkpt lon="100.917170" lat="12.909515">
                <ele>69.832886</ele>
                <time>2006-05-27T06:27:51Z</time>
            </trkpt>
            <trkpt lon="100.917578" lat="12.909687">
                <ele>68.390869</ele>
                <time>2006-05-27T06:28:04Z</time>
            </trkpt>
            <trkpt lon="100.917728" lat="12.909772">
                <ele>67.910278</ele>
                <time>2006-05-27T06:28:12Z</time>
            </trkpt>
            <trkpt lon="100.917685" lat="12.909751">
                <ele>68.390869</ele>
                <time>2006-05-27T06:28:20Z</time>
            </trkpt>
            <trkpt lon="100.917900" lat="12.909880">
                <ele>67.429688</ele>
                <time>2006-05-27T06:28:30Z</time>
            </trkpt>
            <trkpt lon="100.917964" lat="12.909901">
                <ele>67.429688</ele>
                <time>2006-05-27T06:28:32Z</time>
            </trkpt>
            <trkpt lon="100.918050" lat="12.909923">
                <ele>67.429688</ele>
                <time>2006-05-27T06:28:34Z</time>
            </trkpt>
            <trkpt lon="100.918243" lat="12.910008">
                <ele>67.429688</ele>
                <time>2006-05-27T06:28:38Z</time>
            </trkpt>
            <trkpt lon="100.918844" lat="12.910695">
                <ele>61.661743</ele>
                <time>2006-05-27T06:28:52Z</time>
            </trkpt>
            <trkpt lon="100.919015" lat="12.910910">
                <ele>60.219727</ele>
                <time>2006-05-27T06:28:56Z</time>
            </trkpt>
            <trkpt lon="100.919445" lat="12.911017">
                <ele>58.777710</ele>
                <time>2006-05-27T06:29:03Z</time>
            </trkpt>
            <trkpt lon="100.919552" lat="12.910995">
                <ele>58.777710</ele>
                <time>2006-05-27T06:29:05Z</time>
            </trkpt>
            <trkpt lon="100.919681" lat="12.910845">
                <ele>58.297119</ele>
                <time>2006-05-27T06:29:10Z</time>
            </trkpt>
            <trkpt lon="100.919681" lat="12.910588">
                <ele>58.297119</ele>
                <time>2006-05-27T06:29:16Z</time>
            </trkpt>
            <trkpt lon="100.919917" lat="12.910373">
                <ele>58.777710</ele>
                <time>2006-05-27T06:29:23Z</time>
            </trkpt>
            <trkpt lon="100.921054" lat="12.910287">
                <ele>55.413086</ele>
                <time>2006-05-27T06:29:40Z</time>
            </trkpt>
            <trkpt lon="100.921783" lat="12.910223">
                <ele>53.490479</ele>
                <time>2006-05-27T06:29:51Z</time>
            </trkpt>
            <trkpt lon="100.921977" lat="12.910416">
                <ele>53.009766</ele>
                <time>2006-05-27T06:29:56Z</time>
            </trkpt>
            <trkpt lon="100.921869" lat="12.911747">
                <ele>47.722534</ele>
                <time>2006-05-27T06:30:14Z</time>
            </trkpt>
            <trkpt lon="100.921848" lat="12.911918">
                <ele>47.241821</ele>
                <time>2006-05-27T06:30:16Z</time>
            </trkpt>
            <trkpt lon="100.921676" lat="12.912669">
                <ele>46.280640</ele>
                <time>2006-05-27T06:30:26Z</time>
            </trkpt>
            <trkpt lon="100.921891" lat="12.912991">
                <ele>44.838623</ele>
                <time>2006-05-27T06:30:32Z</time>
            </trkpt>
            <trkpt lon="100.923028" lat="12.913120">
                <ele>40.993408</ele>
                <time>2006-05-27T06:30:45Z</time>
            </trkpt>
            <trkpt lon="100.924273" lat="12.913227">
                <ele>38.109375</ele>
                <time>2006-05-27T06:30:58Z</time>
            </trkpt>
            <trkpt lon="100.924616" lat="12.913570">
                <ele>37.148071</ele>
                <time>2006-05-27T06:31:04Z</time>
            </trkpt>
            <trkpt lon="100.924723" lat="12.913978">
                <ele>37.148071</ele>
                <time>2006-05-27T06:31:09Z</time>
            </trkpt>
            <trkpt lon="100.924852" lat="12.915094">
                <ele>34.744873</ele>
                <time>2006-05-27T06:31:22Z</time>
            </trkpt>
            <trkpt lon="100.924895" lat="12.915180">
                <ele>34.744873</ele>
                <time>2006-05-27T06:31:23Z</time>
            </trkpt>
            <trkpt lon="100.925217" lat="12.915716">
                <ele>34.264160</ele>
                <time>2006-05-27T06:31:30Z</time>
            </trkpt>
            <trkpt lon="100.925689" lat="12.916038">
                <ele>32.822266</ele>
                <time>2006-05-27T06:31:37Z</time>
            </trkpt>
            <trkpt lon="100.925710" lat="12.916124">
                <ele>32.341553</ele>
                <time>2006-05-27T06:31:38Z</time>
            </trkpt>
            <trkpt lon="100.926182" lat="12.917325">
                <ele>29.938110</ele>
                <time>2006-05-27T06:31:53Z</time>
            </trkpt>
            <trkpt lon="100.926268" lat="12.917497">
                <ele>29.938110</ele>
                <time>2006-05-27T06:31:56Z</time>
            </trkpt>
            <trkpt lon="100.926332" lat="12.917583">
                <ele>29.938110</ele>
                <time>2006-05-27T06:31:58Z</time>
            </trkpt>
            <trkpt lon="100.926504" lat="12.917669">
                <ele>29.457520</ele>
                <time>2006-05-27T06:32:03Z</time>
            </trkpt>
            <trkpt lon="100.926654" lat="12.917733">
                <ele>28.976929</ele>
                <time>2006-05-27T06:32:13Z</time>
            </trkpt>
            <trkpt lon="100.926826" lat="12.917712">
                <ele>28.976929</ele>
                <time>2006-05-27T06:32:19Z</time>
            </trkpt>
            <trkpt lon="100.927663" lat="12.917798">
                <ele>30.899536</ele>
                <time>2006-05-27T06:32:35Z</time>
            </trkpt>
            <trkpt lon="100.927985" lat="12.917755">
                <ele>32.341553</ele>
                <time>2006-05-27T06:32:44Z</time>
            </trkpt>
            <trkpt lon="100.927963" lat="12.917604">
                <ele>32.341553</ele>
                <time>2006-05-27T06:32:49Z</time>
            </trkpt>
            <trkpt lon="100.927877" lat="12.917411">
                <ele>32.341553</ele>
                <time>2006-05-27T06:32:54Z</time>
            </trkpt>
            <trkpt lon="100.927942" lat="12.917304">
                <ele>31.860718</ele>
                <time>2006-05-27T06:32:58Z</time>
            </trkpt>
            <trkpt lon="100.928349" lat="12.917047">
                <ele>32.822266</ele>
                <time>2006-05-27T06:33:14Z</time>
            </trkpt>
            <trkpt lon="100.928650" lat="12.917004">
                <ele>33.783447</ele>
                <time>2006-05-27T06:33:24Z</time>
            </trkpt>
            <trkpt lon="100.928757" lat="12.917089">
                <ele>33.783447</ele>
                <time>2006-05-27T06:33:28Z</time>
            </trkpt>
            <trkpt lon="100.929186" lat="12.917519">
                <ele>35.706055</ele>
                <time>2006-05-27T06:33:45Z</time>
            </trkpt>
            <trkpt lon="100.929701" lat="12.917905">
                <ele>36.186768</ele>
                <time>2006-05-27T06:34:02Z</time>
            </trkpt>
            <trkpt lon="100.929766" lat="12.917969">
                <ele>36.186768</ele>
                <time>2006-05-27T06:34:06Z</time>
            </trkpt>
            <trkpt lon="100.929658" lat="12.917883">
                <ele>35.706055</ele>
                <time>2006-05-27T06:34:14Z</time>
            </trkpt>
            <trkpt lon="100.929637" lat="12.917862">
                <ele>35.706055</ele>
                <time>2006-05-27T06:34:15Z</time>
            </trkpt>
            <trkpt lon="100.929101" lat="12.917433">
                <ele>35.706055</ele>
                <time>2006-05-27T06:34:30Z</time>
            </trkpt>
            <trkpt lon="100.929036" lat="12.917304">
                <ele>35.706055</ele>
                <time>2006-05-27T06:34:33Z</time>
            </trkpt>
            <trkpt lon="100.928714" lat="12.917025">
                <ele>34.744873</ele>
                <time>2006-05-27T06:34:41Z</time>
            </trkpt>
            <trkpt lon="100.928414" lat="12.917025">
                <ele>33.783447</ele>
                <time>2006-05-27T06:34:47Z</time>
            </trkpt>
            <trkpt lon="100.928242" lat="12.917111">
                <ele>32.822266</ele>
                <time>2006-05-27T06:34:50Z</time>
            </trkpt>
            <trkpt lon="100.928092" lat="12.917175">
                <ele>32.341553</ele>
                <time>2006-05-27T06:34:53Z</time>
            </trkpt>
            <trkpt lon="100.927877" lat="12.917347">
                <ele>31.860718</ele>
                <time>2006-05-27T06:35:01Z</time>
            </trkpt>
            <trkpt lon="100.927856" lat="12.917304">
                <ele>31.860718</ele>
                <time>2006-05-27T06:35:06Z</time>
            </trkpt>
            <trkpt lon="100.927835" lat="12.917261">
                <ele>31.860718</ele>
                <time>2006-05-27T06:35:09Z</time>
            </trkpt>
            <trkpt lon="100.927813" lat="12.917325">
                <ele>31.380127</ele>
                <time>2006-05-27T06:35:15Z</time>
            </trkpt>
            <trkpt lon="100.927835" lat="12.917347">
                <ele>31.380127</ele>
                <time>2006-05-27T06:35:26Z</time>
            </trkpt>
            <trkpt lon="100.927920" lat="12.917583">
                <ele>31.860718</ele>
                <time>2006-05-27T06:35:38Z</time>
            </trkpt>
            <trkpt lon="100.927963" lat="12.917712">
                <ele>31.380127</ele>
                <time>2006-05-27T06:35:45Z</time>
            </trkpt>
            <trkpt lon="100.927856" lat="12.917776">
                <ele>30.899536</ele>
                <time>2006-05-27T06:35:50Z</time>
            </trkpt>
            <trkpt lon="100.927684" lat="12.917776">
                <ele>30.418823</ele>
                <time>2006-05-27T06:35:54Z</time>
            </trkpt>
            <trkpt lon="100.926805" lat="12.917690">
                <ele>28.976929</ele>
                <time>2006-05-27T06:36:11Z</time>
            </trkpt>
            <trkpt lon="100.926654" lat="12.917669">
                <ele>28.496216</ele>
                <time>2006-05-27T06:36:20Z</time>
            </trkpt>
            <trkpt lon="100.926633" lat="12.917647">
                <ele>29.938110</ele>
                <time>2006-05-27T06:36:35Z</time>
            </trkpt>
            <trkpt lon="100.926633" lat="12.917647">
                <ele>29.457520</ele>
                <time>2006-05-27T06:37:08Z</time>
            </trkpt>
            <trkpt lon="100.926654" lat="12.917647">
                <ele>29.457520</ele>
                <time>2006-05-27T06:37:14Z</time>
            </trkpt>
            <trkpt lon="100.926740" lat="12.917669">
                <ele>29.938110</ele>
                <time>2006-05-27T06:37:19Z</time>
            </trkpt>
            <trkpt lon="100.926826" lat="12.917690">
                <ele>29.938110</ele>
                <time>2006-05-27T06:37:21Z</time>
            </trkpt>
            <trkpt lon="100.927384" lat="12.917755">
                <ele>30.418823</ele>
                <time>2006-05-27T06:37:36Z</time>
            </trkpt>
            <trkpt lon="100.927942" lat="12.917733">
                <ele>31.860718</ele>
                <time>2006-05-27T06:37:52Z</time>
            </trkpt>
            <trkpt lon="100.927942" lat="12.917604">
                <ele>32.341553</ele>
                <time>2006-05-27T06:37:57Z</time>
            </trkpt>
            <trkpt lon="100.927663" lat="12.916961">
                <ele>31.860718</ele>
                <time>2006-05-27T06:38:12Z</time>
            </trkpt>
            <trkpt lon="100.927191" lat="12.915845">
                <ele>32.822266</ele>
                <time>2006-05-27T06:38:36Z</time>
            </trkpt>
            <trkpt lon="100.927148" lat="12.915823">
                <ele>33.302856</ele>
                <time>2006-05-27T06:38:37Z</time>
            </trkpt>
            <trkpt lon="100.927234" lat="12.915630">
                <ele>33.783447</ele>
                <time>2006-05-27T06:38:46Z</time>
            </trkpt>
            <trkpt lon="100.927641" lat="12.915459">
                <ele>35.225464</ele>
                <time>2006-05-27T06:39:00Z</time>
            </trkpt>
            <trkpt lon="100.928156" lat="12.915330">
                <ele>37.148071</ele>
                <time>2006-05-27T06:39:13Z</time>
            </trkpt>
            <trkpt lon="100.928500" lat="12.915137">
                <ele>38.109375</ele>
                <time>2006-05-27T06:39:26Z</time>
            </trkpt>
            <trkpt lon="100.929015" lat="12.915137">
                <ele>38.590088</ele>
                <time>2006-05-27T06:39:39Z</time>
            </trkpt>
            <trkpt lon="100.929465" lat="12.915051">
                <ele>39.551270</ele>
                <time>2006-05-27T06:39:53Z</time>
            </trkpt>
            <trkpt lon="100.929487" lat="12.915030">
                <ele>40.032104</ele>
                <time>2006-05-27T06:39:54Z</time>
            </trkpt>
            <trkpt lon="100.929444" lat="12.914643">
                <ele>40.512817</ele>
                <time>2006-05-27T06:40:06Z</time>
            </trkpt>
            <trkpt lon="100.929422" lat="12.914085">
                <ele>42.435425</ele>
                <time>2006-05-27T06:40:22Z</time>
            </trkpt>
            <trkpt lon="100.929551" lat="12.914064">
                <ele>42.435425</ele>
                <time>2006-05-27T06:40:26Z</time>
            </trkpt>
            <trkpt lon="100.930452" lat="12.914193">
                <ele>42.916016</ele>
                <time>2006-05-27T06:40:45Z</time>
            </trkpt>
            <trkpt lon="100.931053" lat="12.914300">
                <ele>42.435425</ele>
                <time>2006-05-27T06:41:00Z</time>
            </trkpt>
            <trkpt lon="100.931096" lat="12.914279">
                <ele>42.435425</ele>
                <time>2006-05-27T06:41:01Z</time>
            </trkpt>
            <trkpt lon="100.931203" lat="12.914021">
                <ele>42.916016</ele>
                <time>2006-05-27T06:41:08Z</time>
            </trkpt>
            <trkpt lon="100.931289" lat="12.913592">
                <ele>43.396606</ele>
                <time>2006-05-27T06:41:18Z</time>
            </trkpt>
            <trkpt lon="100.931332" lat="12.913463">
                <ele>43.396606</ele>
                <time>2006-05-27T06:41:21Z</time>
            </trkpt>
            <trkpt lon="100.931418" lat="12.913291">
                <ele>43.877319</ele>
                <time>2006-05-27T06:41:25Z</time>
            </trkpt>
            <trkpt lon="100.931418" lat="12.913013">
                <ele>43.877319</ele>
                <time>2006-05-27T06:41:31Z</time>
            </trkpt>
            <trkpt lon="100.931246" lat="12.912369">
                <ele>44.358032</ele>
                <time>2006-05-27T06:41:47Z</time>
            </trkpt>
            <trkpt lon="100.930989" lat="12.911747">
                <ele>44.838623</ele>
                <time>2006-05-27T06:42:03Z</time>
            </trkpt>
            <trkpt lon="100.930860" lat="12.911532">
                <ele>45.319214</ele>
                <time>2006-05-27T06:42:09Z</time>
            </trkpt>
            <trkpt lon="100.930839" lat="12.910974">
                <ele>45.799927</ele>
                <time>2006-05-27T06:42:24Z</time>
            </trkpt>
            <trkpt lon="100.930860" lat="12.910545">
                <ele>45.319214</ele>
                <time>2006-05-27T06:42:37Z</time>
            </trkpt>
            <trkpt lon="100.930882" lat="12.910352">
                <ele>45.319214</ele>
                <time>2006-05-27T06:42:49Z</time>
            </trkpt>
            <trkpt lon="100.930903" lat="12.910137">
                <ele>45.319214</ele>
                <time>2006-05-27T06:43:04Z</time>
            </trkpt>
            <trkpt lon="100.930882" lat="12.909837">
                <ele>45.799927</ele>
                <time>2006-05-27T06:43:16Z</time>
            </trkpt>
            <trkpt lon="100.930860" lat="12.909429">
                <ele>45.799927</ele>
                <time>2006-05-27T06:43:29Z</time>
            </trkpt>
            <trkpt lon="100.930839" lat="12.909086">
                <ele>45.319214</ele>
                <time>2006-05-27T06:43:37Z</time>
            </trkpt>
            <trkpt lon="100.930839" lat="12.908850">
                <ele>45.319214</ele>
                <time>2006-05-27T06:43:43Z</time>
            </trkpt>
            <trkpt lon="100.931203" lat="12.908721">
                <ele>44.838623</ele>
                <time>2006-05-27T06:43:55Z</time>
            </trkpt>
            <trkpt lon="100.931590" lat="12.908657">
                <ele>45.319214</ele>
                <time>2006-05-27T06:44:08Z</time>
            </trkpt>
            <trkpt lon="100.931783" lat="12.908592">
                <ele>44.358032</ele>
                <time>2006-05-27T06:44:21Z</time>
            </trkpt>
            <trkpt lon="100.931826" lat="12.908571">
                <ele>44.838623</ele>
                <time>2006-05-27T06:44:30Z</time>
            </trkpt>
            <trkpt lon="100.931976" lat="12.908528">
                <ele>44.358032</ele>
                <time>2006-05-27T06:44:45Z</time>
            </trkpt>
            <trkpt lon="100.932126" lat="12.908485">
                <ele>43.877319</ele>
                <time>2006-05-27T06:45:01Z</time>
            </trkpt>
            <trkpt lon="100.932212" lat="12.908463">
                <ele>43.877319</ele>
                <time>2006-05-27T06:45:27Z</time>
            </trkpt>
            <trkpt lon="100.932298" lat="12.908442">
                <ele>42.916016</ele>
                <time>2006-05-27T06:45:42Z</time>
            </trkpt>
            <trkpt lon="100.932319" lat="12.908421">
                <ele>42.916016</ele>
                <time>2006-05-27T06:46:01Z</time>
            </trkpt>
            <trkpt lon="100.932405" lat="12.908399">
                <ele>42.916016</ele>
                <time>2006-05-27T06:46:15Z</time>
            </trkpt>
            <trkpt lon="100.932405" lat="12.908335">
                <ele>42.916016</ele>
                <time>2006-05-27T06:46:26Z</time>
            </trkpt>
            <trkpt lon="100.932448" lat="12.908270">
                <ele>41.954712</ele>
                <time>2006-05-27T06:46:36Z</time>
            </trkpt>
            <trkpt lon="100.932770" lat="12.908185">
                <ele>40.993408</ele>
                <time>2006-05-27T06:46:52Z</time>
            </trkpt>
            <trkpt lon="100.933027" lat="12.908099">
                <ele>39.551270</ele>
                <time>2006-05-27T06:47:08Z</time>
            </trkpt>
            <trkpt lon="100.933070" lat="12.908077">
                <ele>40.512817</ele>
                <time>2006-05-27T06:47:33Z</time>
            </trkpt>
            <trkpt lon="100.933242" lat="12.908034">
                <ele>40.032104</ele>
                <time>2006-05-27T06:47:44Z</time>
            </trkpt>
            <trkpt lon="100.933349" lat="12.907991">
                <ele>39.551270</ele>
                <time>2006-05-27T06:47:56Z</time>
            </trkpt>
            <trkpt lon="100.933478" lat="12.907948">
                <ele>39.551270</ele>
                <time>2006-05-27T06:48:08Z</time>
            </trkpt>
            <trkpt lon="100.933564" lat="12.907906">
                <ele>38.590088</ele>
                <time>2006-05-27T06:48:22Z</time>
            </trkpt>
            <trkpt lon="100.933585" lat="12.907906">
                <ele>38.590088</ele>
                <time>2006-05-27T06:48:25Z</time>
            </trkpt>
            <trkpt lon="100.933607" lat="12.907906">
                <ele>39.070679</ele>
                <time>2006-05-27T06:48:31Z</time>
            </trkpt>
            <trkpt lon="100.933735" lat="12.908013">
                <ele>38.590088</ele>
                <time>2006-05-27T06:48:38Z</time>
            </trkpt>
            <trkpt lon="100.934379" lat="12.908571">
                <ele>37.628662</ele>
                <time>2006-05-27T06:48:54Z</time>
            </trkpt>
            <trkpt lon="100.934765" lat="12.908850">
                <ele>36.667480</ele>
                <time>2006-05-27T06:49:02Z</time>
            </trkpt>
            <trkpt lon="100.934873" lat="12.908721">
                <ele>37.148071</ele>
                <time>2006-05-27T06:49:09Z</time>
            </trkpt>
            <trkpt lon="100.935066" lat="12.908206">
                <ele>38.109375</ele>
                <time>2006-05-27T06:49:23Z</time>
            </trkpt>
            <trkpt lon="100.935495" lat="12.907691">
                <ele>39.070679</ele>
                <time>2006-05-27T06:49:38Z</time>
            </trkpt>
            <trkpt lon="100.935602" lat="12.907069">
                <ele>41.473999</ele>
                <time>2006-05-27T06:49:53Z</time>
            </trkpt>
            <trkpt lon="100.935602" lat="12.906983">
                <ele>41.954712</ele>
                <time>2006-05-27T06:49:55Z</time>
            </trkpt>
            <trkpt lon="100.935795" lat="12.906103">
                <ele>43.877319</ele>
                <time>2006-05-27T06:50:16Z</time>
            </trkpt>
            <trkpt lon="100.935860" lat="12.905803">
                <ele>44.358032</ele>
                <time>2006-05-27T06:50:23Z</time>
            </trkpt>
            <trkpt lon="100.935924" lat="12.905653">
                <ele>44.838623</ele>
                <time>2006-05-27T06:50:27Z</time>
            </trkpt>
            <trkpt lon="100.935988" lat="12.905481">
                <ele>44.838623</ele>
                <time>2006-05-27T06:50:31Z</time>
            </trkpt>
            <trkpt lon="100.936010" lat="12.904623">
                <ele>46.761230</ele>
                <time>2006-05-27T06:50:50Z</time>
            </trkpt>
            <trkpt lon="100.935881" lat="12.904108">
                <ele>47.722534</ele>
                <time>2006-05-27T06:51:01Z</time>
            </trkpt>
            <trkpt lon="100.935988" lat="12.903936">
                <ele>48.203369</ele>
                <time>2006-05-27T06:51:06Z</time>
            </trkpt>
            <trkpt lon="100.936396" lat="12.903657">
                <ele>48.203369</ele>
                <time>2006-05-27T06:51:16Z</time>
            </trkpt>
            <trkpt lon="100.936782" lat="12.903485">
                <ele>48.203369</ele>
                <time>2006-05-27T06:51:23Z</time>
            </trkpt>
            <trkpt lon="100.937362" lat="12.903271">
                <ele>47.241821</ele>
                <time>2006-05-27T06:51:33Z</time>
            </trkpt>
            <trkpt lon="100.937684" lat="12.903185">
                <ele>46.761230</ele>
                <time>2006-05-27T06:51:38Z</time>
            </trkpt>
            <trkpt lon="100.937834" lat="12.902970">
                <ele>46.280640</ele>
                <time>2006-05-27T06:51:42Z</time>
            </trkpt>
            <trkpt lon="100.937963" lat="12.902670">
                <ele>45.799927</ele>
                <time>2006-05-27T06:51:47Z</time>
            </trkpt>
            <trkpt lon="100.938499" lat="12.901661">
                <ele>43.396606</ele>
                <time>2006-05-27T06:52:03Z</time>
            </trkpt>
            <trkpt lon="100.938499" lat="12.901597">
                <ele>42.916016</ele>
                <time>2006-05-27T06:52:04Z</time>
            </trkpt>
            <trkpt lon="100.938585" lat="12.901082">
                <ele>41.954712</ele>
                <time>2006-05-27T06:52:11Z</time>
            </trkpt>
            <trkpt lon="100.938864" lat="12.900460">
                <ele>40.032104</ele>
                <time>2006-05-27T06:52:21Z</time>
            </trkpt>
            <trkpt lon="100.938864" lat="12.900074">
                <ele>40.032104</ele>
                <time>2006-05-27T06:52:27Z</time>
            </trkpt>
            <trkpt lon="100.938542" lat="12.899215">
                <ele>37.628662</ele>
                <time>2006-05-27T06:52:43Z</time>
            </trkpt>
            <trkpt lon="100.938306" lat="12.898614">
                <ele>34.264160</ele>
                <time>2006-05-27T06:52:51Z</time>
            </trkpt>
            <trkpt lon="100.938306" lat="12.898271">
                <ele>33.302856</ele>
                <time>2006-05-27T06:52:55Z</time>
            </trkpt>
            <trkpt lon="100.938435" lat="12.897971">
                <ele>32.341553</ele>
                <time>2006-05-27T06:52:59Z</time>
            </trkpt>
            <trkpt lon="100.939207" lat="12.897005">
                <ele>28.976929</ele>
                <time>2006-05-27T06:53:13Z</time>
            </trkpt>
            <trkpt lon="100.939379" lat="12.896705">
                <ele>28.015503</ele>
                <time>2006-05-27T06:53:17Z</time>
            </trkpt>
            <trkpt lon="100.939593" lat="12.896447">
                <ele>27.054321</ele>
                <time>2006-05-27T06:53:21Z</time>
            </trkpt>
            <trkpt lon="100.939915" lat="12.895889">
                <ele>27.054321</ele>
                <time>2006-05-27T06:53:32Z</time>
            </trkpt>
            <trkpt lon="100.939958" lat="12.895782">
                <ele>25.612305</ele>
                <time>2006-05-27T06:53:38Z</time>
            </trkpt>
            <trkpt lon="100.939937" lat="12.895803">
                <ele>24.651001</ele>
                <time>2006-05-27T06:53:47Z</time>
            </trkpt>
            <trkpt lon="100.940001" lat="12.895803">
                <ele>24.170288</ele>
                <time>2006-05-27T06:53:50Z</time>
            </trkpt>
            <trkpt lon="100.940645" lat="12.895803">
                <ele>23.208984</ele>
                <time>2006-05-27T06:54:02Z</time>
            </trkpt>
            <trkpt lon="100.940988" lat="12.895803">
                <ele>21.286377</ele>
                <time>2006-05-27T06:54:07Z</time>
            </trkpt>
            <trkpt lon="100.941267" lat="12.896018">
                <ele>20.805664</ele>
                <time>2006-05-27T06:54:12Z</time>
            </trkpt>
            <trkpt lon="100.941675" lat="12.896533">
                <ele>20.805664</ele>
                <time>2006-05-27T06:54:21Z</time>
            </trkpt>
            <trkpt lon="100.941954" lat="12.896426">
                <ele>21.286377</ele>
                <time>2006-05-27T06:54:27Z</time>
            </trkpt>
            <trkpt lon="100.941997" lat="12.896383">
                <ele>21.286377</ele>
                <time>2006-05-27T06:54:28Z</time>
            </trkpt>
            <trkpt lon="100.942039" lat="12.896254">
                <ele>21.286377</ele>
                <time>2006-05-27T06:54:30Z</time>
            </trkpt>
            <trkpt lon="100.942683" lat="12.895675">
                <ele>22.728271</ele>
                <time>2006-05-27T06:54:44Z</time>
            </trkpt>
            <trkpt lon="100.942919" lat="12.895610">
                <ele>23.208984</ele>
                <time>2006-05-27T06:54:48Z</time>
            </trkpt>
            <trkpt lon="100.943348" lat="12.895610">
                <ele>23.208984</ele>
                <time>2006-05-27T06:54:55Z</time>
            </trkpt>
            <trkpt lon="100.943477" lat="12.895782">
                <ele>22.728271</ele>
                <time>2006-05-27T06:55:00Z</time>
            </trkpt>
            <trkpt lon="100.943584" lat="12.896254">
                <ele>21.766968</ele>
                <time>2006-05-27T06:55:08Z</time>
            </trkpt>
            <trkpt lon="100.944057" lat="12.897091">
                <ele>22.728271</ele>
                <time>2006-05-27T06:55:24Z</time>
            </trkpt>
            <trkpt lon="100.944099" lat="12.897177">
                <ele>22.247559</ele>
                <time>2006-05-27T06:55:26Z</time>
            </trkpt>
            <trkpt lon="100.944164" lat="12.897370">
                <ele>22.247559</ele>
                <time>2006-05-27T06:55:30Z</time>
            </trkpt>
            <trkpt lon="100.944421" lat="12.897670">
                <ele>22.247559</ele>
                <time>2006-05-27T06:55:39Z</time>
            </trkpt>
            <trkpt lon="100.945215" lat="12.897692">
                <ele>23.208984</ele>
                <time>2006-05-27T06:55:57Z</time>
            </trkpt>
            <trkpt lon="100.945859" lat="12.897756">
                <ele>25.131714</ele>
                <time>2006-05-27T06:56:14Z</time>
            </trkpt>
            <trkpt lon="100.946438" lat="12.897863">
                <ele>26.573608</ele>
                <time>2006-05-27T06:56:29Z</time>
            </trkpt>
            <trkpt lon="100.946610" lat="12.897949">
                <ele>26.092896</ele>
                <time>2006-05-27T06:56:33Z</time>
            </trkpt>
            <trkpt lon="100.946717" lat="12.897971">
                <ele>26.573608</ele>
                <time>2006-05-27T06:56:36Z</time>
            </trkpt>
            <trkpt lon="100.947297" lat="12.898164">
                <ele>26.573608</ele>
                <time>2006-05-27T06:56:49Z</time>
            </trkpt>
            <trkpt lon="100.947490" lat="12.898164">
                <ele>26.573608</ele>
                <time>2006-05-27T06:56:53Z</time>
            </trkpt>
            <trkpt lon="100.947683" lat="12.898142">
                <ele>27.054321</ele>
                <time>2006-05-27T06:56:57Z</time>
            </trkpt>
            <trkpt lon="100.947833" lat="12.898142">
                <ele>27.054321</ele>
                <time>2006-05-27T06:57:00Z</time>
            </trkpt>
            <trkpt lon="100.948842" lat="12.898164">
                <ele>28.976929</ele>
                <time>2006-05-27T06:57:21Z</time>
            </trkpt>
            <trkpt lon="100.949335" lat="12.898164">
                <ele>29.938110</ele>
                <time>2006-05-27T06:57:34Z</time>
            </trkpt>
            <trkpt lon="100.949507" lat="12.898164">
                <ele>29.938110</ele>
                <time>2006-05-27T06:57:38Z</time>
            </trkpt>
            <trkpt lon="100.949764" lat="12.898078">
                <ele>30.418823</ele>
                <time>2006-05-27T06:57:44Z</time>
            </trkpt>
            <trkpt lon="100.950279" lat="12.897863">
                <ele>30.899536</ele>
                <time>2006-05-27T06:57:56Z</time>
            </trkpt>
            <trkpt lon="100.950365" lat="12.897842">
                <ele>30.418823</ele>
                <time>2006-05-27T06:57:58Z</time>
            </trkpt>
            <trkpt lon="100.950773" lat="12.897713">
                <ele>30.899536</ele>
                <time>2006-05-27T06:58:12Z</time>
            </trkpt>
            <trkpt lon="100.951245" lat="12.897584">
                <ele>32.341553</ele>
                <time>2006-05-27T06:58:28Z</time>
            </trkpt>
            <trkpt lon="100.951717" lat="12.897499">
                <ele>33.783447</ele>
                <time>2006-05-27T06:58:44Z</time>
            </trkpt>
            <trkpt lon="100.952103" lat="12.897391">
                <ele>34.744873</ele>
                <time>2006-05-27T06:58:59Z</time>
            </trkpt>
            <trkpt lon="100.952146" lat="12.897391">
                <ele>35.225464</ele>
                <time>2006-05-27T06:59:04Z</time>
            </trkpt>
            <trkpt lon="100.952210" lat="12.897391">
                <ele>35.225464</ele>
                <time>2006-05-27T06:59:08Z</time>
            </trkpt>
            <trkpt lon="100.952468" lat="12.897670">
                <ele>35.706055</ele>
                <time>2006-05-27T06:59:20Z</time>
            </trkpt>
            <trkpt lon="100.952618" lat="12.898099">
                <ele>36.667480</ele>
                <time>2006-05-27T06:59:35Z</time>
            </trkpt>
            <trkpt lon="100.952833" lat="12.898357">
                <ele>36.667480</ele>
                <time>2006-05-27T06:59:48Z</time>
            </trkpt>
            <trkpt lon="100.953498" lat="12.898250">
                <ele>40.032104</ele>
                <time>2006-05-27T07:00:06Z</time>
            </trkpt>
            <trkpt lon="100.954356" lat="12.898057">
                <ele>42.916016</ele>
                <time>2006-05-27T07:00:28Z</time>
            </trkpt>
            <trkpt lon="100.955236" lat="12.897863">
                <ele>45.319214</ele>
                <time>2006-05-27T07:00:50Z</time>
            </trkpt>
            <trkpt lon="100.956116" lat="12.897670">
                <ele>47.241821</ele>
                <time>2006-05-27T07:01:11Z</time>
            </trkpt>
            <trkpt lon="100.957017" lat="12.897413">
                <ele>48.203369</ele>
                <time>2006-05-27T07:01:31Z</time>
            </trkpt>
            <trkpt lon="100.957768" lat="12.897134">
                <ele>46.761230</ele>
                <time>2006-05-27T07:01:45Z</time>
            </trkpt>
            <trkpt lon="100.958025" lat="12.897155">
                <ele>46.761230</ele>
                <time>2006-05-27T07:01:50Z</time>
            </trkpt>
            <trkpt lon="100.958583" lat="12.897499">
                <ele>46.761230</ele>
                <time>2006-05-27T07:02:04Z</time>
            </trkpt>
            <trkpt lon="100.959013" lat="12.897713">
                <ele>47.722534</ele>
                <time>2006-05-27T07:02:17Z</time>
            </trkpt>
            <trkpt lon="100.958991" lat="12.897863">
                <ele>47.241821</ele>
                <time>2006-05-27T07:02:22Z</time>
            </trkpt>
            <trkpt lon="100.958776" lat="12.898185">
                <ele>47.241821</ele>
                <time>2006-05-27T07:02:31Z</time>
            </trkpt>
            <trkpt lon="100.958755" lat="12.898443">
                <ele>47.722534</ele>
                <time>2006-05-27T07:02:37Z</time>
            </trkpt>
            <trkpt lon="100.958669" lat="12.898636">
                <ele>47.722534</ele>
                <time>2006-05-27T07:02:42Z</time>
            </trkpt>
            <trkpt lon="100.958626" lat="12.898722">
                <ele>47.722534</ele>
                <time>2006-05-27T07:02:44Z</time>
            </trkpt>
            <trkpt lon="100.958691" lat="12.898893">
                <ele>47.241821</ele>
                <time>2006-05-27T07:02:50Z</time>
            </trkpt>
            <trkpt lon="100.958648" lat="12.898958">
                <ele>47.241821</ele>
                <time>2006-05-27T07:02:54Z</time>
            </trkpt>
            <trkpt lon="100.958583" lat="12.899280">
                <ele>47.722534</ele>
                <time>2006-05-27T07:03:06Z</time>
            </trkpt>
            <trkpt lon="100.958347" lat="12.899601">
                <ele>48.683960</ele>
                <time>2006-05-27T07:03:17Z</time>
            </trkpt>
            <trkpt lon="100.958047" lat="12.900009">
                <ele>49.645264</ele>
                <time>2006-05-27T07:03:30Z</time>
            </trkpt>
            <trkpt lon="100.957768" lat="12.900074">
                <ele>50.125977</ele>
                <time>2006-05-27T07:03:39Z</time>
            </trkpt>
            <trkpt lon="100.957425" lat="12.900138">
                <ele>50.606567</ele>
                <time>2006-05-27T07:03:49Z</time>
            </trkpt>
            <trkpt lon="100.957339" lat="12.900138">
                <ele>50.606567</ele>
                <time>2006-05-27T07:03:51Z</time>
            </trkpt>
            <trkpt lon="100.957060" lat="12.900116">
                <ele>50.606567</ele>
                <time>2006-05-27T07:03:58Z</time>
            </trkpt>
            <trkpt lon="100.956888" lat="12.900224">
                <ele>49.645264</ele>
                <time>2006-05-27T07:04:03Z</time>
            </trkpt>
            <trkpt lon="100.956759" lat="12.900438">
                <ele>50.125977</ele>
                <time>2006-05-27T07:04:09Z</time>
            </trkpt>
            <trkpt lon="100.956695" lat="12.900546">
                <ele>50.125977</ele>
                <time>2006-05-27T07:04:12Z</time>
            </trkpt>
            <trkpt lon="100.956073" lat="12.901082">
                <ele>48.683960</ele>
                <time>2006-05-27T07:04:29Z</time>
            </trkpt>
            <trkpt lon="100.955987" lat="12.901168">
                <ele>48.683960</ele>
                <time>2006-05-27T07:04:32Z</time>
            </trkpt>
            <trkpt lon="100.955880" lat="12.901318">
                <ele>49.164551</ele>
                <time>2006-05-27T07:04:37Z</time>
            </trkpt>
            <trkpt lon="100.955729" lat="12.901683">
                <ele>50.125977</ele>
                <time>2006-05-27T07:04:49Z</time>
            </trkpt>
            <trkpt lon="100.955772" lat="12.901940">
                <ele>50.125977</ele>
                <time>2006-05-27T07:04:56Z</time>
            </trkpt>
            <trkpt lon="100.955837" lat="12.902091">
                <ele>50.125977</ele>
                <time>2006-05-27T07:05:00Z</time>
            </trkpt>
            <trkpt lon="100.955923" lat="12.902069">
                <ele>50.606567</ele>
                <time>2006-05-27T07:05:04Z</time>
            </trkpt>
            <trkpt lon="100.956073" lat="12.901919">
                <ele>51.087158</ele>
                <time>2006-05-27T07:05:10Z</time>
            </trkpt>
            <trkpt lon="100.956223" lat="12.901962">
                <ele>51.087158</ele>
                <time>2006-05-27T07:05:14Z</time>
            </trkpt>
            <trkpt lon="100.956330" lat="12.902048">
                <ele>51.087158</ele>
                <time>2006-05-27T07:05:17Z</time>
            </trkpt>
            <trkpt lon="100.956438" lat="12.902091">
                <ele>51.087158</ele>
                <time>2006-05-27T07:05:19Z</time>
            </trkpt>
            <trkpt lon="100.956759" lat="12.902563">
                <ele>51.087158</ele>
                <time>2006-05-27T07:05:30Z</time>
            </trkpt>
            <trkpt lon="100.956888" lat="12.902756">
                <ele>51.087158</ele>
                <time>2006-05-27T07:05:34Z</time>
            </trkpt>
            <trkpt lon="100.956953" lat="12.902863">
                <ele>51.087158</ele>
                <time>2006-05-27T07:05:36Z</time>
            </trkpt>
            <trkpt lon="100.957124" lat="12.903550">
                <ele>49.645264</ele>
                <time>2006-05-27T07:05:47Z</time>
            </trkpt>
            <trkpt lon="100.957339" lat="12.903721">
                <ele>50.125977</ele>
                <time>2006-05-27T07:05:52Z</time>
            </trkpt>
            <trkpt lon="100.957489" lat="12.903786">
                <ele>49.164551</ele>
                <time>2006-05-27T07:05:55Z</time>
            </trkpt>
            <trkpt lon="100.957725" lat="12.903786">
                <ele>49.645264</ele>
                <time>2006-05-27T07:06:00Z</time>
            </trkpt>
            <trkpt lon="100.957918" lat="12.903807">
                <ele>49.645264</ele>
                <time>2006-05-27T07:06:04Z</time>
            </trkpt>
            <trkpt lon="100.958068" lat="12.903893">
                <ele>49.645264</ele>
                <time>2006-05-27T07:06:08Z</time>
            </trkpt>
            <trkpt lon="100.958455" lat="12.904150">
                <ele>48.203369</ele>
                <time>2006-05-27T07:06:18Z</time>
            </trkpt>
            <trkpt lon="100.958819" lat="12.904236">
                <ele>48.683960</ele>
                <time>2006-05-27T07:06:27Z</time>
            </trkpt>
            <trkpt lon="100.959356" lat="12.904193">
                <ele>48.203369</ele>
                <time>2006-05-27T07:06:36Z</time>
            </trkpt>
            <trkpt lon="100.959506" lat="12.904065">
                <ele>47.722534</ele>
                <time>2006-05-27T07:06:40Z</time>
            </trkpt>
            <trkpt lon="100.959549" lat="12.903979">
                <ele>47.722534</ele>
                <time>2006-05-27T07:06:42Z</time>
            </trkpt>
            <trkpt lon="100.959549" lat="12.903807">
                <ele>47.722534</ele>
                <time>2006-05-27T07:06:46Z</time>
            </trkpt>
            <trkpt lon="100.959377" lat="12.903442">
                <ele>46.761230</ele>
                <time>2006-05-27T07:06:55Z</time>
            </trkpt>
            <trkpt lon="100.959120" lat="12.902970">
                <ele>46.761230</ele>
                <time>2006-05-27T07:07:06Z</time>
            </trkpt>
            <trkpt lon="100.959206" lat="12.902842">
                <ele>48.203369</ele>
                <time>2006-05-27T07:07:11Z</time>
            </trkpt>
            <trkpt lon="100.959635" lat="12.902541">
                <ele>49.645264</ele>
                <time>2006-05-27T07:07:22Z</time>
            </trkpt>
            <trkpt lon="100.960150" lat="12.902241">
                <ele>51.087158</ele>
                <time>2006-05-27T07:07:34Z</time>
            </trkpt>
            <trkpt lon="100.960321" lat="12.902327">
                <ele>52.048584</ele>
                <time>2006-05-27T07:07:39Z</time>
            </trkpt>
            <trkpt lon="100.960879" lat="12.903163">
                <ele>52.529175</ele>
                <time>2006-05-27T07:07:58Z</time>
            </trkpt>
            <trkpt lon="100.961652" lat="12.904301">
                <ele>50.606567</ele>
                <time>2006-05-27T07:08:19Z</time>
            </trkpt>
            <trkpt lon="100.961823" lat="12.904537">
                <ele>51.087158</ele>
                <time>2006-05-27T07:08:28Z</time>
            </trkpt>
            <trkpt lon="100.961931" lat="12.904623">
                <ele>52.048584</ele>
                <time>2006-05-27T07:08:44Z</time>
            </trkpt>
            <trkpt lon="100.962102" lat="12.904708">
                <ele>52.048584</ele>
                <time>2006-05-27T07:09:01Z</time>
            </trkpt>
            <trkpt lon="100.962167" lat="12.904730">
                <ele>52.048584</ele>
                <time>2006-05-27T07:09:08Z</time>
            </trkpt>
            <trkpt lon="100.962296" lat="12.904708">
                <ele>52.048584</ele>
                <time>2006-05-27T07:09:24Z</time>
            </trkpt>
            <trkpt lon="100.962574" lat="12.904558">
                <ele>53.009766</ele>
                <time>2006-05-27T07:09:37Z</time>
            </trkpt>
            <trkpt lon="100.962918" lat="12.904558">
                <ele>52.529175</ele>
                <time>2006-05-27T07:09:49Z</time>
            </trkpt>
            <trkpt lon="100.963368" lat="12.904816">
                <ele>52.529175</ele>
                <time>2006-05-27T07:10:02Z</time>
            </trkpt>
            <trkpt lon="100.963669" lat="12.905030">
                <ele>52.529175</ele>
                <time>2006-05-27T07:10:11Z</time>
            </trkpt>
            <trkpt lon="100.963840" lat="12.904859">
                <ele>53.009766</ele>
                <time>2006-05-27T07:10:20Z</time>
            </trkpt>
            <trkpt lon="100.963883" lat="12.904773">
                <ele>53.009766</ele>
                <time>2006-05-27T07:10:24Z</time>
            </trkpt>
            <trkpt lon="100.964034" lat="12.904365">
                <ele>56.374512</ele>
                <time>2006-05-27T07:10:38Z</time>
            </trkpt>
            <trkpt lon="100.964313" lat="12.903872">
                <ele>59.258423</ele>
                <time>2006-05-27T07:10:55Z</time>
            </trkpt>
            <trkpt lon="100.964334" lat="12.903571">
                <ele>59.739136</ele>
                <time>2006-05-27T07:11:05Z</time>
            </trkpt>
            <trkpt lon="100.964227" lat="12.903378">
                <ele>59.258423</ele>
                <time>2006-05-27T07:11:11Z</time>
            </trkpt>
            <trkpt lon="100.964248" lat="12.903228">
                <ele>59.739136</ele>
                <time>2006-05-27T07:11:15Z</time>
            </trkpt>
            <trkpt lon="100.964441" lat="12.902691">
                <ele>61.181030</ele>
                <time>2006-05-27T07:11:30Z</time>
            </trkpt>
            <trkpt lon="100.964592" lat="12.902305">
                <ele>61.661743</ele>
                <time>2006-05-27T07:11:45Z</time>
            </trkpt>
            <trkpt lon="100.964806" lat="12.901790">
                <ele>62.622925</ele>
                <time>2006-05-27T07:12:03Z</time>
            </trkpt>
            <trkpt lon="100.964720" lat="12.901340">
                <ele>62.622925</ele>
                <time>2006-05-27T07:12:15Z</time>
            </trkpt>
            <trkpt lon="100.964935" lat="12.900996">
                <ele>62.622925</ele>
                <time>2006-05-27T07:12:26Z</time>
            </trkpt>
            <trkpt lon="100.965149" lat="12.900631">
                <ele>63.584351</ele>
                <time>2006-05-27T07:12:38Z</time>
            </trkpt>
            <trkpt lon="100.965579" lat="12.900546">
                <ele>64.065063</ele>
                <time>2006-05-27T07:12:50Z</time>
            </trkpt>
            <trkpt lon="100.965986" lat="12.900503">
                <ele>64.545654</ele>
                <time>2006-05-27T07:13:01Z</time>
            </trkpt>
            <trkpt lon="100.966330" lat="12.900331">
                <ele>64.545654</ele>
                <time>2006-05-27T07:13:10Z</time>
            </trkpt>
            <trkpt lon="100.966480" lat="12.900159">
                <ele>64.545654</ele>
                <time>2006-05-27T07:13:15Z</time>
            </trkpt>
            <trkpt lon="100.966823" lat="12.899644">
                <ele>63.584351</ele>
                <time>2006-05-27T07:13:31Z</time>
            </trkpt>
            <trkpt lon="100.967038" lat="12.899365">
                <ele>63.103638</ele>
                <time>2006-05-27T07:13:41Z</time>
            </trkpt>
            <trkpt lon="100.967467" lat="12.898872">
                <ele>63.103638</ele>
                <time>2006-05-27T07:13:56Z</time>
            </trkpt>
            <trkpt lon="100.967724" lat="12.898722">
                <ele>63.103638</ele>
                <time>2006-05-27T07:14:02Z</time>
            </trkpt>
            <trkpt lon="100.967853" lat="12.898571">
                <ele>62.622925</ele>
                <time>2006-05-27T07:14:06Z</time>
            </trkpt>
            <trkpt lon="100.967939" lat="12.898443">
                <ele>62.622925</ele>
                <time>2006-05-27T07:14:09Z</time>
            </trkpt>
            <trkpt lon="100.968132" lat="12.898207">
                <ele>60.700317</ele>
                <time>2006-05-27T07:14:19Z</time>
            </trkpt>
            <trkpt lon="100.968153" lat="12.898207">
                <ele>60.700317</ele>
                <time>2006-05-27T07:14:20Z</time>
            </trkpt>
            <trkpt lon="100.968561" lat="12.898099">
                <ele>60.700317</ele>
                <time>2006-05-27T07:14:29Z</time>
            </trkpt>
            <trkpt lon="100.968647" lat="12.898099">
                <ele>60.700317</ele>
                <time>2006-05-27T07:14:31Z</time>
            </trkpt>
            <trkpt lon="100.968797" lat="12.898121">
                <ele>60.219727</ele>
                <time>2006-05-27T07:14:34Z</time>
            </trkpt>
            <trkpt lon="100.968904" lat="12.898121">
                <ele>60.219727</ele>
                <time>2006-05-27T07:14:36Z</time>
            </trkpt>
            <trkpt lon="100.969763" lat="12.898228">
                <ele>58.297119</ele>
                <time>2006-05-27T07:14:53Z</time>
            </trkpt>
            <trkpt lon="100.970492" lat="12.898357">
                <ele>56.374512</ele>
                <time>2006-05-27T07:15:09Z</time>
            </trkpt>
            <trkpt lon="100.970535" lat="12.898335">
                <ele>56.855103</ele>
                <time>2006-05-27T07:15:12Z</time>
            </trkpt>
            <trkpt lon="100.970578" lat="12.898378">
                <ele>57.335815</ele>
                <time>2006-05-27T07:15:19Z</time>
            </trkpt>
            <trkpt lon="100.970449" lat="12.899001">
                <ele>57.816528</ele>
                <time>2006-05-27T07:15:34Z</time>
            </trkpt>
            <trkpt lon="100.970492" lat="12.899709">
                <ele>56.855103</ele>
                <time>2006-05-27T07:15:50Z</time>
            </trkpt>
            <trkpt lon="100.970793" lat="12.899816">
                <ele>56.374512</ele>
                <time>2006-05-27T07:16:01Z</time>
            </trkpt>
            <trkpt lon="100.971437" lat="12.900009">
                <ele>55.893799</ele>
                <time>2006-05-27T07:16:17Z</time>
            </trkpt>
            <trkpt lon="100.971501" lat="12.899988">
                <ele>55.893799</ele>
                <time>2006-05-27T07:16:20Z</time>
            </trkpt>
            <trkpt lon="100.971544" lat="12.899773">
                <ele>54.932373</ele>
                <time>2006-05-27T07:16:34Z</time>
            </trkpt>
            <trkpt lon="100.971630" lat="12.899623">
                <ele>55.413086</ele>
                <time>2006-05-27T07:16:43Z</time>
            </trkpt>
            <trkpt lon="100.971630" lat="12.899601">
                <ele>54.932373</ele>
                <time>2006-05-27T07:16:45Z</time>
            </trkpt>
            <trkpt lon="100.971522" lat="12.899773">
                <ele>53.971191</ele>
                <time>2006-05-27T07:16:52Z</time>
            </trkpt>
            <trkpt lon="100.971329" lat="12.899966">
                <ele>53.971191</ele>
                <time>2006-05-27T07:17:00Z</time>
            </trkpt>
            <trkpt lon="100.970621" lat="12.899752">
                <ele>56.374512</ele>
                <time>2006-05-27T07:17:17Z</time>
            </trkpt>
            <trkpt lon="100.970535" lat="12.899816">
                <ele>56.855103</ele>
                <time>2006-05-27T07:17:22Z</time>
            </trkpt>
            <trkpt lon="100.970471" lat="12.900202">
                <ele>56.374512</ele>
                <time>2006-05-27T07:17:34Z</time>
            </trkpt>
            <trkpt lon="100.970321" lat="12.900631">
                <ele>56.855103</ele>
                <time>2006-05-27T07:17:47Z</time>
            </trkpt>
            <trkpt lon="100.970321" lat="12.900653">
                <ele>57.335815</ele>
                <time>2006-05-27T07:17:48Z</time>
            </trkpt>
            <trkpt lon="100.970407" lat="12.900589">
                <ele>57.335815</ele>
                <time>2006-05-27T07:17:54Z</time>
            </trkpt>
            <trkpt lon="100.970321" lat="12.900589">
                <ele>56.855103</ele>
                <time>2006-05-27T07:18:01Z</time>
            </trkpt>
            <trkpt lon="100.970085" lat="12.901103">
                <ele>57.816528</ele>
                <time>2006-05-27T07:18:16Z</time>
            </trkpt>
            <trkpt lon="100.969892" lat="12.901576">
                <ele>57.816528</ele>
                <time>2006-05-27T07:18:32Z</time>
            </trkpt>
            <trkpt lon="100.969806" lat="12.901661">
                <ele>57.816528</ele>
                <time>2006-05-27T07:18:41Z</time>
            </trkpt>
            <trkpt lon="100.969849" lat="12.901661">
                <ele>56.855103</ele>
                <time>2006-05-27T07:18:50Z</time>
            </trkpt>
            <trkpt lon="100.969849" lat="12.901661">
                <ele>56.855103</ele>
                <time>2006-05-27T07:18:52Z</time>
            </trkpt>
            <trkpt lon="100.969806" lat="12.901683">
                <ele>56.374512</ele>
                <time>2006-05-27T07:18:57Z</time>
            </trkpt>
            <trkpt lon="100.969913" lat="12.901640">
                <ele>56.855103</ele>
                <time>2006-05-27T07:19:06Z</time>
            </trkpt>
            <trkpt lon="100.969934" lat="12.901597">
                <ele>57.816528</ele>
                <time>2006-05-27T07:19:08Z</time>
            </trkpt>
            <trkpt lon="100.969977" lat="12.901533">
                <ele>59.258423</ele>
                <time>2006-05-27T07:19:18Z</time>
            </trkpt>
            <trkpt lon="100.970063" lat="12.901318">
                <ele>62.142334</ele>
                <time>2006-05-27T07:19:41Z</time>
            </trkpt>
            <trkpt lon="100.970407" lat="12.900610">
                <ele>59.258423</ele>
                <time>2006-05-27T07:19:55Z</time>
            </trkpt>
            <trkpt lon="100.970535" lat="12.900052">
                <ele>57.816528</ele>
                <time>2006-05-27T07:20:04Z</time>
            </trkpt>
            <trkpt lon="100.970471" lat="12.899709">
                <ele>56.855103</ele>
                <time>2006-05-27T07:20:10Z</time>
            </trkpt>
            <trkpt lon="100.970557" lat="12.898571">
                <ele>58.777710</ele>
                <time>2006-05-27T07:20:31Z</time>
            </trkpt>
            <trkpt lon="100.970557" lat="12.898529">
                <ele>59.258423</ele>
                <time>2006-05-27T07:20:32Z</time>
            </trkpt>
            <trkpt lon="100.970557" lat="12.898271">
                <ele>58.777710</ele>
                <time>2006-05-27T07:20:42Z</time>
            </trkpt>
            <trkpt lon="100.970514" lat="12.898314">
                <ele>58.777710</ele>
                <time>2006-05-27T07:20:45Z</time>
            </trkpt>
            <trkpt lon="100.970514" lat="12.898443">
                <ele>58.777710</ele>
                <time>2006-05-27T07:20:56Z</time>
            </trkpt>
            <trkpt lon="100.970514" lat="12.898378">
                <ele>59.258423</ele>
                <time>2006-05-27T07:21:03Z</time>
            </trkpt>
            <trkpt lon="100.969763" lat="12.898228">
                <ele>58.777710</ele>
                <time>2006-05-27T07:21:23Z</time>
            </trkpt>
            <trkpt lon="100.968862" lat="12.898121">
                <ele>57.816528</ele>
                <time>2006-05-27T07:21:47Z</time>
            </trkpt>
            <trkpt lon="100.968733" lat="12.898099">
                <ele>57.816528</ele>
                <time>2006-05-27T07:21:53Z</time>
            </trkpt>
            <trkpt lon="100.968904" lat="12.898121">
                <ele>58.297119</ele>
                <time>2006-05-27T07:22:02Z</time>
            </trkpt>
            <trkpt lon="100.969355" lat="12.898185">
                <ele>58.777710</ele>
                <time>2006-05-27T07:22:19Z</time>
            </trkpt>
            <trkpt lon="100.969355" lat="12.898164">
                <ele>59.739136</ele>
                <time>2006-05-27T07:22:29Z</time>
            </trkpt>
            <trkpt lon="100.968969" lat="12.898142">
                <ele>58.777710</ele>
                <time>2006-05-27T07:22:42Z</time>
            </trkpt>
            <trkpt lon="100.968862" lat="12.898121">
                <ele>58.297119</ele>
                <time>2006-05-27T07:22:53Z</time>
            </trkpt>
            <trkpt lon="100.968819" lat="12.898099">
                <ele>57.816528</ele>
                <time>2006-05-27T07:23:14Z</time>
            </trkpt>
            <trkpt lon="100.968668" lat="12.898099">
                <ele>58.297119</ele>
                <time>2006-05-27T07:23:27Z</time>
            </trkpt>
            <trkpt lon="100.968175" lat="12.898207">
                <ele>59.739136</ele>
                <time>2006-05-27T07:23:40Z</time>
            </trkpt>
            <trkpt lon="100.968046" lat="12.898228">
                <ele>59.739136</ele>
                <time>2006-05-27T07:23:43Z</time>
            </trkpt>
            <trkpt lon="100.967960" lat="12.898185">
                <ele>60.700317</ele>
                <time>2006-05-27T07:23:47Z</time>
            </trkpt>
            <trkpt lon="100.967789" lat="12.897799">
                <ele>60.219727</ele>
                <time>2006-05-27T07:24:04Z</time>
            </trkpt>
            <trkpt lon="100.967445" lat="12.897263">
                <ele>61.181030</ele>
                <time>2006-05-27T07:24:22Z</time>
            </trkpt>
            <trkpt lon="100.966952" lat="12.896898">
                <ele>61.181030</ele>
                <time>2006-05-27T07:24:40Z</time>
            </trkpt>
            <trkpt lon="100.966544" lat="12.896683">
                <ele>60.700317</ele>
                <time>2006-05-27T07:24:53Z</time>
            </trkpt>
            <trkpt lon="100.966437" lat="12.896619">
                <ele>60.219727</ele>
                <time>2006-05-27T07:24:56Z</time>
            </trkpt>
            <trkpt lon="100.966372" lat="12.896576">
                <ele>60.219727</ele>
                <time>2006-05-27T07:24:58Z</time>
            </trkpt>
            <trkpt lon="100.965965" lat="12.896361">
                <ele>59.739136</ele>
                <time>2006-05-27T07:25:09Z</time>
            </trkpt>
            <trkpt lon="100.966008" lat="12.896061">
                <ele>59.739136</ele>
                <time>2006-05-27T07:25:18Z</time>
            </trkpt>
            <trkpt lon="100.966201" lat="12.895589">
                <ele>59.258423</ele>
                <time>2006-05-27T07:25:34Z</time>
            </trkpt>
            <trkpt lon="100.966201" lat="12.895589">
                <ele>60.700317</ele>
                <time>2006-05-27T07:25:53Z</time>
            </trkpt>
            <trkpt lon="100.966201" lat="12.895396">
                <ele>59.739136</ele>
                <time>2006-05-27T07:26:04Z</time>
            </trkpt>
            <trkpt lon="100.966094" lat="12.895095">
                <ele>59.258423</ele>
                <time>2006-05-27T07:26:14Z</time>
            </trkpt>
            <trkpt lon="100.966244" lat="12.895052">
                <ele>59.258423</ele>
                <time>2006-05-27T07:26:19Z</time>
            </trkpt>
            <trkpt lon="100.967145" lat="12.894795">
                <ele>58.297119</ele>
                <time>2006-05-27T07:26:37Z</time>
            </trkpt>
            <trkpt lon="100.967295" lat="12.894752">
                <ele>57.816528</ele>
                <time>2006-05-27T07:26:40Z</time>
            </trkpt>
            <trkpt lon="100.967467" lat="12.894602">
                <ele>56.855103</ele>
                <time>2006-05-27T07:26:46Z</time>
            </trkpt>
            <trkpt lon="100.967510" lat="12.893808">
                <ele>53.490479</ele>
                <time>2006-05-27T07:27:00Z</time>
            </trkpt>
            <trkpt lon="100.967531" lat="12.893679">
                <ele>53.009766</ele>
                <time>2006-05-27T07:27:02Z</time>
            </trkpt>
            <trkpt lon="100.967681" lat="12.892950">
                <ele>50.125977</ele>
                <time>2006-05-27T07:27:15Z</time>
            </trkpt>
            <trkpt lon="100.967703" lat="12.892778">
                <ele>49.164551</ele>
                <time>2006-05-27T07:27:18Z</time>
            </trkpt>
            <trkpt lon="100.967939" lat="12.891941">
                <ele>45.799927</ele>
                <time>2006-05-27T07:27:32Z</time>
            </trkpt>
            <trkpt lon="100.968003" lat="12.891619">
                <ele>44.838623</ele>
                <time>2006-05-27T07:27:44Z</time>
            </trkpt>
            <trkpt lon="100.968025" lat="12.891576">
                <ele>44.838623</ele>
                <time>2006-05-27T07:27:47Z</time>
            </trkpt>
            <trkpt lon="100.968132" lat="12.891598">
                <ele>44.838623</ele>
                <time>2006-05-27T07:27:51Z</time>
            </trkpt>
            <trkpt lon="100.968218" lat="12.891641">
                <ele>44.838623</ele>
                <time>2006-05-27T07:27:54Z</time>
            </trkpt>
            <trkpt lon="100.968904" lat="12.891855">
                <ele>45.799927</ele>
                <time>2006-05-27T07:28:09Z</time>
            </trkpt>
            <trkpt lon="100.969763" lat="12.892156">
                <ele>45.799927</ele>
                <time>2006-05-27T07:28:27Z</time>
            </trkpt>
            <trkpt lon="100.970342" lat="12.892671">
                <ele>45.319214</ele>
                <time>2006-05-27T07:28:42Z</time>
            </trkpt>
            <trkpt lon="100.970471" lat="12.892842">
                <ele>45.319214</ele>
                <time>2006-05-27T07:28:47Z</time>
            </trkpt>
            <trkpt lon="100.970600" lat="12.892821">
                <ele>45.319214</ele>
                <time>2006-05-27T07:28:52Z</time>
            </trkpt>
            <trkpt lon="100.971115" lat="12.892327">
                <ele>42.435425</ele>
                <time>2006-05-27T07:29:05Z</time>
            </trkpt>
            <trkpt lon="100.971501" lat="12.891984">
                <ele>42.916016</ele>
                <time>2006-05-27T07:29:17Z</time>
            </trkpt>
            <trkpt lon="100.971801" lat="12.891812">
                <ele>42.916016</ele>
                <time>2006-05-27T07:29:26Z</time>
            </trkpt>
            <trkpt lon="100.972316" lat="12.891512">
                <ele>44.358032</ele>
                <time>2006-05-27T07:29:42Z</time>
            </trkpt>
            <trkpt lon="100.972745" lat="12.891212">
                <ele>45.319214</ele>
                <time>2006-05-27T07:29:59Z</time>
            </trkpt>
            <trkpt lon="100.973067" lat="12.890847">
                <ele>46.761230</ele>
                <time>2006-05-27T07:30:16Z</time>
            </trkpt>
            <trkpt lon="100.973475" lat="12.890460">
                <ele>49.164551</ele>
                <time>2006-05-27T07:30:35Z</time>
            </trkpt>
            <trkpt lon="100.973797" lat="12.890654">
                <ele>50.606567</ele>
                <time>2006-05-27T07:30:47Z</time>
            </trkpt>
            <trkpt lon="100.974355" lat="12.890911">
                <ele>52.529175</ele>
                <time>2006-05-27T07:31:04Z</time>
            </trkpt>
            <trkpt lon="100.974870" lat="12.891169">
                <ele>54.451782</ele>
                <time>2006-05-27T07:31:21Z</time>
            </trkpt>
            <trkpt lon="100.975471" lat="12.891512">
                <ele>56.855103</ele>
                <time>2006-05-27T07:31:40Z</time>
            </trkpt>
            <trkpt lon="100.975857" lat="12.891705">
                <ele>57.816528</ele>
                <time>2006-05-27T07:31:51Z</time>
            </trkpt>
            <trkpt lon="100.976007" lat="12.891791">
                <ele>57.816528</ele>
                <time>2006-05-27T07:31:55Z</time>
            </trkpt>
            <trkpt lon="100.976458" lat="12.892048">
                <ele>57.335815</ele>
                <time>2006-05-27T07:32:07Z</time>
            </trkpt>
            <trkpt lon="100.977015" lat="12.892241">
                <ele>56.855103</ele>
                <time>2006-05-27T07:32:19Z</time>
            </trkpt>
            <trkpt lon="100.977037" lat="12.892156">
                <ele>57.335815</ele>
                <time>2006-05-27T07:32:23Z</time>
            </trkpt>
            <trkpt lon="100.977037" lat="12.892005">
                <ele>57.816528</ele>
                <time>2006-05-27T07:32:28Z</time>
            </trkpt>
            <trkpt lon="100.977166" lat="12.891963">
                <ele>56.855103</ele>
                <time>2006-05-27T07:32:34Z</time>
            </trkpt>
            <trkpt lon="100.977552" lat="12.891877">
                <ele>54.932373</ele>
                <time>2006-05-27T07:32:46Z</time>
            </trkpt>
            <trkpt lon="100.977852" lat="12.891791">
                <ele>53.009766</ele>
                <time>2006-05-27T07:32:56Z</time>
            </trkpt>
            <trkpt lon="100.978153" lat="12.891684">
                <ele>50.125977</ele>
                <time>2006-05-27T07:33:07Z</time>
            </trkpt>
            <trkpt lon="100.978217" lat="12.891576">
                <ele>50.606567</ele>
                <time>2006-05-27T07:33:18Z</time>
            </trkpt>
            <trkpt lon="100.978346" lat="12.891340">
                <ele>50.125977</ele>
                <time>2006-05-27T07:33:28Z</time>
            </trkpt>
            <trkpt lon="100.978475" lat="12.891040">
                <ele>49.164551</ele>
                <time>2006-05-27T07:33:38Z</time>
            </trkpt>
            <trkpt lon="100.978668" lat="12.890911">
                <ele>48.203369</ele>
                <time>2006-05-27T07:33:48Z</time>
            </trkpt>
            <trkpt lon="100.979290" lat="12.890890">
                <ele>47.722534</ele>
                <time>2006-05-27T07:34:05Z</time>
            </trkpt>
            <trkpt lon="100.979612" lat="12.890611">
                <ele>47.722534</ele>
                <time>2006-05-27T07:34:18Z</time>
            </trkpt>
            <trkpt lon="100.979741" lat="12.890482">
                <ele>48.203369</ele>
                <time>2006-05-27T07:34:28Z</time>
            </trkpt>
            <trkpt lon="100.979762" lat="12.890439">
                <ele>49.164551</ele>
                <time>2006-05-27T07:34:51Z</time>
            </trkpt>
            <trkpt lon="100.979955" lat="12.890289">
                <ele>49.164551</ele>
                <time>2006-05-27T07:35:16Z</time>
            </trkpt>
            <trkpt lon="100.980170" lat="12.890139">
                <ele>49.164551</ele>
                <time>2006-05-27T07:35:22Z</time>
            </trkpt>
            <trkpt lon="100.980363" lat="12.890031">
                <ele>48.683960</ele>
                <time>2006-05-27T07:35:28Z</time>
            </trkpt>
            <trkpt lon="100.980449" lat="12.890182">
                <ele>49.164551</ele>
                <time>2006-05-27T07:35:37Z</time>
            </trkpt>
            <trkpt lon="100.980449" lat="12.890224">
                <ele>49.164551</ele>
                <time>2006-05-27T07:35:39Z</time>
            </trkpt>
            <trkpt lon="100.980470" lat="12.890267">
                <ele>49.164551</ele>
                <time>2006-05-27T07:35:44Z</time>
            </trkpt>
            <trkpt lon="100.980427" lat="12.890160">
                <ele>49.164551</ele>
                <time>2006-05-27T07:35:50Z</time>
            </trkpt>
            <trkpt lon="100.980363" lat="12.889795">
                <ele>49.164551</ele>
                <time>2006-05-27T07:36:04Z</time>
            </trkpt>
            <trkpt lon="100.980341" lat="12.889709">
                <ele>49.164551</ele>
                <time>2006-05-27T07:36:06Z</time>
            </trkpt>
            <trkpt lon="100.980427" lat="12.889495">
                <ele>49.164551</ele>
                <time>2006-05-27T07:36:12Z</time>
            </trkpt>
            <trkpt lon="100.980492" lat="12.889366">
                <ele>48.683960</ele>
                <time>2006-05-27T07:36:16Z</time>
            </trkpt>
            <trkpt lon="100.980599" lat="12.889173">
                <ele>48.683960</ele>
                <time>2006-05-27T07:36:21Z</time>
            </trkpt>
            <trkpt lon="100.980513" lat="12.889087">
                <ele>48.683960</ele>
                <time>2006-05-27T07:36:26Z</time>
            </trkpt>
            <trkpt lon="100.980020" lat="12.889044">
                <ele>47.722534</ele>
                <time>2006-05-27T07:36:38Z</time>
            </trkpt>
            <trkpt lon="100.979826" lat="12.888980">
                <ele>47.722534</ele>
                <time>2006-05-27T07:36:43Z</time>
            </trkpt>
            <trkpt lon="100.979633" lat="12.888787">
                <ele>46.761230</ele>
                <time>2006-05-27T07:36:54Z</time>
            </trkpt>
            <trkpt lon="100.979612" lat="12.888765">
                <ele>46.761230</ele>
                <time>2006-05-27T07:36:56Z</time>
            </trkpt>
            <trkpt lon="100.979590" lat="12.888787">
                <ele>46.761230</ele>
                <time>2006-05-27T07:37:00Z</time>
            </trkpt>
            <trkpt lon="100.979633" lat="12.888787">
                <ele>46.761230</ele>
                <time>2006-05-27T07:37:03Z</time>
            </trkpt>
            <trkpt lon="100.979698" lat="12.888851">
                <ele>46.761230</ele>
                <time>2006-05-27T07:37:08Z</time>
            </trkpt>
            <trkpt lon="100.980148" lat="12.889044">
                <ele>47.722534</ele>
                <time>2006-05-27T07:37:23Z</time>
            </trkpt>
            <trkpt lon="100.980620" lat="12.889109">
                <ele>48.683960</ele>
                <time>2006-05-27T07:37:38Z</time>
            </trkpt>
            <trkpt lon="100.980642" lat="12.889087">
                <ele>48.683960</ele>
                <time>2006-05-27T07:37:42Z</time>
            </trkpt>
            <trkpt lon="100.980942" lat="12.888572">
                <ele>48.203369</ele>
                <time>2006-05-27T07:37:56Z</time>
            </trkpt>
            <trkpt lon="100.981028" lat="12.888401">
                <ele>47.722534</ele>
                <time>2006-05-27T07:38:00Z</time>
            </trkpt>
            <trkpt lon="100.981007" lat="12.888207">
                <ele>47.241821</ele>
                <time>2006-05-27T07:38:04Z</time>
            </trkpt>
            <trkpt lon="100.980556" lat="12.887456">
                <ele>46.761230</ele>
                <time>2006-05-27T07:38:20Z</time>
            </trkpt>
            <trkpt lon="100.980299" lat="12.887199">
                <ele>46.280640</ele>
                <time>2006-05-27T07:38:32Z</time>
            </trkpt>
            <trkpt lon="100.980256" lat="12.887092">
                <ele>45.799927</ele>
                <time>2006-05-27T07:38:36Z</time>
            </trkpt>
            <trkpt lon="100.980341" lat="12.887006">
                <ele>45.799927</ele>
                <time>2006-05-27T07:38:40Z</time>
            </trkpt>
            <trkpt lon="100.980535" lat="12.886941">
                <ele>47.241821</ele>
                <time>2006-05-27T07:38:54Z</time>
            </trkpt>
            <trkpt lon="100.980728" lat="12.886920">
                <ele>48.683960</ele>
                <time>2006-05-27T07:39:07Z</time>
            </trkpt>
            <trkpt lon="100.981157" lat="12.886856">
                <ele>46.761230</ele>
                <time>2006-05-27T07:39:21Z</time>
            </trkpt>
            <trkpt lon="100.981522" lat="12.886856">
                <ele>47.241821</ele>
                <time>2006-05-27T07:39:33Z</time>
            </trkpt>
            <trkpt lon="100.982208" lat="12.886748">
                <ele>48.203369</ele>
                <time>2006-05-27T07:39:50Z</time>
            </trkpt>
            <trkpt lon="100.982573" lat="12.886598">
                <ele>50.606567</ele>
                <time>2006-05-27T07:40:04Z</time>
            </trkpt>
            <trkpt lon="100.982723" lat="12.886534">
                <ele>49.645264</ele>
                <time>2006-05-27T07:40:15Z</time>
            </trkpt>
            <trkpt lon="100.982745" lat="12.886534">
                <ele>50.606567</ele>
                <time>2006-05-27T07:40:32Z</time>
            </trkpt>
            <trkpt lon="100.982852" lat="12.886834">
                <ele>50.606567</ele>
                <time>2006-05-27T07:40:44Z</time>
            </trkpt>
            <trkpt lon="100.983174" lat="12.887456">
                <ele>50.606567</ele>
                <time>2006-05-27T07:41:01Z</time>
            </trkpt>
            <trkpt lon="100.983603" lat="12.888207">
                <ele>50.125977</ele>
                <time>2006-05-27T07:41:22Z</time>
            </trkpt>
            <trkpt lon="100.983925" lat="12.888937">
                <ele>50.125977</ele>
                <time>2006-05-27T07:41:42Z</time>
            </trkpt>
            <trkpt lon="100.984204" lat="12.889667">
                <ele>50.606567</ele>
                <time>2006-05-27T07:42:01Z</time>
            </trkpt>
            <trkpt lon="100.984333" lat="12.890267">
                <ele>51.567871</ele>
                <time>2006-05-27T07:42:16Z</time>
            </trkpt>
            <trkpt lon="100.984375" lat="12.890525">
                <ele>52.529175</ele>
                <time>2006-05-27T07:42:22Z</time>
            </trkpt>
            <trkpt lon="100.984612" lat="12.891405">
                <ele>52.529175</ele>
                <time>2006-05-27T07:42:43Z</time>
            </trkpt>
            <trkpt lon="100.984654" lat="12.891920">
                <ele>53.490479</ele>
                <time>2006-05-27T07:42:56Z</time>
            </trkpt>
            <trkpt lon="100.984719" lat="12.892799">
                <ele>56.374512</ele>
                <time>2006-05-27T07:43:17Z</time>
            </trkpt>
            <trkpt lon="100.984762" lat="12.893379">
                <ele>57.816528</ele>
                <time>2006-05-27T07:43:31Z</time>
            </trkpt>
            <trkpt lon="100.984805" lat="12.893937">
                <ele>60.700317</ele>
                <time>2006-05-27T07:43:48Z</time>
            </trkpt>
            <trkpt lon="100.984848" lat="12.894216">
                <ele>61.181030</ele>
                <time>2006-05-27T07:44:00Z</time>
            </trkpt>
            <trkpt lon="100.984890" lat="12.894173">
                <ele>61.181030</ele>
                <time>2006-05-27T07:44:04Z</time>
            </trkpt>
            <trkpt lon="100.984826" lat="12.893529">
                <ele>57.816528</ele>
                <time>2006-05-27T07:44:18Z</time>
            </trkpt>
            <trkpt lon="100.984762" lat="12.893078">
                <ele>55.893799</ele>
                <time>2006-05-27T07:44:25Z</time>
            </trkpt>
            <trkpt lon="100.984676" lat="12.892048">
                <ele>54.451782</ele>
                <time>2006-05-27T07:44:42Z</time>
            </trkpt>
            <trkpt lon="100.984676" lat="12.891812">
                <ele>53.971191</ele>
                <time>2006-05-27T07:44:46Z</time>
            </trkpt>
            <trkpt lon="100.984933" lat="12.891448">
                <ele>53.009766</ele>
                <time>2006-05-27T07:44:54Z</time>
            </trkpt>
            <trkpt lon="100.985341" lat="12.891276">
                <ele>52.048584</ele>
                <time>2006-05-27T07:45:01Z</time>
            </trkpt>
            <trkpt lon="100.985577" lat="12.890933">
                <ele>52.048584</ele>
                <time>2006-05-27T07:45:08Z</time>
            </trkpt>
            <trkpt lon="100.985749" lat="12.890460">
                <ele>52.048584</ele>
                <time>2006-05-27T07:45:20Z</time>
            </trkpt>
            <trkpt lon="100.985813" lat="12.890375">
                <ele>51.567871</ele>
                <time>2006-05-27T07:45:22Z</time>
            </trkpt>
            <trkpt lon="100.986156" lat="12.890246">
                <ele>52.529175</ele>
                <time>2006-05-27T07:45:33Z</time>
            </trkpt>
            <trkpt lon="100.986543" lat="12.890074">
                <ele>52.529175</ele>
                <time>2006-05-27T07:45:47Z</time>
            </trkpt>
            <trkpt lon="100.986564" lat="12.890074">
                <ele>52.048584</ele>
                <time>2006-05-27T07:45:48Z</time>
            </trkpt>
            <trkpt lon="100.986779" lat="12.890182">
                <ele>54.451782</ele>
                <time>2006-05-27T07:46:02Z</time>
            </trkpt>
            <trkpt lon="100.986779" lat="12.890182">
                <ele>54.451782</ele>
                <time>2006-05-27T07:46:17Z</time>
            </trkpt>
            <trkpt lon="100.986693" lat="12.890117">
                <ele>53.009766</ele>
                <time>2006-05-27T07:46:22Z</time>
            </trkpt>
            <trkpt lon="100.986500" lat="12.890053">
                <ele>50.125977</ele>
                <time>2006-05-27T07:46:26Z</time>
            </trkpt>
            <trkpt lon="100.986307" lat="12.890117">
                <ele>49.645264</ele>
                <time>2006-05-27T07:46:30Z</time>
            </trkpt>
            <trkpt lon="100.985920" lat="12.890267">
                <ele>47.722534</ele>
                <time>2006-05-27T07:46:37Z</time>
            </trkpt>
            <trkpt lon="100.985706" lat="12.890503">
                <ele>47.722534</ele>
                <time>2006-05-27T07:46:43Z</time>
            </trkpt>
            <trkpt lon="100.985534" lat="12.890975">
                <ele>47.722534</ele>
                <time>2006-05-27T07:46:54Z</time>
            </trkpt>
            <trkpt lon="100.985341" lat="12.891212">
                <ele>48.203369</ele>
                <time>2006-05-27T07:47:01Z</time>
            </trkpt>
            <trkpt lon="100.984805" lat="12.891469">
                <ele>50.125977</ele>
                <time>2006-05-27T07:47:15Z</time>
            </trkpt>
            <trkpt lon="100.984590" lat="12.891340">
                <ele>51.567871</ele>
                <time>2006-05-27T07:47:23Z</time>
            </trkpt>
            <trkpt lon="100.984590" lat="12.891297">
                <ele>51.567871</ele>
                <time>2006-05-27T07:47:24Z</time>
            </trkpt>
            <trkpt lon="100.984354" lat="12.890439">
                <ele>51.567871</ele>
                <time>2006-05-27T07:47:41Z</time>
            </trkpt>
            <trkpt lon="100.984139" lat="12.889516">
                <ele>51.567871</ele>
                <time>2006-05-27T07:47:58Z</time>
            </trkpt>
            <trkpt lon="100.983839" lat="12.888722">
                <ele>51.087158</ele>
                <time>2006-05-27T07:48:14Z</time>
            </trkpt>
            <trkpt lon="100.983388" lat="12.887821">
                <ele>50.125977</ele>
                <time>2006-05-27T07:48:33Z</time>
            </trkpt>
            <trkpt lon="100.982938" lat="12.886984">
                <ele>49.164551</ele>
                <time>2006-05-27T07:48:52Z</time>
            </trkpt>
            <trkpt lon="100.982723" lat="12.886555">
                <ele>49.164551</ele>
                <time>2006-05-27T07:49:06Z</time>
            </trkpt>
            <trkpt lon="100.982723" lat="12.886512">
                <ele>49.645264</ele>
                <time>2006-05-27T07:49:24Z</time>
            </trkpt>
            <trkpt lon="100.982723" lat="12.886491">
                <ele>49.645264</ele>
                <time>2006-05-27T07:49:27Z</time>
            </trkpt>
            <trkpt lon="100.982702" lat="12.886384">
                <ele>49.164551</ele>
                <time>2006-05-27T07:49:34Z</time>
            </trkpt>
            <trkpt lon="100.982616" lat="12.886276">
                <ele>49.164551</ele>
                <time>2006-05-27T07:49:43Z</time>
            </trkpt>
            <trkpt lon="100.982616" lat="12.886276">
                <ele>51.087158</ele>
                <time>2006-05-27T07:49:56Z</time>
            </trkpt>
            <trkpt lon="100.982594" lat="12.886298">
                <ele>50.606567</ele>
                <time>2006-05-27T07:50:58Z</time>
            </trkpt>
            <trkpt lon="100.982594" lat="12.886276">
                <ele>52.529175</ele>
                <time>2006-05-27T07:51:26Z</time>
            </trkpt>
            <trkpt lon="100.982616" lat="12.886212">
                <ele>52.048584</ele>
                <time>2006-05-27T07:51:30Z</time>
            </trkpt>
            <trkpt lon="100.982316" lat="12.885718">
                <ele>51.087158</ele>
                <time>2006-05-27T07:51:45Z</time>
            </trkpt>
            <trkpt lon="100.981822" lat="12.884881">
                <ele>48.203369</ele>
                <time>2006-05-27T07:52:05Z</time>
            </trkpt>
            <trkpt lon="100.981371" lat="12.884259">
                <ele>44.838623</ele>
                <time>2006-05-27T07:52:22Z</time>
            </trkpt>
            <trkpt lon="100.980771" lat="12.883508">
                <ele>43.877319</ele>
                <time>2006-05-27T07:52:43Z</time>
            </trkpt>
            <trkpt lon="100.980427" lat="12.883058">
                <ele>43.396606</ele>
                <time>2006-05-27T07:52:56Z</time>
            </trkpt>
            <trkpt lon="100.980213" lat="12.882757">
                <ele>43.396606</ele>
                <time>2006-05-27T07:53:09Z</time>
            </trkpt>
            <trkpt lon="100.979977" lat="12.882392">
                <ele>42.916016</ele>
                <time>2006-05-27T07:53:22Z</time>
            </trkpt>
            <trkpt lon="100.979676" lat="12.881920">
                <ele>43.396606</ele>
                <time>2006-05-27T07:53:41Z</time>
            </trkpt>
            <trkpt lon="100.979247" lat="12.881598">
                <ele>43.877319</ele>
                <time>2006-05-27T07:53:58Z</time>
            </trkpt>
            <trkpt lon="100.978539" lat="12.881148">
                <ele>44.358032</ele>
                <time>2006-05-27T07:54:21Z</time>
            </trkpt>
            <trkpt lon="100.977809" lat="12.880654">
                <ele>41.954712</ele>
                <time>2006-05-27T07:54:41Z</time>
            </trkpt>
            <trkpt lon="100.977187" lat="12.880139">
                <ele>41.473999</ele>
                <time>2006-05-27T07:55:00Z</time>
            </trkpt>
            <trkpt lon="100.977015" lat="12.879989">
                <ele>41.473999</ele>
                <time>2006-05-27T07:55:11Z</time>
            </trkpt>
            <trkpt lon="100.976758" lat="12.879689">
                <ele>41.473999</ele>
                <time>2006-05-27T07:55:26Z</time>
            </trkpt>
            <trkpt lon="100.976329" lat="12.879281">
                <ele>40.993408</ele>
                <time>2006-05-27T07:55:43Z</time>
            </trkpt>
            <trkpt lon="100.975943" lat="12.878766">
                <ele>41.473999</ele>
                <time>2006-05-27T07:55:56Z</time>
            </trkpt>
            <trkpt lon="100.975578" lat="12.878337">
                <ele>40.993408</ele>
                <time>2006-05-27T07:56:11Z</time>
            </trkpt>
            <trkpt lon="100.975535" lat="12.878315">
                <ele>41.473999</ele>
                <time>2006-05-27T07:56:12Z</time>
            </trkpt>
            <trkpt lon="100.975020" lat="12.877779">
                <ele>38.109375</ele>
                <time>2006-05-27T07:56:29Z</time>
            </trkpt>
            <trkpt lon="100.974870" lat="12.877650">
                <ele>37.628662</ele>
                <time>2006-05-27T07:56:33Z</time>
            </trkpt>
            <trkpt lon="100.974033" lat="12.876964">
                <ele>36.186768</ele>
                <time>2006-05-27T07:56:53Z</time>
            </trkpt>
            <trkpt lon="100.973346" lat="12.876256">
                <ele>35.225464</ele>
                <time>2006-05-27T07:57:08Z</time>
            </trkpt>
            <trkpt lon="100.972745" lat="12.875526">
                <ele>34.264160</ele>
                <time>2006-05-27T07:57:22Z</time>
            </trkpt>
            <trkpt lon="100.972574" lat="12.875268">
                <ele>35.225464</ele>
                <time>2006-05-27T07:57:31Z</time>
            </trkpt>
            <trkpt lon="100.972424" lat="12.875054">
                <ele>36.186768</ele>
                <time>2006-05-27T07:57:48Z</time>
            </trkpt>
            <trkpt lon="100.972188" lat="12.874753">
                <ele>37.628662</ele>
                <time>2006-05-27T07:58:06Z</time>
            </trkpt>
            <trkpt lon="100.971951" lat="12.874453">
                <ele>38.590088</ele>
                <time>2006-05-27T07:58:20Z</time>
            </trkpt>
            <trkpt lon="100.971694" lat="12.873938">
                <ele>37.628662</ele>
                <time>2006-05-27T07:58:34Z</time>
            </trkpt>
            <trkpt lon="100.971565" lat="12.873724">
                <ele>37.628662</ele>
                <time>2006-05-27T07:58:39Z</time>
            </trkpt>
            <trkpt lon="100.971200" lat="12.872930">
                <ele>38.109375</ele>
                <time>2006-05-27T07:58:54Z</time>
            </trkpt>
            <trkpt lon="100.971115" lat="12.871835">
                <ele>38.109375</ele>
                <time>2006-05-27T07:59:10Z</time>
            </trkpt>
            <trkpt lon="100.970986" lat="12.870119">
                <ele>35.225464</ele>
                <time>2006-05-27T07:59:33Z</time>
            </trkpt>
            <trkpt lon="100.970922" lat="12.868595">
                <ele>34.744873</ele>
                <time>2006-05-27T07:59:54Z</time>
            </trkpt>
            <trkpt lon="100.970943" lat="12.867200">
                <ele>34.264160</ele>
                <time>2006-05-27T08:00:14Z</time>
            </trkpt>
            <trkpt lon="100.970964" lat="12.866342">
                <ele>32.341553</ele>
                <time>2006-05-27T08:00:30Z</time>
            </trkpt>
            <trkpt lon="100.970986" lat="12.866278">
                <ele>31.860718</ele>
                <time>2006-05-27T08:00:32Z</time>
            </trkpt>
            <trkpt lon="100.971093" lat="12.866256">
                <ele>31.380127</ele>
                <time>2006-05-27T08:00:36Z</time>
            </trkpt>
            <trkpt lon="100.971801" lat="12.866406">
                <ele>30.418823</ele>
                <time>2006-05-27T08:00:51Z</time>
            </trkpt>
            <trkpt lon="100.972917" lat="12.866600">
                <ele>29.938110</ele>
                <time>2006-05-27T08:01:12Z</time>
            </trkpt>
            <trkpt lon="100.974290" lat="12.866793">
                <ele>31.860718</ele>
                <time>2006-05-27T08:01:37Z</time>
            </trkpt>
            <trkpt lon="100.975406" lat="12.866943">
                <ele>33.783447</ele>
                <time>2006-05-27T08:01:58Z</time>
            </trkpt>
            <trkpt lon="100.975578" lat="12.866964">
                <ele>34.264160</ele>
                <time>2006-05-27T08:02:01Z</time>
            </trkpt>
            <trkpt lon="100.976758" lat="12.867329">
                <ele>37.628662</ele>
                <time>2006-05-27T08:02:24Z</time>
            </trkpt>
            <trkpt lon="100.977767" lat="12.867565">
                <ele>39.070679</ele>
                <time>2006-05-27T08:02:43Z</time>
            </trkpt>
            <trkpt lon="100.978668" lat="12.867737">
                <ele>40.512817</ele>
                <time>2006-05-27T08:02:59Z</time>
            </trkpt>
            <trkpt lon="100.979741" lat="12.867973">
                <ele>42.435425</ele>
                <time>2006-05-27T08:03:18Z</time>
            </trkpt>
            <trkpt lon="100.980985" lat="12.868187">
                <ele>45.319214</ele>
                <time>2006-05-27T08:03:40Z</time>
            </trkpt>
            <trkpt lon="100.982037" lat="12.868445">
                <ele>45.319214</ele>
                <time>2006-05-27T08:03:58Z</time>
            </trkpt>
            <trkpt lon="100.983281" lat="12.868617">
                <ele>45.319214</ele>
                <time>2006-05-27T08:04:21Z</time>
            </trkpt>
            <trkpt lon="100.983925" lat="12.868595">
                <ele>46.761230</ele>
                <time>2006-05-27T08:04:35Z</time>
            </trkpt>
            <trkpt lon="100.983968" lat="12.868617">
                <ele>47.241821</ele>
                <time>2006-05-27T08:04:45Z</time>
            </trkpt>
            <trkpt lon="100.983989" lat="12.868638">
                <ele>48.683960</ele>
                <time>2006-05-27T08:05:01Z</time>
            </trkpt>
            <trkpt lon="100.983968" lat="12.868617">
                <ele>53.009766</ele>
                <time>2006-05-27T08:08:22Z</time>
            </trkpt>
            <trkpt lon="100.983968" lat="12.868638">
                <ele>51.567871</ele>
                <time>2006-05-27T08:28:08Z</time>
            </trkpt>
            <trkpt lon="100.983989" lat="12.868617">
                <ele>45.319214</ele>
                <time>2006-05-27T08:28:48Z</time>
            </trkpt>
            <trkpt lon="100.984011" lat="12.868595">
                <ele>45.319214</ele>
                <time>2006-05-27T08:28:51Z</time>
            </trkpt>
            <trkpt lon="100.984054" lat="12.868595">
                <ele>46.280640</ele>
                <time>2006-05-27T08:28:55Z</time>
            </trkpt>
            <trkpt lon="100.984290" lat="12.868574">
                <ele>48.203369</ele>
                <time>2006-05-27T08:29:11Z</time>
            </trkpt>
            <trkpt lon="100.984354" lat="12.868574">
                <ele>48.683960</ele>
                <time>2006-05-27T08:29:16Z</time>
            </trkpt>
            <trkpt lon="100.984504" lat="12.868552">
                <ele>48.683960</ele>
                <time>2006-05-27T08:29:31Z</time>
            </trkpt>
            <trkpt lon="100.984590" lat="12.868552">
                <ele>49.164551</ele>
                <time>2006-05-27T08:29:39Z</time>
            </trkpt>
            <trkpt lon="100.984526" lat="12.868509">
                <ele>49.164551</ele>
                <time>2006-05-27T08:29:43Z</time>
            </trkpt>
            <trkpt lon="100.984397" lat="12.868488">
                <ele>49.645264</ele>
                <time>2006-05-27T08:29:56Z</time>
            </trkpt>
            <trkpt lon="100.984354" lat="12.868466">
                <ele>50.606567</ele>
                <time>2006-05-27T08:30:13Z</time>
            </trkpt>
            <trkpt lon="100.984333" lat="12.868509">
                <ele>50.606567</ele>
                <time>2006-05-27T08:30:17Z</time>
            </trkpt>
            <trkpt lon="100.984225" lat="12.868531">
                <ele>50.125977</ele>
                <time>2006-05-27T08:30:26Z</time>
            </trkpt>
            <trkpt lon="100.984139" lat="12.868509">
                <ele>50.125977</ele>
                <time>2006-05-27T08:30:33Z</time>
            </trkpt>
            <trkpt lon="100.984118" lat="12.868509">
                <ele>49.645264</ele>
                <time>2006-05-27T08:30:35Z</time>
            </trkpt>
            <trkpt lon="100.984054" lat="12.868509">
                <ele>49.645264</ele>
                <time>2006-05-27T08:30:44Z</time>
            </trkpt>
            <trkpt lon="100.984118" lat="12.868552">
                <ele>49.164551</ele>
                <time>2006-05-27T08:30:49Z</time>
            </trkpt>
            <trkpt lon="100.984547" lat="12.868552">
                <ele>49.164551</ele>
                <time>2006-05-27T08:31:02Z</time>
            </trkpt>
            <trkpt lon="100.985255" lat="12.868509">
                <ele>50.125977</ele>
                <time>2006-05-27T08:31:22Z</time>
            </trkpt>
            <trkpt lon="100.986028" lat="12.868466">
                <ele>52.048584</ele>
                <time>2006-05-27T08:31:42Z</time>
            </trkpt>
            <trkpt lon="100.986757" lat="12.868445">
                <ele>53.009766</ele>
                <time>2006-05-27T08:32:00Z</time>
            </trkpt>
            <trkpt lon="100.987766" lat="12.868381">
                <ele>55.413086</ele>
                <time>2006-05-27T08:32:21Z</time>
            </trkpt>
            <trkpt lon="100.988967" lat="12.868295">
                <ele>56.374512</ele>
                <time>2006-05-27T08:32:45Z</time>
            </trkpt>
            <trkpt lon="100.990191" lat="12.868102">
                <ele>58.297119</ele>
                <time>2006-05-27T08:33:06Z</time>
            </trkpt>
            <trkpt lon="100.991564" lat="12.867823">
                <ele>59.258423</ele>
                <time>2006-05-27T08:33:31Z</time>
            </trkpt>
            <trkpt lon="100.992980" lat="12.867522">
                <ele>60.219727</ele>
                <time>2006-05-27T08:33:57Z</time>
            </trkpt>
            <trkpt lon="100.994418" lat="12.867157">
                <ele>61.181030</ele>
                <time>2006-05-27T08:34:22Z</time>
            </trkpt>
            <trkpt lon="100.995770" lat="12.866814">
                <ele>62.622925</ele>
                <time>2006-05-27T08:34:45Z</time>
            </trkpt>
            <trkpt lon="100.997293" lat="12.866428">
                <ele>65.026367</ele>
                <time>2006-05-27T08:35:10Z</time>
            </trkpt>
            <trkpt lon="100.998774" lat="12.866149">
                <ele>66.468262</ele>
                <time>2006-05-27T08:35:34Z</time>
            </trkpt>
            <trkpt lon="100.999825" lat="12.866256">
                <ele>69.832886</ele>
                <time>2006-05-27T08:35:52Z</time>
            </trkpt>
            <trkpt lon="101.000941" lat="12.866406">
                <ele>71.755493</ele>
                <time>2006-05-27T08:36:11Z</time>
            </trkpt>
            <trkpt lon="101.002421" lat="12.866557">
                <ele>74.158813</ele>
                <time>2006-05-27T08:36:35Z</time>
            </trkpt>
            <trkpt lon="101.002765" lat="12.866600">
                <ele>75.120239</ele>
                <time>2006-05-27T08:36:41Z</time>
            </trkpt>
            <trkpt lon="101.002872" lat="12.866621">
                <ele>75.120239</ele>
                <time>2006-05-27T08:36:43Z</time>
            </trkpt>
            <trkpt lon="101.002979" lat="12.866685">
                <ele>75.120239</ele>
                <time>2006-05-27T08:36:46Z</time>
            </trkpt>
            <trkpt lon="101.003151" lat="12.866814">
                <ele>75.120239</ele>
                <time>2006-05-27T08:36:51Z</time>
            </trkpt>
            <trkpt lon="101.003387" lat="12.866964">
                <ele>76.081421</ele>
                <time>2006-05-27T08:36:57Z</time>
            </trkpt>
            <trkpt lon="101.003473" lat="12.867157">
                <ele>78.004028</ele>
                <time>2006-05-27T08:37:02Z</time>
            </trkpt>
            <trkpt lon="101.003516" lat="12.867393">
                <ele>77.523438</ele>
                <time>2006-05-27T08:37:07Z</time>
            </trkpt>
            <trkpt lon="101.003516" lat="12.867501">
                <ele>77.042847</ele>
                <time>2006-05-27T08:37:09Z</time>
            </trkpt>
            <trkpt lon="101.003537" lat="12.867608">
                <ele>76.562134</ele>
                <time>2006-05-27T08:37:11Z</time>
            </trkpt>
            <trkpt lon="101.003537" lat="12.868552">
                <ele>72.236206</ele>
                <time>2006-05-27T08:37:23Z</time>
            </trkpt>
            <trkpt lon="101.003709" lat="12.868681">
                <ele>72.716919</ele>
                <time>2006-05-27T08:37:28Z</time>
            </trkpt>
            <trkpt lon="101.004117" lat="12.868960">
                <ele>75.120239</ele>
                <time>2006-05-27T08:37:43Z</time>
            </trkpt>
            <trkpt lon="101.004460" lat="12.869325">
                <ele>77.523438</ele>
                <time>2006-05-27T08:37:59Z</time>
            </trkpt>
            <trkpt lon="101.004589" lat="12.869625">
                <ele>78.484741</ele>
                <time>2006-05-27T08:38:13Z</time>
            </trkpt>
            <trkpt lon="101.004717" lat="12.869947">
                <ele>79.926636</ele>
                <time>2006-05-27T08:38:26Z</time>
            </trkpt>
            <trkpt lon="101.004717" lat="12.869947">
                <ele>79.446045</ele>
                <time>2006-05-27T08:38:34Z</time>
            </trkpt>
            <trkpt lon="101.004567" lat="12.869539">
                <ele>78.484741</ele>
                <time>2006-05-27T08:38:48Z</time>
            </trkpt>
            <trkpt lon="101.004310" lat="12.869132">
                <ele>77.042847</ele>
                <time>2006-05-27T08:39:01Z</time>
            </trkpt>
            <trkpt lon="101.003923" lat="12.868681">
                <ele>75.120239</ele>
                <time>2006-05-27T08:39:17Z</time>
            </trkpt>
            <trkpt lon="101.003752" lat="12.868552">
                <ele>74.158813</ele>
                <time>2006-05-27T08:39:23Z</time>
            </trkpt>
            <trkpt lon="101.003709" lat="12.868617">
                <ele>73.678223</ele>
                <time>2006-05-27T08:39:33Z</time>
            </trkpt>
            <trkpt lon="101.003730" lat="12.868638">
                <ele>73.197632</ele>
                <time>2006-05-27T08:39:41Z</time>
            </trkpt>
            <trkpt lon="101.003602" lat="12.868488">
                <ele>73.678223</ele>
                <time>2006-05-27T08:39:53Z</time>
            </trkpt>
            <trkpt lon="101.003494" lat="12.868209">
                <ele>72.716919</ele>
                <time>2006-05-27T08:40:06Z</time>
            </trkpt>
            <trkpt lon="101.003494" lat="12.868187">
                <ele>72.716919</ele>
                <time>2006-05-27T08:40:07Z</time>
            </trkpt>
            <trkpt lon="101.003408" lat="12.868187">
                <ele>71.274902</ele>
                <time>2006-05-27T08:40:12Z</time>
            </trkpt>
            <trkpt lon="101.003258" lat="12.868359">
                <ele>72.236206</ele>
                <time>2006-05-27T08:40:19Z</time>
            </trkpt>
            <trkpt lon="101.003237" lat="12.868509">
                <ele>72.716919</ele>
                <time>2006-05-27T08:40:23Z</time>
            </trkpt>
            <trkpt lon="101.003344" lat="12.869089">
                <ele>73.197632</ele>
                <time>2006-05-27T08:40:42Z</time>
            </trkpt>
            <trkpt lon="101.003344" lat="12.869432">
                <ele>76.562134</ele>
                <time>2006-05-27T08:40:57Z</time>
            </trkpt>
            <trkpt lon="101.003430" lat="12.869732">
                <ele>77.523438</ele>
                <time>2006-05-27T08:41:12Z</time>
            </trkpt>
            <trkpt lon="101.003494" lat="12.870204">
                <ele>77.523438</ele>
                <time>2006-05-27T08:41:30Z</time>
            </trkpt>
            <trkpt lon="101.003494" lat="12.870698">
                <ele>78.004028</ele>
                <time>2006-05-27T08:41:48Z</time>
            </trkpt>
            <trkpt lon="101.003602" lat="12.871149">
                <ele>78.965454</ele>
                <time>2006-05-27T08:42:05Z</time>
            </trkpt>
            <trkpt lon="101.003559" lat="12.871213">
                <ele>78.484741</ele>
                <time>2006-05-27T08:42:12Z</time>
            </trkpt>
            <trkpt lon="101.003602" lat="12.871127">
                <ele>79.926636</ele>
                <time>2006-05-27T08:42:21Z</time>
            </trkpt>
            <trkpt lon="101.003473" lat="12.870569">
                <ele>78.965454</ele>
                <time>2006-05-27T08:42:36Z</time>
            </trkpt>
            <trkpt lon="101.003473" lat="12.870526">
                <ele>78.965454</ele>
                <time>2006-05-27T08:42:37Z</time>
            </trkpt>
            <trkpt lon="101.003451" lat="12.869904">
                <ele>78.484741</ele>
                <time>2006-05-27T08:42:52Z</time>
            </trkpt>
            <trkpt lon="101.003408" lat="12.869711">
                <ele>78.004028</ele>
                <time>2006-05-27T08:42:56Z</time>
            </trkpt>
            <trkpt lon="101.003344" lat="12.869411">
                <ele>77.523438</ele>
                <time>2006-05-27T08:43:03Z</time>
            </trkpt>
            <trkpt lon="101.003344" lat="12.869174">
                <ele>76.081421</ele>
                <time>2006-05-27T08:43:08Z</time>
            </trkpt>
            <trkpt lon="101.003215" lat="12.868681">
                <ele>72.716919</ele>
                <time>2006-05-27T08:43:17Z</time>
            </trkpt>
            <trkpt lon="101.003215" lat="12.868466">
                <ele>72.236206</ele>
                <time>2006-05-27T08:43:21Z</time>
            </trkpt>
            <trkpt lon="101.003237" lat="12.868252">
                <ele>71.755493</ele>
                <time>2006-05-27T08:43:25Z</time>
            </trkpt>
            <trkpt lon="101.003323" lat="12.868187">
                <ele>71.274902</ele>
                <time>2006-05-27T08:43:27Z</time>
            </trkpt>
            <trkpt lon="101.003473" lat="12.867994">
                <ele>72.236206</ele>
                <time>2006-05-27T08:43:38Z</time>
            </trkpt>
            <trkpt lon="101.003473" lat="12.867866">
                <ele>72.236206</ele>
                <time>2006-05-27T08:43:47Z</time>
            </trkpt>
            <trkpt lon="101.003537" lat="12.867587">
                <ele>76.081421</ele>
                <time>2006-05-27T08:44:04Z</time>
            </trkpt>
            <trkpt lon="101.003537" lat="12.867565">
                <ele>76.081421</ele>
                <time>2006-05-27T08:44:06Z</time>
            </trkpt>
            <trkpt lon="101.003537" lat="12.867458">
                <ele>77.042847</ele>
                <time>2006-05-27T08:44:13Z</time>
            </trkpt>
            <trkpt lon="101.003516" lat="12.867351">
                <ele>77.523438</ele>
                <time>2006-05-27T08:44:18Z</time>
            </trkpt>
            <trkpt lon="101.003387" lat="12.866964">
                <ele>77.042847</ele>
                <time>2006-05-27T08:44:31Z</time>
            </trkpt>
            <trkpt lon="101.003022" lat="12.866664">
                <ele>76.081421</ele>
                <time>2006-05-27T08:44:45Z</time>
            </trkpt>
            <trkpt lon="101.003172" lat="12.866664">
                <ele>77.042847</ele>
                <time>2006-05-27T08:44:53Z</time>
            </trkpt>
            <trkpt lon="101.003966" lat="12.866728">
                <ele>78.484741</ele>
                <time>2006-05-27T08:45:15Z</time>
            </trkpt>
            <trkpt lon="101.004717" lat="12.866814">
                <ele>79.446045</ele>
                <time>2006-05-27T08:45:35Z</time>
            </trkpt>
            <trkpt lon="101.005790" lat="12.866921">
                <ele>81.849365</ele>
                <time>2006-05-27T08:46:03Z</time>
            </trkpt>
            <trkpt lon="101.006327" lat="12.866986">
                <ele>82.330078</ele>
                <time>2006-05-27T08:46:18Z</time>
            </trkpt>
            <trkpt lon="101.006842" lat="12.867029">
                <ele>84.252686</ele>
                <time>2006-05-27T08:46:34Z</time>
            </trkpt>
            <trkpt lon="101.007636" lat="12.867115">
                <ele>85.694580</ele>
                <time>2006-05-27T08:46:55Z</time>
            </trkpt>
            <trkpt lon="101.008387" lat="12.867200">
                <ele>87.617188</ele>
                <time>2006-05-27T08:47:13Z</time>
            </trkpt>
            <trkpt lon="101.008773" lat="12.867222">
                <ele>89.059326</ele>
                <time>2006-05-27T08:47:23Z</time>
            </trkpt>
            <trkpt lon="101.008687" lat="12.867179">
                <ele>89.059326</ele>
                <time>2006-05-27T08:47:28Z</time>
            </trkpt>
            <trkpt lon="101.007872" lat="12.867093">
                <ele>86.656006</ele>
                <time>2006-05-27T08:47:41Z</time>
            </trkpt>
            <trkpt lon="101.006176" lat="12.866921">
                <ele>82.330078</ele>
                <time>2006-05-27T08:48:03Z</time>
            </trkpt>
            <trkpt lon="101.004310" lat="12.866728">
                <ele>78.004028</ele>
                <time>2006-05-27T08:48:26Z</time>
            </trkpt>
            <trkpt lon="101.003065" lat="12.866621">
                <ele>74.639526</ele>
                <time>2006-05-27T08:48:43Z</time>
            </trkpt>
            <trkpt lon="101.003087" lat="12.866771">
                <ele>73.678223</ele>
                <time>2006-05-27T08:48:50Z</time>
            </trkpt>
            <trkpt lon="101.003151" lat="12.866814">
                <ele>73.678223</ele>
                <time>2006-05-27T08:48:52Z</time>
            </trkpt>
            <trkpt lon="101.003494" lat="12.867222">
                <ele>75.600830</ele>
                <time>2006-05-27T08:49:07Z</time>
            </trkpt>
            <trkpt lon="101.003537" lat="12.867737">
                <ele>73.197632</ele>
                <time>2006-05-27T08:49:19Z</time>
            </trkpt>
            <trkpt lon="101.003516" lat="12.868252">
                <ele>69.352295</ele>
                <time>2006-05-27T08:49:26Z</time>
            </trkpt>
            <trkpt lon="101.003623" lat="12.868552">
                <ele>68.390869</ele>
                <time>2006-05-27T08:49:31Z</time>
            </trkpt>
            <trkpt lon="101.003752" lat="12.868659">
                <ele>69.832886</ele>
                <time>2006-05-27T08:49:35Z</time>
            </trkpt>
            <trkpt lon="101.004202" lat="12.868938">
                <ele>73.197632</ele>
                <time>2006-05-27T08:49:53Z</time>
            </trkpt>
            <trkpt lon="101.004438" lat="12.869239">
                <ele>75.600830</ele>
                <time>2006-05-27T08:50:09Z</time>
            </trkpt>
            <trkpt lon="101.004610" lat="12.869582">
                <ele>76.562134</ele>
                <time>2006-05-27T08:50:24Z</time>
            </trkpt>
            <trkpt lon="101.004846" lat="12.870140">
                <ele>78.484741</ele>
                <time>2006-05-27T08:50:44Z</time>
            </trkpt>
            <trkpt lon="101.005082" lat="12.870591">
                <ele>78.965454</ele>
                <time>2006-05-27T08:51:01Z</time>
            </trkpt>
            <trkpt lon="101.005254" lat="12.871127">
                <ele>79.926636</ele>
                <time>2006-05-27T08:51:19Z</time>
            </trkpt>
            <trkpt lon="101.005576" lat="12.871256">
                <ele>81.849365</ele>
                <time>2006-05-27T08:51:30Z</time>
            </trkpt>
            <trkpt lon="101.006176" lat="12.871320">
                <ele>83.291382</ele>
                <time>2006-05-27T08:51:49Z</time>
            </trkpt>
            <trkpt lon="101.006649" lat="12.871492">
                <ele>84.252686</ele>
                <time>2006-05-27T08:52:05Z</time>
            </trkpt>
            <trkpt lon="101.007035" lat="12.871664">
                <ele>85.213989</ele>
                <time>2006-05-27T08:52:19Z</time>
            </trkpt>
            <trkpt lon="101.007249" lat="12.872028">
                <ele>85.694580</ele>
                <time>2006-05-27T08:52:32Z</time>
            </trkpt>
            <trkpt lon="101.007657" lat="12.872543">
                <ele>87.617188</ele>
                <time>2006-05-27T08:52:52Z</time>
            </trkpt>
            <trkpt lon="101.008129" lat="12.872994">
                <ele>88.098022</ele>
                <time>2006-05-27T08:53:10Z</time>
            </trkpt>
            <trkpt lon="101.008558" lat="12.873337">
                <ele>88.578735</ele>
                <time>2006-05-27T08:53:27Z</time>
            </trkpt>
            <trkpt lon="101.008945" lat="12.873552">
                <ele>89.539917</ele>
                <time>2006-05-27T08:53:43Z</time>
            </trkpt>
            <trkpt lon="101.009159" lat="12.873402">
                <ele>90.981934</ele>
                <time>2006-05-27T08:53:56Z</time>
            </trkpt>
            <trkpt lon="101.009395" lat="12.873273">
                <ele>92.904541</ele>
                <time>2006-05-27T08:54:08Z</time>
            </trkpt>
            <trkpt lon="101.009674" lat="12.873144">
                <ele>94.346558</ele>
                <time>2006-05-27T08:54:23Z</time>
            </trkpt>
            <trkpt lon="101.010060" lat="12.873144">
                <ele>97.711182</ele>
                <time>2006-05-27T08:54:42Z</time>
            </trkpt>
            <trkpt lon="101.010361" lat="12.873080">
                <ele>99.633789</ele>
                <time>2006-05-27T08:54:59Z</time>
            </trkpt>
            <trkpt lon="101.010683" lat="12.873080">
                <ele>103.479004</ele>
                <time>2006-05-27T08:55:18Z</time>
            </trkpt>
            <trkpt lon="101.010704" lat="12.873144">
                <ele>103.479004</ele>
                <time>2006-05-27T08:55:22Z</time>
            </trkpt>
            <trkpt lon="101.010983" lat="12.873552">
                <ele>102.998291</ele>
                <time>2006-05-27T08:55:41Z</time>
            </trkpt>
            <trkpt lon="101.011176" lat="12.874002">
                <ele>102.998291</ele>
                <time>2006-05-27T08:55:58Z</time>
            </trkpt>
            <trkpt lon="101.011455" lat="12.874410">
                <ele>104.440430</ele>
                <time>2006-05-27T08:56:16Z</time>
            </trkpt>
            <trkpt lon="101.011455" lat="12.874432">
                <ele>104.921021</ele>
                <time>2006-05-27T08:56:17Z</time>
            </trkpt>
            <trkpt lon="101.011283" lat="12.874582">
                <ele>102.998291</ele>
                <time>2006-05-27T08:56:22Z</time>
            </trkpt>
            <trkpt lon="101.010897" lat="12.874818">
                <ele>98.672485</ele>
                <time>2006-05-27T08:56:29Z</time>
            </trkpt>
            <trkpt lon="101.010919" lat="12.875054">
                <ele>98.191895</ele>
                <time>2006-05-27T08:56:36Z</time>
            </trkpt>
            <trkpt lon="101.010962" lat="12.875075">
                <ele>98.191895</ele>
                <time>2006-05-27T08:56:37Z</time>
            </trkpt>
            <trkpt lon="101.011305" lat="12.875268">
                <ele>99.633789</ele>
                <time>2006-05-27T08:56:50Z</time>
            </trkpt>
            <trkpt lon="101.011670" lat="12.875397">
                <ele>102.037109</ele>
                <time>2006-05-27T08:57:05Z</time>
            </trkpt>
            <trkpt lon="101.011884" lat="12.875633">
                <ele>101.556396</ele>
                <time>2006-05-27T08:57:16Z</time>
            </trkpt>
            <trkpt lon="101.012228" lat="12.876127">
                <ele>101.075684</ele>
                <time>2006-05-27T08:57:32Z</time>
            </trkpt>
            <trkpt lon="101.012249" lat="12.876170">
                <ele>101.075684</ele>
                <time>2006-05-27T08:57:34Z</time>
            </trkpt>
            <trkpt lon="101.012185" lat="12.876556">
                <ele>96.269287</ele>
                <time>2006-05-27T08:57:46Z</time>
            </trkpt>
            <trkpt lon="101.012206" lat="12.876878">
                <ele>92.423950</ele>
                <time>2006-05-27T08:57:57Z</time>
            </trkpt>
            <trkpt lon="101.012292" lat="12.876856">
                <ele>91.943237</ele>
                <time>2006-05-27T08:58:01Z</time>
            </trkpt>
            <trkpt lon="101.012356" lat="12.876835">
                <ele>91.943237</ele>
                <time>2006-05-27T08:58:03Z</time>
            </trkpt>
            <trkpt lon="101.012442" lat="12.877049">
                <ele>91.462524</ele>
                <time>2006-05-27T08:58:10Z</time>
            </trkpt>
            <trkpt lon="101.012335" lat="12.877393">
                <ele>92.904541</ele>
                <time>2006-05-27T08:58:26Z</time>
            </trkpt>
            <trkpt lon="101.012120" lat="12.877543">
                <ele>96.749878</ele>
                <time>2006-05-27T08:58:44Z</time>
            </trkpt>
            <trkpt lon="101.011927" lat="12.877779">
                <ele>99.153076</ele>
                <time>2006-05-27T08:59:01Z</time>
            </trkpt>
            <trkpt lon="101.011970" lat="12.878036">
                <ele>99.633789</ele>
                <time>2006-05-27T08:59:17Z</time>
            </trkpt>
            <trkpt lon="101.012120" lat="12.878251">
                <ele>102.517700</ele>
                <time>2006-05-27T08:59:38Z</time>
            </trkpt>
            <trkpt lon="101.012335" lat="12.878358">
                <ele>104.921021</ele>
                <time>2006-05-27T08:59:59Z</time>
            </trkpt>
            <trkpt lon="101.012635" lat="12.878637">
                <ele>105.882446</ele>
                <time>2006-05-27T09:00:15Z</time>
            </trkpt>
            <trkpt lon="101.012657" lat="12.878702">
                <ele>105.882446</ele>
                <time>2006-05-27T09:00:17Z</time>
            </trkpt>
            <trkpt lon="101.012957" lat="12.878788">
                <ele>106.363037</ele>
                <time>2006-05-27T09:00:30Z</time>
            </trkpt>
            <trkpt lon="101.013536" lat="12.878916">
                <ele>108.285645</ele>
                <time>2006-05-27T09:00:54Z</time>
            </trkpt>
            <trkpt lon="101.014030" lat="12.879088">
                <ele>108.766235</ele>
                <time>2006-05-27T09:01:09Z</time>
            </trkpt>
            <trkpt lon="101.014524" lat="12.879260">
                <ele>110.688843</ele>
                <time>2006-05-27T09:01:27Z</time>
            </trkpt>
            <trkpt lon="101.014888" lat="12.879474">
                <ele>109.246948</ele>
                <time>2006-05-27T09:01:44Z</time>
            </trkpt>
            <trkpt lon="101.014867" lat="12.879517">
                <ele>106.843628</ele>
                <time>2006-05-27T09:02:00Z</time>
            </trkpt>
            <trkpt lon="101.014888" lat="12.879539">
                <ele>103.479004</ele>
                <time>2006-05-27T09:02:28Z</time>
            </trkpt>
            <trkpt lon="101.014824" lat="12.879496">
                <ele>106.843628</ele>
                <time>2006-05-27T09:04:26Z</time>
            </trkpt>
            <trkpt lon="101.014717" lat="12.879431">
                <ele>106.363037</ele>
                <time>2006-05-27T09:04:44Z</time>
            </trkpt>
            <trkpt lon="101.014438" lat="12.879281">
                <ele>107.324341</ele>
                <time>2006-05-27T09:05:15Z</time>
            </trkpt>
            <trkpt lon="101.014352" lat="12.879260">
                <ele>108.285645</ele>
                <time>2006-05-27T09:05:32Z</time>
            </trkpt>
            <trkpt lon="101.014094" lat="12.879152">
                <ele>108.766235</ele>
                <time>2006-05-27T09:05:48Z</time>
            </trkpt>
            <trkpt lon="101.013751" lat="12.879002">
                <ele>109.246948</ele>
                <time>2006-05-27T09:06:06Z</time>
            </trkpt>
            <trkpt lon="101.013536" lat="12.878938">
                <ele>109.727661</ele>
                <time>2006-05-27T09:06:22Z</time>
            </trkpt>
            <trkpt lon="101.013193" lat="12.878830">
                <ele>111.169556</ele>
                <time>2006-05-27T09:06:40Z</time>
            </trkpt>
            <trkpt lon="101.012828" lat="12.878766">
                <ele>109.246948</ele>
                <time>2006-05-27T09:06:56Z</time>
            </trkpt>
            <trkpt lon="101.012614" lat="12.878723">
                <ele>109.727661</ele>
                <time>2006-05-27T09:07:11Z</time>
            </trkpt>
            <trkpt lon="101.012614" lat="12.878702">
                <ele>111.169556</ele>
                <time>2006-05-27T09:07:20Z</time>
            </trkpt>
            <trkpt lon="101.012592" lat="12.878573">
                <ele>111.169556</ele>
                <time>2006-05-27T09:07:29Z</time>
            </trkpt>
            <trkpt lon="101.012571" lat="12.878594">
                <ele>111.169556</ele>
                <time>2006-05-27T09:07:38Z</time>
            </trkpt>
            <trkpt lon="101.012635" lat="12.878788">
                <ele>110.688843</ele>
                <time>2006-05-27T09:07:56Z</time>
            </trkpt>
            <trkpt lon="101.012614" lat="12.879045">
                <ele>112.611572</ele>
                <time>2006-05-27T09:08:13Z</time>
            </trkpt>
            <trkpt lon="101.012506" lat="12.879367">
                <ele>114.534180</ele>
                <time>2006-05-27T09:08:32Z</time>
            </trkpt>
            <trkpt lon="101.012635" lat="12.879581">
                <ele>116.456787</ele>
                <time>2006-05-27T09:08:49Z</time>
            </trkpt>
            <trkpt lon="101.012828" lat="12.879624">
                <ele>119.821411</ele>
                <time>2006-05-27T09:09:07Z</time>
            </trkpt>
            <trkpt lon="101.013043" lat="12.879646">
                <ele>123.186157</ele>
                <time>2006-05-27T09:09:26Z</time>
            </trkpt>
            <trkpt lon="101.013107" lat="12.879646">
                <ele>125.108765</ele>
                <time>2006-05-27T09:09:40Z</time>
            </trkpt>
            <trkpt lon="101.013107" lat="12.879646">
                <ele>125.589355</ele>
                <time>2006-05-27T09:09:50Z</time>
            </trkpt>
            <trkpt lon="101.013215" lat="12.879646">
                <ele>127.992554</ele>
                <time>2006-05-27T09:10:13Z</time>
            </trkpt>
            <trkpt lon="101.013408" lat="12.879646">
                <ele>130.876709</ele>
                <time>2006-05-27T09:10:36Z</time>
            </trkpt>
            <trkpt lon="101.013515" lat="12.879710">
                <ele>134.241211</ele>
                <time>2006-05-27T09:10:57Z</time>
            </trkpt>
            <trkpt lon="101.013601" lat="12.879839">
                <ele>137.125244</ele>
                <time>2006-05-27T09:11:17Z</time>
            </trkpt>
            <trkpt lon="101.013644" lat="12.879968">
                <ele>139.047852</ele>
                <time>2006-05-27T09:11:35Z</time>
            </trkpt>
            <trkpt lon="101.013665" lat="12.880032">
                <ele>140.489868</ele>
                <time>2006-05-27T09:11:42Z</time>
            </trkpt>
            <trkpt lon="101.013665" lat="12.880075">
                <ele>141.451050</ele>
                <time>2006-05-27T09:11:59Z</time>
            </trkpt>
            <trkpt lon="101.013708" lat="12.880139">
                <ele>143.854370</ele>
                <time>2006-05-27T09:13:29Z</time>
            </trkpt>
            <trkpt lon="101.013772" lat="12.880225">
                <ele>143.373657</ele>
                <time>2006-05-27T09:13:41Z</time>
            </trkpt>
            <trkpt lon="101.013837" lat="12.880290">
                <ele>144.335205</ele>
                <time>2006-05-27T09:14:03Z</time>
            </trkpt>
            <trkpt lon="101.013923" lat="12.880375">
                <ele>144.815796</ele>
                <time>2006-05-27T09:14:27Z</time>
            </trkpt>
            <trkpt lon="101.014159" lat="12.880697">
                <ele>140.489868</ele>
                <time>2006-05-27T09:14:36Z</time>
            </trkpt>
            <trkpt lon="101.014287" lat="12.880826">
                <ele>140.009155</ele>
                <time>2006-05-27T09:14:39Z</time>
            </trkpt>
            <trkpt lon="101.014287" lat="12.880955">
                <ele>140.489868</ele>
                <time>2006-05-27T09:14:44Z</time>
            </trkpt>
            <trkpt lon="101.014094" lat="12.881191">
                <ele>142.412476</ele>
                <time>2006-05-27T09:15:00Z</time>
            </trkpt>
            <trkpt lon="101.013966" lat="12.881556">
                <ele>144.335205</ele>
                <time>2006-05-27T09:15:18Z</time>
            </trkpt>
            <trkpt lon="101.013858" lat="12.881877">
                <ele>146.738403</ele>
                <time>2006-05-27T09:15:38Z</time>
            </trkpt>
            <trkpt lon="101.013923" lat="12.882156">
                <ele>149.622314</ele>
                <time>2006-05-27T09:15:56Z</time>
            </trkpt>
            <trkpt lon="101.013966" lat="12.882349">
                <ele>151.544922</ele>
                <time>2006-05-27T09:16:13Z</time>
            </trkpt>
            <trkpt lon="101.014009" lat="12.882564">
                <ele>152.986938</ele>
                <time>2006-05-27T09:16:30Z</time>
            </trkpt>
            <trkpt lon="101.014073" lat="12.882800">
                <ele>154.428955</ele>
                <time>2006-05-27T09:16:48Z</time>
            </trkpt>
            <trkpt lon="101.014137" lat="12.883058">
                <ele>156.351562</ele>
                <time>2006-05-27T09:17:07Z</time>
            </trkpt>
            <trkpt lon="101.014202" lat="12.883315">
                <ele>156.832153</ele>
                <time>2006-05-27T09:17:23Z</time>
            </trkpt>
            <trkpt lon="101.014116" lat="12.883615">
                <ele>158.754761</ele>
                <time>2006-05-27T09:17:39Z</time>
            </trkpt>
            <trkpt lon="101.014009" lat="12.883873">
                <ele>162.119507</ele>
                <time>2006-05-27T09:17:55Z</time>
            </trkpt>
            <trkpt lon="101.014073" lat="12.884130">
                <ele>163.561523</ele>
                <time>2006-05-27T09:18:10Z</time>
            </trkpt>
            <trkpt lon="101.014202" lat="12.884431">
                <ele>165.003418</ele>
                <time>2006-05-27T09:18:29Z</time>
            </trkpt>
            <trkpt lon="101.014373" lat="12.884753">
                <ele>166.926025</ele>
                <time>2006-05-27T09:18:49Z</time>
            </trkpt>
            <trkpt lon="101.014395" lat="12.884989">
                <ele>168.848755</ele>
                <time>2006-05-27T09:19:05Z</time>
            </trkpt>
            <trkpt lon="101.014373" lat="12.885268">
                <ele>170.771362</ele>
                <time>2006-05-27T09:19:24Z</time>
            </trkpt>
            <trkpt lon="101.014352" lat="12.885525">
                <ele>172.693970</ele>
                <time>2006-05-27T09:19:43Z</time>
            </trkpt>
            <trkpt lon="101.014330" lat="12.885761">
                <ele>177.020020</ele>
                <time>2006-05-27T09:20:02Z</time>
            </trkpt>
            <trkpt lon="101.014287" lat="12.885804">
                <ele>177.981201</ele>
                <time>2006-05-27T09:20:19Z</time>
            </trkpt>
            <trkpt lon="101.014245" lat="12.885804">
                <ele>179.423218</ele>
                <time>2006-05-27T09:20:32Z</time>
            </trkpt>
            <trkpt lon="101.014266" lat="12.885847">
                <ele>179.903809</ele>
                <time>2006-05-27T09:20:46Z</time>
            </trkpt>
            <trkpt lon="101.014266" lat="12.885869">
                <ele>178.461914</ele>
                <time>2006-05-27T09:21:20Z</time>
            </trkpt>
            <trkpt lon="101.014266" lat="12.885826">
                <ele>178.942627</ele>
                <time>2006-05-27T09:21:54Z</time>
            </trkpt>
            <trkpt lon="101.014266" lat="12.885804">
                <ele>178.942627</ele>
                <time>2006-05-27T09:22:01Z</time>
            </trkpt>
            <trkpt lon="101.014287" lat="12.885740">
                <ele>178.461914</ele>
                <time>2006-05-27T09:22:12Z</time>
            </trkpt>
            <trkpt lon="101.014352" lat="12.885396">
                <ele>174.135864</ele>
                <time>2006-05-27T09:22:22Z</time>
            </trkpt>
            <trkpt lon="101.014352" lat="12.885096">
                <ele>170.771362</ele>
                <time>2006-05-27T09:22:27Z</time>
            </trkpt>
            <trkpt lon="101.014395" lat="12.884903">
                <ele>169.810059</ele>
                <time>2006-05-27T09:22:30Z</time>
            </trkpt>
            <trkpt lon="101.014330" lat="12.884624">
                <ele>166.926025</ele>
                <time>2006-05-27T09:22:35Z</time>
            </trkpt>
            <trkpt lon="101.014051" lat="12.884045">
                <ele>163.561523</ele>
                <time>2006-05-27T09:22:45Z</time>
            </trkpt>
            <trkpt lon="101.014051" lat="12.883723">
                <ele>161.638916</ele>
                <time>2006-05-27T09:22:51Z</time>
            </trkpt>
            <trkpt lon="101.014137" lat="12.883573">
                <ele>160.196899</ele>
                <time>2006-05-27T09:22:54Z</time>
            </trkpt>
            <trkpt lon="101.014159" lat="12.883229">
                <ele>158.274170</ele>
                <time>2006-05-27T09:23:00Z</time>
            </trkpt>
            <trkpt lon="101.014030" lat="12.882671">
                <ele>154.909546</ele>
                <time>2006-05-27T09:23:13Z</time>
            </trkpt>
            <trkpt lon="101.013901" lat="12.882199">
                <ele>151.064209</ele>
                <time>2006-05-27T09:23:26Z</time>
            </trkpt>
            <trkpt lon="101.013837" lat="12.882113">
                <ele>149.141602</ele>
                <time>2006-05-27T09:23:35Z</time>
            </trkpt>
            <trkpt lon="101.013730" lat="12.882135">
                <ele>148.661011</ele>
                <time>2006-05-27T09:23:46Z</time>
            </trkpt>
            <trkpt lon="101.013730" lat="12.882113">
                <ele>146.257812</ele>
                <time>2006-05-27T09:24:00Z</time>
            </trkpt>
            <trkpt lon="101.013601" lat="12.882135">
                <ele>147.218994</ele>
                <time>2006-05-27T09:24:21Z</time>
            </trkpt>
            <trkpt lon="101.013365" lat="12.882178">
                <ele>148.180420</ele>
                <time>2006-05-27T09:24:34Z</time>
            </trkpt>
            <trkpt lon="101.013365" lat="12.882178">
                <ele>148.180420</ele>
                <time>2006-05-27T09:24:51Z</time>
            </trkpt>
            <trkpt lon="101.013386" lat="12.882156">
                <ele>149.622314</ele>
                <time>2006-05-27T09:25:55Z</time>
            </trkpt>
            <trkpt lon="101.013300" lat="12.882199">
                <ele>151.064209</ele>
                <time>2006-05-27T09:26:50Z</time>
            </trkpt>
            <trkpt lon="101.012871" lat="12.882264">
                <ele>149.622314</ele>
                <time>2006-05-27T09:27:05Z</time>
            </trkpt>
            <trkpt lon="101.012721" lat="12.882457">
                <ele>148.180420</ele>
                <time>2006-05-27T09:27:17Z</time>
            </trkpt>
            <trkpt lon="101.012743" lat="12.882521">
                <ele>147.699707</ele>
                <time>2006-05-27T09:27:28Z</time>
            </trkpt>
            <trkpt lon="101.012743" lat="12.882564">
                <ele>148.180420</ele>
                <time>2006-05-27T09:27:42Z</time>
            </trkpt>
            <trkpt lon="101.012721" lat="12.882628">
                <ele>149.141602</ele>
                <time>2006-05-27T09:28:27Z</time>
            </trkpt>
            <trkpt lon="101.012657" lat="12.882693">
                <ele>143.373657</ele>
                <time>2006-05-27T09:28:40Z</time>
            </trkpt>
            <trkpt lon="101.012614" lat="12.882714">
                <ele>142.412476</ele>
                <time>2006-05-27T09:28:56Z</time>
            </trkpt>
            <trkpt lon="101.012614" lat="12.882886">
                <ele>135.683105</ele>
                <time>2006-05-27T09:29:08Z</time>
            </trkpt>
            <trkpt lon="101.012614" lat="12.883101">
                <ele>131.837891</ele>
                <time>2006-05-27T09:29:18Z</time>
            </trkpt>
            <trkpt lon="101.012635" lat="12.883229">
                <ele>130.876709</ele>
                <time>2006-05-27T09:29:25Z</time>
            </trkpt>
            <trkpt lon="101.012571" lat="12.883272">
                <ele>130.876709</ele>
                <time>2006-05-27T09:29:29Z</time>
            </trkpt>
            <trkpt lon="101.012185" lat="12.883379">
                <ele>127.511963</ele>
                <time>2006-05-27T09:29:43Z</time>
            </trkpt>
            <trkpt lon="101.011884" lat="12.883830">
                <ele>126.550659</ele>
                <time>2006-05-27T09:29:55Z</time>
            </trkpt>
            <trkpt lon="101.011841" lat="12.884409">
                <ele>124.628052</ele>
                <time>2006-05-27T09:30:10Z</time>
            </trkpt>
            <trkpt lon="101.011906" lat="12.884624">
                <ele>126.069946</ele>
                <time>2006-05-27T09:30:20Z</time>
            </trkpt>
            <trkpt lon="101.011777" lat="12.884667">
                <ele>123.186157</ele>
                <time>2006-05-27T09:30:28Z</time>
            </trkpt>
            <trkpt lon="101.011627" lat="12.884688">
                <ele>120.782837</ele>
                <time>2006-05-27T09:30:40Z</time>
            </trkpt>
            <trkpt lon="101.011584" lat="12.884624">
                <ele>121.263550</ele>
                <time>2006-05-27T09:31:00Z</time>
            </trkpt>
            <trkpt lon="101.011541" lat="12.884603">
                <ele>121.263550</ele>
                <time>2006-05-27T09:31:14Z</time>
            </trkpt>
            <trkpt lon="101.011498" lat="12.884581">
                <ele>120.782837</ele>
                <time>2006-05-27T09:31:28Z</time>
            </trkpt>
            <trkpt lon="101.011305" lat="12.884474">
                <ele>119.340820</ele>
                <time>2006-05-27T09:31:41Z</time>
            </trkpt>
            <trkpt lon="101.010962" lat="12.884324">
                <ele>117.418213</ele>
                <time>2006-05-27T09:31:51Z</time>
            </trkpt>
            <trkpt lon="101.010768" lat="12.884324">
                <ele>117.898804</ele>
                <time>2006-05-27T09:32:04Z</time>
            </trkpt>
            <trkpt lon="101.010618" lat="12.884345">
                <ele>115.495605</ele>
                <time>2006-05-27T09:32:19Z</time>
            </trkpt>
            <trkpt lon="101.010425" lat="12.884388">
                <ele>114.534180</ele>
                <time>2006-05-27T09:32:41Z</time>
            </trkpt>
            <trkpt lon="101.010296" lat="12.884409">
                <ele>117.418213</ele>
                <time>2006-05-27T09:32:59Z</time>
            </trkpt>
            <trkpt lon="101.010125" lat="12.884431">
                <ele>118.860107</ele>
                <time>2006-05-27T09:33:18Z</time>
            </trkpt>
            <trkpt lon="101.010039" lat="12.884367">
                <ele>119.821411</ele>
                <time>2006-05-27T09:33:32Z</time>
            </trkpt>
            <trkpt lon="101.009953" lat="12.884216">
                <ele>117.898804</ele>
                <time>2006-05-27T09:33:41Z</time>
            </trkpt>
            <trkpt lon="101.009781" lat="12.883809">
                <ele>116.456787</ele>
                <time>2006-05-27T09:33:52Z</time>
            </trkpt>
            <trkpt lon="101.009417" lat="12.883701">
                <ele>116.456787</ele>
                <time>2006-05-27T09:34:07Z</time>
            </trkpt>
            <trkpt lon="101.009073" lat="12.883744">
                <ele>117.418213</ele>
                <time>2006-05-27T09:34:25Z</time>
            </trkpt>
            <trkpt lon="101.008837" lat="12.883744">
                <ele>119.340820</ele>
                <time>2006-05-27T09:34:41Z</time>
            </trkpt>
            <trkpt lon="101.008623" lat="12.883744">
                <ele>120.782837</ele>
                <time>2006-05-27T09:34:57Z</time>
            </trkpt>
            <trkpt lon="101.008430" lat="12.883852">
                <ele>122.705444</ele>
                <time>2006-05-27T09:35:13Z</time>
            </trkpt>
            <trkpt lon="101.008301" lat="12.884023">
                <ele>126.069946</ele>
                <time>2006-05-27T09:35:32Z</time>
            </trkpt>
            <trkpt lon="101.008236" lat="12.884002">
                <ele>125.589355</ele>
                <time>2006-05-27T09:35:36Z</time>
            </trkpt>
            <trkpt lon="101.007915" lat="12.883916">
                <ele>122.224731</ele>
                <time>2006-05-27T09:35:49Z</time>
            </trkpt>
            <trkpt lon="101.007421" lat="12.883766">
                <ele>118.379395</ele>
                <time>2006-05-27T09:36:01Z</time>
            </trkpt>
            <trkpt lon="101.007249" lat="12.883787">
                <ele>116.937500</ele>
                <time>2006-05-27T09:36:05Z</time>
            </trkpt>
            <trkpt lon="101.006949" lat="12.883852">
                <ele>114.534180</ele>
                <time>2006-05-27T09:36:15Z</time>
            </trkpt>
            <trkpt lon="101.006713" lat="12.883980">
                <ele>113.572998</ele>
                <time>2006-05-27T09:36:24Z</time>
            </trkpt>
            <trkpt lon="101.006198" lat="12.884152">
                <ele>110.208252</ele>
                <time>2006-05-27T09:36:38Z</time>
            </trkpt>
            <trkpt lon="101.005790" lat="12.884302">
                <ele>107.324341</ele>
                <time>2006-05-27T09:36:47Z</time>
            </trkpt>
            <trkpt lon="101.005490" lat="12.884560">
                <ele>106.843628</ele>
                <time>2006-05-27T09:36:59Z</time>
            </trkpt>
            <trkpt lon="101.005275" lat="12.884967">
                <ele>105.882446</ele>
                <time>2006-05-27T09:37:11Z</time>
            </trkpt>
            <trkpt lon="101.005104" lat="12.885203">
                <ele>105.401733</ele>
                <time>2006-05-27T09:37:18Z</time>
            </trkpt>
            <trkpt lon="101.004932" lat="12.885375">
                <ele>104.921021</ele>
                <time>2006-05-27T09:37:23Z</time>
            </trkpt>
            <trkpt lon="101.004696" lat="12.885461">
                <ele>103.959717</ele>
                <time>2006-05-27T09:37:28Z</time>
            </trkpt>
            <trkpt lon="101.004202" lat="12.885740">
                <ele>99.633789</ele>
                <time>2006-05-27T09:37:37Z</time>
            </trkpt>
            <trkpt lon="101.003687" lat="12.886040">
                <ele>96.749878</ele>
                <time>2006-05-27T09:37:45Z</time>
            </trkpt>
            <trkpt lon="101.003537" lat="12.886212">
                <ele>96.269287</ele>
                <time>2006-05-27T09:37:49Z</time>
            </trkpt>
            <trkpt lon="101.003408" lat="12.886319">
                <ele>96.269287</ele>
                <time>2006-05-27T09:37:53Z</time>
            </trkpt>
            <trkpt lon="101.003108" lat="12.886577">
                <ele>94.346558</ele>
                <time>2006-05-27T09:38:06Z</time>
            </trkpt>
            <trkpt lon="101.003108" lat="12.886834">
                <ele>94.346558</ele>
                <time>2006-05-27T09:38:16Z</time>
            </trkpt>
            <trkpt lon="101.003108" lat="12.887242">
                <ele>94.827148</ele>
                <time>2006-05-27T09:38:28Z</time>
            </trkpt>
            <trkpt lon="101.003108" lat="12.887263">
                <ele>94.827148</ele>
                <time>2006-05-27T09:38:29Z</time>
            </trkpt>
            <trkpt lon="101.003408" lat="12.887542">
                <ele>95.307739</ele>
                <time>2006-05-27T09:38:42Z</time>
            </trkpt>
            <trkpt lon="101.003559" lat="12.887907">
                <ele>95.307739</ele>
                <time>2006-05-27T09:38:57Z</time>
            </trkpt>
            <trkpt lon="101.003730" lat="12.888315">
                <ele>96.269287</ele>
                <time>2006-05-27T09:39:13Z</time>
            </trkpt>
            <trkpt lon="101.003795" lat="12.888701">
                <ele>95.788452</ele>
                <time>2006-05-27T09:39:28Z</time>
            </trkpt>
            <trkpt lon="101.003966" lat="12.889109">
                <ele>95.307739</ele>
                <time>2006-05-27T09:39:44Z</time>
            </trkpt>
            <trkpt lon="101.004052" lat="12.889237">
                <ele>95.788452</ele>
                <time>2006-05-27T09:39:50Z</time>
            </trkpt>
            <trkpt lon="101.003966" lat="12.889667">
                <ele>95.788452</ele>
                <time>2006-05-27T09:40:04Z</time>
            </trkpt>
            <trkpt lon="101.003902" lat="12.890182">
                <ele>94.346558</ele>
                <time>2006-05-27T09:40:19Z</time>
            </trkpt>
            <trkpt lon="101.003859" lat="12.890439">
                <ele>93.865845</ele>
                <time>2006-05-27T09:40:26Z</time>
            </trkpt>
            <trkpt lon="101.003773" lat="12.890933">
                <ele>92.904541</ele>
                <time>2006-05-27T09:40:38Z</time>
            </trkpt>
            <trkpt lon="101.003709" lat="12.891061">
                <ele>92.904541</ele>
                <time>2006-05-27T09:40:41Z</time>
            </trkpt>
            <trkpt lon="101.003795" lat="12.891362">
                <ele>93.865845</ele>
                <time>2006-05-27T09:40:50Z</time>
            </trkpt>
            <trkpt lon="101.004031" lat="12.891748">
                <ele>96.269287</ele>
                <time>2006-05-27T09:41:08Z</time>
            </trkpt>
            <trkpt lon="101.004159" lat="12.892048">
                <ele>97.230469</ele>
                <time>2006-05-27T09:41:25Z</time>
            </trkpt>
            <trkpt lon="101.004310" lat="12.892327">
                <ele>98.191895</ele>
                <time>2006-05-27T09:41:42Z</time>
            </trkpt>
            <trkpt lon="101.004460" lat="12.892606">
                <ele>99.633789</ele>
                <time>2006-05-27T09:42:04Z</time>
            </trkpt>
            <trkpt lon="101.004524" lat="12.892714">
                <ele>101.075684</ele>
                <time>2006-05-27T09:42:22Z</time>
            </trkpt>
            <trkpt lon="101.004546" lat="12.892756">
                <ele>101.556396</ele>
                <time>2006-05-27T09:42:27Z</time>
            </trkpt>
            <trkpt lon="101.004589" lat="12.892821">
                <ele>102.517700</ele>
                <time>2006-05-27T09:42:40Z</time>
            </trkpt>
            <trkpt lon="101.004674" lat="12.892928">
                <ele>103.959717</ele>
                <time>2006-05-27T09:42:52Z</time>
            </trkpt>
            <trkpt lon="101.004825" lat="12.893229">
                <ele>106.363037</ele>
                <time>2006-05-27T09:43:13Z</time>
            </trkpt>
            <trkpt lon="101.005061" lat="12.893572">
                <ele>107.805054</ele>
                <time>2006-05-27T09:43:31Z</time>
            </trkpt>
            <trkpt lon="101.005039" lat="12.893851">
                <ele>107.324341</ele>
                <time>2006-05-27T09:43:42Z</time>
            </trkpt>
            <trkpt lon="101.005147" lat="12.894194">
                <ele>105.882446</ele>
                <time>2006-05-27T09:43:54Z</time>
            </trkpt>
            <trkpt lon="101.005232" lat="12.894559">
                <ele>102.998291</ele>
                <time>2006-05-27T09:44:07Z</time>
            </trkpt>
            <trkpt lon="101.005297" lat="12.894816">
                <ele>102.037109</ele>
                <time>2006-05-27T09:44:20Z</time>
            </trkpt>
            <trkpt lon="101.005147" lat="12.894945">
                <ele>99.153076</ele>
                <time>2006-05-27T09:44:30Z</time>
            </trkpt>
            <trkpt lon="101.004996" lat="12.895031">
                <ele>97.711182</ele>
                <time>2006-05-27T09:44:39Z</time>
            </trkpt>
            <trkpt lon="101.005061" lat="12.895331">
                <ele>95.307739</ele>
                <time>2006-05-27T09:44:50Z</time>
            </trkpt>
            <trkpt lon="101.005189" lat="12.895653">
                <ele>94.346558</ele>
                <time>2006-05-27T09:45:06Z</time>
            </trkpt>
            <trkpt lon="101.005297" lat="12.895954">
                <ele>94.346558</ele>
                <time>2006-05-27T09:45:18Z</time>
            </trkpt>
            <trkpt lon="101.005361" lat="12.896233">
                <ele>94.827148</ele>
                <time>2006-05-27T09:45:30Z</time>
            </trkpt>
            <trkpt lon="101.005383" lat="12.896340">
                <ele>94.827148</ele>
                <time>2006-05-27T09:45:41Z</time>
            </trkpt>
            <trkpt lon="101.005533" lat="12.896597">
                <ele>98.191895</ele>
                <time>2006-05-27T09:45:59Z</time>
            </trkpt>
            <trkpt lon="101.005747" lat="12.896726">
                <ele>99.153076</ele>
                <time>2006-05-27T09:46:13Z</time>
            </trkpt>
            <trkpt lon="101.005833" lat="12.897155">
                <ele>96.269287</ele>
                <time>2006-05-27T09:46:25Z</time>
            </trkpt>
            <trkpt lon="101.005962" lat="12.897520">
                <ele>97.230469</ele>
                <time>2006-05-27T09:46:40Z</time>
            </trkpt>
            <trkpt lon="101.006048" lat="12.897756">
                <ele>98.672485</ele>
                <time>2006-05-27T09:46:54Z</time>
            </trkpt>
            <trkpt lon="101.006155" lat="12.898035">
                <ele>100.114502</ele>
                <time>2006-05-27T09:47:10Z</time>
            </trkpt>
            <trkpt lon="101.006198" lat="12.898293">
                <ele>99.633789</ele>
                <time>2006-05-27T09:47:24Z</time>
            </trkpt>
            <trkpt lon="101.006305" lat="12.898743">
                <ele>100.595093</ele>
                <time>2006-05-27T09:47:46Z</time>
            </trkpt>
            <trkpt lon="101.006477" lat="12.899194">
                <ele>101.556396</ele>
                <time>2006-05-27T09:48:06Z</time>
            </trkpt>
            <trkpt lon="101.006541" lat="12.899601">
                <ele>101.075684</ele>
                <time>2006-05-27T09:48:22Z</time>
            </trkpt>
            <trkpt lon="101.006584" lat="12.900267">
                <ele>100.114502</ele>
                <time>2006-05-27T09:48:49Z</time>
            </trkpt>
            <trkpt lon="101.006734" lat="12.900610">
                <ele>102.517700</ele>
                <time>2006-05-27T09:49:12Z</time>
            </trkpt>
            <trkpt lon="101.006756" lat="12.900674">
                <ele>102.998291</ele>
                <time>2006-05-27T09:49:16Z</time>
            </trkpt>
            <trkpt lon="101.006842" lat="12.901125">
                <ele>103.959717</ele>
                <time>2006-05-27T09:49:33Z</time>
            </trkpt>
            <trkpt lon="101.006756" lat="12.901533">
                <ele>104.921021</ele>
                <time>2006-05-27T09:49:48Z</time>
            </trkpt>
            <trkpt lon="101.006670" lat="12.901940">
                <ele>107.324341</ele>
                <time>2006-05-27T09:50:05Z</time>
            </trkpt>
            <trkpt lon="101.006713" lat="12.902219">
                <ele>107.324341</ele>
                <time>2006-05-27T09:50:17Z</time>
            </trkpt>
            <trkpt lon="101.006799" lat="12.902262">
                <ele>107.324341</ele>
                <time>2006-05-27T09:50:22Z</time>
            </trkpt>
            <trkpt lon="101.007271" lat="12.902434">
                <ele>108.766235</ele>
                <time>2006-05-27T09:50:41Z</time>
            </trkpt>
            <trkpt lon="101.007357" lat="12.902498">
                <ele>110.208252</ele>
                <time>2006-05-27T09:50:55Z</time>
            </trkpt>
            <trkpt lon="101.007357" lat="12.902455">
                <ele>110.208252</ele>
                <time>2006-05-27T09:51:34Z</time>
            </trkpt>
            <trkpt lon="101.007335" lat="12.902455">
                <ele>110.208252</ele>
                <time>2006-05-27T09:51:41Z</time>
            </trkpt>
            <trkpt lon="101.007314" lat="12.902369">
                <ele>111.169556</ele>
                <time>2006-05-27T09:51:50Z</time>
            </trkpt>
            <trkpt lon="101.007314" lat="12.902348">
                <ele>109.727661</ele>
                <time>2006-05-27T09:52:07Z</time>
            </trkpt>
            <trkpt lon="101.007314" lat="12.902348">
                <ele>113.092285</ele>
                <time>2006-05-27T09:53:30Z</time>
            </trkpt>
            <trkpt lon="101.006970" lat="12.902284">
                <ele>112.611572</ele>
                <time>2006-05-27T09:53:42Z</time>
            </trkpt>
            <trkpt lon="101.006670" lat="12.902284">
                <ele>111.650269</ele>
                <time>2006-05-27T09:53:57Z</time>
            </trkpt>
            <trkpt lon="101.006305" lat="12.902584">
                <ele>108.285645</ele>
                <time>2006-05-27T09:54:12Z</time>
            </trkpt>
            <trkpt lon="101.005554" lat="12.903013">
                <ele>105.882446</ele>
                <time>2006-05-27T09:54:28Z</time>
            </trkpt>
            <trkpt lon="101.005275" lat="12.903078">
                <ele>104.440430</ele>
                <time>2006-05-27T09:54:38Z</time>
            </trkpt>
            <trkpt lon="101.005297" lat="12.903099">
                <ele>104.440430</ele>
                <time>2006-05-27T09:55:12Z</time>
            </trkpt>
            <trkpt lon="101.005275" lat="12.903099">
                <ele>104.440430</ele>
                <time>2006-05-27T09:56:08Z</time>
            </trkpt>
            <trkpt lon="101.005533" lat="12.903013">
                <ele>104.921021</ele>
                <time>2006-05-27T09:56:25Z</time>
            </trkpt>
            <trkpt lon="101.005576" lat="12.902992">
                <ele>104.921021</ele>
                <time>2006-05-27T09:56:29Z</time>
            </trkpt>
            <trkpt lon="101.005619" lat="12.902970">
                <ele>104.921021</ele>
                <time>2006-05-27T09:56:33Z</time>
            </trkpt>
            <trkpt lon="101.005661" lat="12.902949">
                <ele>105.882446</ele>
                <time>2006-05-27T09:56:48Z</time>
            </trkpt>
            <trkpt lon="101.005661" lat="12.902927">
                <ele>108.285645</ele>
                <time>2006-05-27T09:58:00Z</time>
            </trkpt>
            <trkpt lon="101.005554" lat="12.902992">
                <ele>106.843628</ele>
                <time>2006-05-27T09:58:06Z</time>
            </trkpt>
            <trkpt lon="101.004889" lat="12.903185">
                <ele>104.440430</ele>
                <time>2006-05-27T09:58:19Z</time>
            </trkpt>
            <trkpt lon="101.003795" lat="12.903485">
                <ele>99.633789</ele>
                <time>2006-05-27T09:58:33Z</time>
            </trkpt>
            <trkpt lon="101.003451" lat="12.903550">
                <ele>97.711182</ele>
                <time>2006-05-27T09:58:37Z</time>
            </trkpt>
            <trkpt lon="101.003044" lat="12.903464">
                <ele>96.749878</ele>
                <time>2006-05-27T09:58:43Z</time>
            </trkpt>
            <trkpt lon="101.002593" lat="12.903314">
                <ele>97.711182</ele>
                <time>2006-05-27T09:58:49Z</time>
            </trkpt>
            <trkpt lon="101.001735" lat="12.903013">
                <ele>95.307739</ele>
                <time>2006-05-27T09:58:59Z</time>
            </trkpt>
            <trkpt lon="101.001327" lat="12.902691">
                <ele>94.827148</ele>
                <time>2006-05-27T09:59:05Z</time>
            </trkpt>
            <trkpt lon="101.000962" lat="12.902584">
                <ele>92.904541</ele>
                <time>2006-05-27T09:59:10Z</time>
            </trkpt>
            <trkpt lon="101.000447" lat="12.902584">
                <ele>90.501343</ele>
                <time>2006-05-27T09:59:18Z</time>
            </trkpt>
            <trkpt lon="101.000211" lat="12.902648">
                <ele>89.539917</ele>
                <time>2006-05-27T09:59:22Z</time>
            </trkpt>
            <trkpt lon="100.999954" lat="12.902927">
                <ele>87.617188</ele>
                <time>2006-05-27T09:59:28Z</time>
            </trkpt>
            <trkpt lon="100.999804" lat="12.903185">
                <ele>85.694580</ele>
                <time>2006-05-27T09:59:32Z</time>
            </trkpt>
            <trkpt lon="100.999653" lat="12.903721">
                <ele>82.330078</ele>
                <time>2006-05-27T09:59:39Z</time>
            </trkpt>
            <trkpt lon="100.999417" lat="12.904172">
                <ele>81.849365</ele>
                <time>2006-05-27T09:59:46Z</time>
            </trkpt>
            <trkpt lon="100.999310" lat="12.904301">
                <ele>83.291382</ele>
                <time>2006-05-27T09:59:49Z</time>
            </trkpt>
            <trkpt lon="100.999053" lat="12.904451">
                <ele>83.771973</ele>
                <time>2006-05-27T09:59:55Z</time>
            </trkpt>
            <trkpt lon="100.998666" lat="12.904923">
                <ele>83.291382</ele>
                <time>2006-05-27T10:00:08Z</time>
            </trkpt>
            <trkpt lon="100.998623" lat="12.905052">
                <ele>83.291382</ele>
                <time>2006-05-27T10:00:11Z</time>
            </trkpt>
            <trkpt lon="100.998580" lat="12.905202">
                <ele>83.291382</ele>
                <time>2006-05-27T10:00:14Z</time>
            </trkpt>
            <trkpt lon="100.998559" lat="12.905331">
                <ele>83.291382</ele>
                <time>2006-05-27T10:00:17Z</time>
            </trkpt>
            <trkpt lon="100.998580" lat="12.905524">
                <ele>83.291382</ele>
                <time>2006-05-27T10:00:21Z</time>
            </trkpt>
            <trkpt lon="100.998366" lat="12.905846">
                <ele>83.291382</ele>
                <time>2006-05-27T10:00:30Z</time>
            </trkpt>
            <trkpt lon="100.997851" lat="12.905931">
                <ele>83.291382</ele>
                <time>2006-05-27T10:00:43Z</time>
            </trkpt>
            <trkpt lon="100.997872" lat="12.905931">
                <ele>83.771973</ele>
                <time>2006-05-27T10:01:12Z</time>
            </trkpt>
            <trkpt lon="100.998280" lat="12.905824">
                <ele>84.252686</ele>
                <time>2006-05-27T10:01:28Z</time>
            </trkpt>
            <trkpt lon="100.998473" lat="12.905781">
                <ele>84.252686</ele>
                <time>2006-05-27T10:01:34Z</time>
            </trkpt>
            <trkpt lon="100.998387" lat="12.905631">
                <ele>83.771973</ele>
                <time>2006-05-27T10:01:41Z</time>
            </trkpt>
            <trkpt lon="100.997679" lat="12.905266">
                <ele>82.330078</ele>
                <time>2006-05-27T10:01:58Z</time>
            </trkpt>
            <trkpt lon="100.997014" lat="12.905095">
                <ele>81.368774</ele>
                <time>2006-05-27T10:02:11Z</time>
            </trkpt>
            <trkpt lon="100.996220" lat="12.905116">
                <ele>79.926636</ele>
                <time>2006-05-27T10:02:25Z</time>
            </trkpt>
            <trkpt lon="100.996048" lat="12.905138">
                <ele>79.926636</ele>
                <time>2006-05-27T10:02:28Z</time>
            </trkpt>
            <trkpt lon="100.995190" lat="12.905138">
                <ele>78.484741</ele>
                <time>2006-05-27T10:02:42Z</time>
            </trkpt>
            <trkpt lon="100.994611" lat="12.905223">
                <ele>76.562134</ele>
                <time>2006-05-27T10:02:51Z</time>
            </trkpt>
            <trkpt lon="100.994375" lat="12.905266">
                <ele>76.081421</ele>
                <time>2006-05-27T10:02:55Z</time>
            </trkpt>
            <trkpt lon="100.994246" lat="12.905288">
                <ele>75.600830</ele>
                <time>2006-05-27T10:02:57Z</time>
            </trkpt>
            <trkpt lon="100.993195" lat="12.905202">
                <ele>70.794189</ele>
                <time>2006-05-27T10:03:12Z</time>
            </trkpt>
            <trkpt lon="100.992293" lat="12.905116">
                <ele>67.429688</ele>
                <time>2006-05-27T10:03:23Z</time>
            </trkpt>
            <trkpt lon="100.991414" lat="12.905159">
                <ele>66.468262</ele>
                <time>2006-05-27T10:03:34Z</time>
            </trkpt>
            <trkpt lon="100.990598" lat="12.904987">
                <ele>68.390869</ele>
                <time>2006-05-27T10:03:46Z</time>
            </trkpt>
            <trkpt lon="100.990405" lat="12.905009">
                <ele>69.352295</ele>
                <time>2006-05-27T10:03:50Z</time>
            </trkpt>
            <trkpt lon="100.989590" lat="12.905459">
                <ele>69.832886</ele>
                <time>2006-05-27T10:04:09Z</time>
            </trkpt>
            <trkpt lon="100.988796" lat="12.905910">
                <ele>72.236206</ele>
                <time>2006-05-27T10:04:29Z</time>
            </trkpt>
            <trkpt lon="100.988431" lat="12.905867">
                <ele>73.678223</ele>
                <time>2006-05-27T10:04:41Z</time>
            </trkpt>
            <trkpt lon="100.988131" lat="12.905438">
                <ele>73.678223</ele>
                <time>2006-05-27T10:04:54Z</time>
            </trkpt>
            <trkpt lon="100.987744" lat="12.904773">
                <ele>73.197632</ele>
                <time>2006-05-27T10:05:12Z</time>
            </trkpt>
            <trkpt lon="100.987358" lat="12.904129">
                <ele>74.158813</ele>
                <time>2006-05-27T10:05:30Z</time>
            </trkpt>
            <trkpt lon="100.987058" lat="12.903636">
                <ele>76.081421</ele>
                <time>2006-05-27T10:05:46Z</time>
            </trkpt>
            <trkpt lon="100.987122" lat="12.903121">
                <ele>72.716919</ele>
                <time>2006-05-27T10:05:59Z</time>
            </trkpt>
            <trkpt lon="100.987015" lat="12.902906">
                <ele>72.716919</ele>
                <time>2006-05-27T10:06:09Z</time>
            </trkpt>
            <trkpt lon="100.986757" lat="12.902584">
                <ele>72.236206</ele>
                <time>2006-05-27T10:06:29Z</time>
            </trkpt>
            <trkpt lon="100.986607" lat="12.902348">
                <ele>72.716919</ele>
                <time>2006-05-27T10:06:46Z</time>
            </trkpt>
            <trkpt lon="100.986435" lat="12.901983">
                <ele>73.197632</ele>
                <time>2006-05-27T10:07:06Z</time>
            </trkpt>
            <trkpt lon="100.986350" lat="12.901747">
                <ele>73.678223</ele>
                <time>2006-05-27T10:07:21Z</time>
            </trkpt>
            <trkpt lon="100.986242" lat="12.901468">
                <ele>74.158813</ele>
                <time>2006-05-27T10:07:38Z</time>
            </trkpt>
            <trkpt lon="100.986328" lat="12.900825">
                <ele>72.236206</ele>
                <time>2006-05-27T10:07:55Z</time>
            </trkpt>
            <trkpt lon="100.986285" lat="12.900224">
                <ele>71.755493</ele>
                <time>2006-05-27T10:08:10Z</time>
            </trkpt>
            <trkpt lon="100.986156" lat="12.900224">
                <ele>72.236206</ele>
                <time>2006-05-27T10:08:14Z</time>
            </trkpt>
            <trkpt lon="100.985320" lat="12.900438">
                <ele>73.197632</ele>
                <time>2006-05-27T10:08:36Z</time>
            </trkpt>
            <trkpt lon="100.984375" lat="12.900696">
                <ele>75.120239</ele>
                <time>2006-05-27T10:08:59Z</time>
            </trkpt>
            <trkpt lon="100.983410" lat="12.900953">
                <ele>75.120239</ele>
                <time>2006-05-27T10:09:20Z</time>
            </trkpt>
            <trkpt lon="100.983303" lat="12.900996">
                <ele>75.120239</ele>
                <time>2006-05-27T10:09:22Z</time>
            </trkpt>
            <trkpt lon="100.982165" lat="12.901297">
                <ele>75.600830</ele>
                <time>2006-05-27T10:09:45Z</time>
            </trkpt>
            <trkpt lon="100.981221" lat="12.901533">
                <ele>75.600830</ele>
                <time>2006-05-27T10:10:04Z</time>
            </trkpt>
            <trkpt lon="100.980706" lat="12.901683">
                <ele>76.081421</ele>
                <time>2006-05-27T10:10:14Z</time>
            </trkpt>
            <trkpt lon="100.980492" lat="12.901962">
                <ele>76.081421</ele>
                <time>2006-05-27T10:10:21Z</time>
            </trkpt>
            <trkpt lon="100.980170" lat="12.903163">
                <ele>73.678223</ele>
                <time>2006-05-27T10:10:45Z</time>
            </trkpt>
            <trkpt lon="100.980105" lat="12.903399">
                <ele>75.120239</ele>
                <time>2006-05-27T10:10:50Z</time>
            </trkpt>
            <trkpt lon="100.979784" lat="12.903507">
                <ele>75.120239</ele>
                <time>2006-05-27T10:10:57Z</time>
            </trkpt>
            <trkpt lon="100.978711" lat="12.903142">
                <ele>72.716919</ele>
                <time>2006-05-27T10:11:14Z</time>
            </trkpt>
            <trkpt lon="100.977659" lat="12.902799">
                <ele>69.352295</ele>
                <time>2006-05-27T10:11:30Z</time>
            </trkpt>
            <trkpt lon="100.977058" lat="12.902627">
                <ele>67.910278</ele>
                <time>2006-05-27T10:11:39Z</time>
            </trkpt>
            <trkpt lon="100.975943" lat="12.902262">
                <ele>65.987671</ele>
                <time>2006-05-27T10:11:56Z</time>
            </trkpt>
            <trkpt lon="100.975149" lat="12.902241">
                <ele>63.103638</ele>
                <time>2006-05-27T10:12:08Z</time>
            </trkpt>
            <trkpt lon="100.974956" lat="12.902305">
                <ele>62.622925</ele>
                <time>2006-05-27T10:12:11Z</time>
            </trkpt>
            <trkpt lon="100.974784" lat="12.902327">
                <ele>62.622925</ele>
                <time>2006-05-27T10:12:14Z</time>
            </trkpt>
            <trkpt lon="100.974441" lat="12.902305">
                <ele>62.142334</ele>
                <time>2006-05-27T10:12:20Z</time>
            </trkpt>
            <trkpt lon="100.973840" lat="12.902176">
                <ele>61.661743</ele>
                <time>2006-05-27T10:12:30Z</time>
            </trkpt>
            <trkpt lon="100.973582" lat="12.902026">
                <ele>62.142334</ele>
                <time>2006-05-27T10:12:36Z</time>
            </trkpt>
            <trkpt lon="100.973303" lat="12.902005">
                <ele>60.700317</ele>
                <time>2006-05-27T10:12:43Z</time>
            </trkpt>
            <trkpt lon="100.972960" lat="12.901919">
                <ele>62.142334</ele>
                <time>2006-05-27T10:12:52Z</time>
            </trkpt>
            <trkpt lon="100.972853" lat="12.901790">
                <ele>62.622925</ele>
                <time>2006-05-27T10:12:56Z</time>
            </trkpt>
            <trkpt lon="100.972424" lat="12.900996">
                <ele>62.622925</ele>
                <time>2006-05-27T10:13:11Z</time>
            </trkpt>
            <trkpt lon="100.972230" lat="12.900782">
                <ele>62.622925</ele>
                <time>2006-05-27T10:13:16Z</time>
            </trkpt>
            <trkpt lon="100.972252" lat="12.900524">
                <ele>63.584351</ele>
                <time>2006-05-27T10:13:21Z</time>
            </trkpt>
            <trkpt lon="100.972359" lat="12.900438">
                <ele>62.142334</ele>
                <time>2006-05-27T10:13:23Z</time>
            </trkpt>
            <trkpt lon="100.973132" lat="12.900159">
                <ele>60.700317</ele>
                <time>2006-05-27T10:13:39Z</time>
            </trkpt>
            <trkpt lon="100.973067" lat="12.900116">
                <ele>62.622925</ele>
                <time>2006-05-27T10:14:21Z</time>
            </trkpt>
            <trkpt lon="100.972788" lat="12.900031">
                <ele>62.622925</ele>
                <time>2006-05-27T10:14:32Z</time>
            </trkpt>
            <trkpt lon="100.972102" lat="12.900181">
                <ele>62.622925</ele>
                <time>2006-05-27T10:14:48Z</time>
            </trkpt>
            <trkpt lon="100.971329" lat="12.900074">
                <ele>63.584351</ele>
                <time>2006-05-27T10:15:11Z</time>
            </trkpt>
            <trkpt lon="100.970643" lat="12.899859">
                <ele>63.584351</ele>
                <time>2006-05-27T10:15:32Z</time>
            </trkpt>
            <trkpt lon="100.970600" lat="12.899880">
                <ele>62.622925</ele>
                <time>2006-05-27T10:15:34Z</time>
            </trkpt>
            <trkpt lon="100.970428" lat="12.900460">
                <ele>59.739136</ele>
                <time>2006-05-27T10:15:51Z</time>
            </trkpt>
            <trkpt lon="100.969999" lat="12.901297">
                <ele>58.297119</ele>
                <time>2006-05-27T10:16:15Z</time>
            </trkpt>
            <trkpt lon="100.969634" lat="12.902026">
                <ele>64.545654</ele>
                <time>2006-05-27T10:16:37Z</time>
            </trkpt>
            <trkpt lon="100.969419" lat="12.902777">
                <ele>63.103638</ele>
                <time>2006-05-27T10:17:00Z</time>
            </trkpt>
            <trkpt lon="100.969334" lat="12.903249">
                <ele>64.545654</ele>
                <time>2006-05-27T10:17:17Z</time>
            </trkpt>
            <trkpt lon="100.969398" lat="12.903936">
                <ele>65.507080</ele>
                <time>2006-05-27T10:17:35Z</time>
            </trkpt>
            <trkpt lon="100.969527" lat="12.904923">
                <ele>67.429688</ele>
                <time>2006-05-27T10:17:59Z</time>
            </trkpt>
            <trkpt lon="100.969806" lat="12.905674">
                <ele>67.429688</ele>
                <time>2006-05-27T10:18:17Z</time>
            </trkpt>
            <trkpt lon="100.969763" lat="12.905931">
                <ele>66.468262</ele>
                <time>2006-05-27T10:18:22Z</time>
            </trkpt>
            <trkpt lon="100.969548" lat="12.906318">
                <ele>67.429688</ele>
                <time>2006-05-27T10:18:31Z</time>
            </trkpt>
            <trkpt lon="100.969355" lat="12.906446">
                <ele>66.948975</ele>
                <time>2006-05-27T10:18:35Z</time>
            </trkpt>
            <trkpt lon="100.968497" lat="12.906854">
                <ele>65.507080</ele>
                <time>2006-05-27T10:18:51Z</time>
            </trkpt>
            <trkpt lon="100.967939" lat="12.907326">
                <ele>63.584351</ele>
                <time>2006-05-27T10:19:03Z</time>
            </trkpt>
            <trkpt lon="100.967638" lat="12.907412">
                <ele>64.065063</ele>
                <time>2006-05-27T10:19:08Z</time>
            </trkpt>
            <trkpt lon="100.966802" lat="12.907262">
                <ele>62.622925</ele>
                <time>2006-05-27T10:19:23Z</time>
            </trkpt>
            <trkpt lon="100.965772" lat="12.907069">
                <ele>60.700317</ele>
                <time>2006-05-27T10:19:44Z</time>
            </trkpt>
            <trkpt lon="100.965643" lat="12.906961">
                <ele>59.739136</ele>
                <time>2006-05-27T10:19:47Z</time>
            </trkpt>
            <trkpt lon="100.965536" lat="12.906768">
                <ele>59.739136</ele>
                <time>2006-05-27T10:19:52Z</time>
            </trkpt>
            <trkpt lon="100.965493" lat="12.906532">
                <ele>60.700317</ele>
                <time>2006-05-27T10:19:58Z</time>
            </trkpt>
            <trkpt lon="100.965278" lat="12.906511">
                <ele>58.777710</ele>
                <time>2006-05-27T10:20:04Z</time>
            </trkpt>
            <trkpt lon="100.965106" lat="12.906532">
                <ele>57.335815</ele>
                <time>2006-05-27T10:20:07Z</time>
            </trkpt>
            <trkpt lon="100.964892" lat="12.906446">
                <ele>55.413086</ele>
                <time>2006-05-27T10:20:11Z</time>
            </trkpt>
            <trkpt lon="100.964677" lat="12.906489">
                <ele>53.971191</ele>
                <time>2006-05-27T10:20:16Z</time>
            </trkpt>
            <trkpt lon="100.964227" lat="12.907326">
                <ele>51.087158</ele>
                <time>2006-05-27T10:20:33Z</time>
            </trkpt>
            <trkpt lon="100.963647" lat="12.908356">
                <ele>47.241821</ele>
                <time>2006-05-27T10:20:55Z</time>
            </trkpt>
            <trkpt lon="100.963175" lat="12.909257">
                <ele>46.761230</ele>
                <time>2006-05-27T10:21:13Z</time>
            </trkpt>
            <trkpt lon="100.962832" lat="12.909708">
                <ele>46.280640</ele>
                <time>2006-05-27T10:21:26Z</time>
            </trkpt>
            <trkpt lon="100.962617" lat="12.909944">
                <ele>46.761230</ele>
                <time>2006-05-27T10:21:39Z</time>
            </trkpt>
            <trkpt lon="100.962532" lat="12.910395">
                <ele>47.241821</ele>
                <time>2006-05-27T10:21:53Z</time>
            </trkpt>
            <trkpt lon="100.962532" lat="12.911210">
                <ele>47.722534</ele>
                <time>2006-05-27T10:22:16Z</time>
            </trkpt>
            <trkpt lon="100.962725" lat="12.911854">
                <ele>47.241821</ele>
                <time>2006-05-27T10:22:35Z</time>
            </trkpt>
            <trkpt lon="100.962939" lat="12.912798">
                <ele>49.164551</ele>
                <time>2006-05-27T10:23:01Z</time>
            </trkpt>
            <trkpt lon="100.963154" lat="12.913356">
                <ele>48.683960</ele>
                <time>2006-05-27T10:23:21Z</time>
            </trkpt>
            <trkpt lon="100.963283" lat="12.913656">
                <ele>53.009766</ele>
                <time>2006-05-27T10:23:33Z</time>
            </trkpt>
            <trkpt lon="100.963068" lat="12.913957">
                <ele>54.451782</ele>
                <time>2006-05-27T10:23:49Z</time>
            </trkpt>
            <trkpt lon="100.963025" lat="12.914042">
                <ele>56.374512</ele>
                <time>2006-05-27T10:24:01Z</time>
            </trkpt>
            <trkpt lon="100.963025" lat="12.914064">
                <ele>55.893799</ele>
                <time>2006-05-27T10:24:27Z</time>
            </trkpt>
            <trkpt lon="100.963047" lat="12.914085">
                <ele>55.893799</ele>
                <time>2006-05-27T10:24:31Z</time>
            </trkpt>
            <trkpt lon="100.963154" lat="12.913871">
                <ele>54.451782</ele>
                <time>2006-05-27T10:24:41Z</time>
            </trkpt>
            <trkpt lon="100.963283" lat="12.913592">
                <ele>56.374512</ele>
                <time>2006-05-27T10:24:57Z</time>
            </trkpt>
            <trkpt lon="100.963089" lat="12.913291">
                <ele>55.413086</ele>
                <time>2006-05-27T10:25:05Z</time>
            </trkpt>
            <trkpt lon="100.962853" lat="12.913270">
                <ele>53.971191</ele>
                <time>2006-05-27T10:25:12Z</time>
            </trkpt>
            <trkpt lon="100.962038" lat="12.913678">
                <ele>55.413086</ele>
                <time>2006-05-27T10:25:33Z</time>
            </trkpt>
            <trkpt lon="100.961223" lat="12.913892">
                <ele>54.451782</ele>
                <time>2006-05-27T10:25:52Z</time>
            </trkpt>
            <trkpt lon="100.960600" lat="12.913806">
                <ele>52.529175</ele>
                <time>2006-05-27T10:26:09Z</time>
            </trkpt>
            <trkpt lon="100.959828" lat="12.913699">
                <ele>54.451782</ele>
                <time>2006-05-27T10:26:29Z</time>
            </trkpt>
            <trkpt lon="100.959785" lat="12.913699">
                <ele>53.971191</ele>
                <time>2006-05-27T10:26:30Z</time>
            </trkpt>
            <trkpt lon="100.959163" lat="12.913828">
                <ele>53.009766</ele>
                <time>2006-05-27T10:26:46Z</time>
            </trkpt>
            <trkpt lon="100.958519" lat="12.914107">
                <ele>53.009766</ele>
                <time>2006-05-27T10:27:05Z</time>
            </trkpt>
            <trkpt lon="100.957854" lat="12.914472">
                <ele>54.451782</ele>
                <time>2006-05-27T10:27:26Z</time>
            </trkpt>
            <trkpt lon="100.957382" lat="12.914729">
                <ele>54.932373</ele>
                <time>2006-05-27T10:27:44Z</time>
            </trkpt>
            <trkpt lon="100.956931" lat="12.915115">
                <ele>56.374512</ele>
                <time>2006-05-27T10:28:04Z</time>
            </trkpt>
            <trkpt lon="100.956545" lat="12.915287">
                <ele>56.855103</ele>
                <time>2006-05-27T10:28:17Z</time>
            </trkpt>
            <trkpt lon="100.955966" lat="12.915330">
                <ele>60.700317</ele>
                <time>2006-05-27T10:28:34Z</time>
            </trkpt>
            <trkpt lon="100.955215" lat="12.915051">
                <ele>60.700317</ele>
                <time>2006-05-27T10:28:54Z</time>
            </trkpt>
            <trkpt lon="100.954742" lat="12.914901">
                <ele>61.181030</ele>
                <time>2006-05-27T10:29:06Z</time>
            </trkpt>
            <trkpt lon="100.954227" lat="12.914407">
                <ele>63.103638</ele>
                <time>2006-05-27T10:29:26Z</time>
            </trkpt>
            <trkpt lon="100.953734" lat="12.914236">
                <ele>62.622925</ele>
                <time>2006-05-27T10:29:42Z</time>
            </trkpt>
            <trkpt lon="100.953326" lat="12.914000">
                <ele>59.258423</ele>
                <time>2006-05-27T10:29:55Z</time>
            </trkpt>
            <trkpt lon="100.952554" lat="12.913871">
                <ele>56.374512</ele>
                <time>2006-05-27T10:30:13Z</time>
            </trkpt>
            <trkpt lon="100.952382" lat="12.913742">
                <ele>56.374512</ele>
                <time>2006-05-27T10:30:18Z</time>
            </trkpt>
            <trkpt lon="100.952210" lat="12.913656">
                <ele>56.374512</ele>
                <time>2006-05-27T10:30:23Z</time>
            </trkpt>
            <trkpt lon="100.951567" lat="12.913785">
                <ele>55.413086</ele>
                <time>2006-05-27T10:30:39Z</time>
            </trkpt>
            <trkpt lon="100.951073" lat="12.913957">
                <ele>53.490479</ele>
                <time>2006-05-27T10:30:55Z</time>
            </trkpt>
            <trkpt lon="100.950558" lat="12.914279">
                <ele>51.087158</ele>
                <time>2006-05-27T10:31:11Z</time>
            </trkpt>
            <trkpt lon="100.950429" lat="12.914386">
                <ele>51.087158</ele>
                <time>2006-05-27T10:31:16Z</time>
            </trkpt>
            <trkpt lon="100.950172" lat="12.914515">
                <ele>51.567871</ele>
                <time>2006-05-27T10:31:23Z</time>
            </trkpt>
            <trkpt lon="100.949829" lat="12.914944">
                <ele>50.606567</ele>
                <time>2006-05-27T10:31:36Z</time>
            </trkpt>
            <trkpt lon="100.949721" lat="12.915072">
                <ele>49.645264</ele>
                <time>2006-05-27T10:31:40Z</time>
            </trkpt>
            <trkpt lon="100.949550" lat="12.915416">
                <ele>49.645264</ele>
                <time>2006-05-27T10:31:48Z</time>
            </trkpt>
            <trkpt lon="100.949421" lat="12.915545">
                <ele>49.164551</ele>
                <time>2006-05-27T10:31:52Z</time>
            </trkpt>
            <trkpt lon="100.949357" lat="12.915587">
                <ele>48.683960</ele>
                <time>2006-05-27T10:31:54Z</time>
            </trkpt>
            <trkpt lon="100.949185" lat="12.915630">
                <ele>48.683960</ele>
                <time>2006-05-27T10:31:58Z</time>
            </trkpt>
            <trkpt lon="100.948992" lat="12.915609">
                <ele>48.683960</ele>
                <time>2006-05-27T10:32:07Z</time>
            </trkpt>
            <trkpt lon="100.949013" lat="12.915630">
                <ele>53.009766</ele>
                <time>2006-05-27T10:32:15Z</time>
            </trkpt>
            <trkpt lon="100.948906" lat="12.915823">
                <ele>51.087158</ele>
                <time>2006-05-27T10:32:25Z</time>
            </trkpt>
            <trkpt lon="100.948541" lat="12.916403">
                <ele>53.490479</ele>
                <time>2006-05-27T10:32:43Z</time>
            </trkpt>
            <trkpt lon="100.948391" lat="12.916832">
                <ele>48.683960</ele>
                <time>2006-05-27T10:33:03Z</time>
            </trkpt>
            <trkpt lon="100.948112" lat="12.917047">
                <ele>46.761230</ele>
                <time>2006-05-27T10:33:17Z</time>
            </trkpt>
            <trkpt lon="100.947726" lat="12.917111">
                <ele>44.838623</ele>
                <time>2006-05-27T10:33:29Z</time>
            </trkpt>
            <trkpt lon="100.947125" lat="12.917497">
                <ele>43.877319</ele>
                <time>2006-05-27T10:33:53Z</time>
            </trkpt>
            <trkpt lon="100.946846" lat="12.917583">
                <ele>42.435425</ele>
                <time>2006-05-27T10:34:07Z</time>
            </trkpt>
            <trkpt lon="100.946417" lat="12.917733">
                <ele>39.551270</ele>
                <time>2006-05-27T10:34:22Z</time>
            </trkpt>
            <trkpt lon="100.945837" lat="12.917733">
                <ele>37.148071</ele>
                <time>2006-05-27T10:34:40Z</time>
            </trkpt>
            <trkpt lon="100.945559" lat="12.917669">
                <ele>36.667480</ele>
                <time>2006-05-27T10:34:51Z</time>
            </trkpt>
            <trkpt lon="100.945129" lat="12.917562">
                <ele>36.667480</ele>
                <time>2006-05-27T10:35:07Z</time>
            </trkpt>
            <trkpt lon="100.944743" lat="12.917497">
                <ele>37.628662</ele>
                <time>2006-05-27T10:35:21Z</time>
            </trkpt>
            <trkpt lon="100.944700" lat="12.917476">
                <ele>38.109375</ele>
                <time>2006-05-27T10:35:31Z</time>
            </trkpt>
            <trkpt lon="100.944464" lat="12.917476">
                <ele>39.070679</ele>
                <time>2006-05-27T10:36:25Z</time>
            </trkpt>
            <trkpt lon="100.944185" lat="12.917626">
                <ele>37.148071</ele>
                <time>2006-05-27T10:36:37Z</time>
            </trkpt>
            <trkpt lon="100.943928" lat="12.917798">
                <ele>36.186768</ele>
                <time>2006-05-27T10:36:49Z</time>
            </trkpt>
            <trkpt lon="100.943799" lat="12.917883">
                <ele>34.744873</ele>
                <time>2006-05-27T10:36:53Z</time>
            </trkpt>
            <trkpt lon="100.943327" lat="12.918162">
                <ele>32.822266</ele>
                <time>2006-05-27T10:37:10Z</time>
            </trkpt>
            <trkpt lon="100.943134" lat="12.918205">
                <ele>32.822266</ele>
                <time>2006-05-27T10:37:22Z</time>
            </trkpt>
            <trkpt lon="100.943134" lat="12.918205">
                <ele>32.341553</ele>
                <time>2006-05-27T10:37:27Z</time>
            </trkpt>
            <trkpt lon="100.942984" lat="12.918313">
                <ele>31.860718</ele>
                <time>2006-05-27T10:37:37Z</time>
            </trkpt>
            <trkpt lon="100.942876" lat="12.918549">
                <ele>31.380127</ele>
                <time>2006-05-27T10:37:48Z</time>
            </trkpt>
            <trkpt lon="100.942705" lat="12.918527">
                <ele>31.380127</ele>
                <time>2006-05-27T10:37:54Z</time>
            </trkpt>
            <trkpt lon="100.942340" lat="12.918463">
                <ele>31.860718</ele>
                <time>2006-05-27T10:38:08Z</time>
            </trkpt>
            <trkpt lon="100.942061" lat="12.919106">
                <ele>31.860718</ele>
                <time>2006-05-27T10:38:26Z</time>
            </trkpt>
            <trkpt lon="100.941525" lat="12.920051">
                <ele>32.341553</ele>
                <time>2006-05-27T10:38:48Z</time>
            </trkpt>
            <trkpt lon="100.940988" lat="12.920995">
                <ele>32.341553</ele>
                <time>2006-05-27T10:39:12Z</time>
            </trkpt>
            <trkpt lon="100.940580" lat="12.921896">
                <ele>29.938110</ele>
                <time>2006-05-27T10:39:33Z</time>
            </trkpt>
            <trkpt lon="100.940409" lat="12.922196">
                <ele>28.976929</ele>
                <time>2006-05-27T10:39:40Z</time>
            </trkpt>
            <trkpt lon="100.940344" lat="12.922261">
                <ele>28.496216</ele>
                <time>2006-05-27T10:39:42Z</time>
            </trkpt>
            <trkpt lon="100.939701" lat="12.922840">
                <ele>27.534912</ele>
                <time>2006-05-27T10:39:59Z</time>
            </trkpt>
            <trkpt lon="100.939229" lat="12.923484">
                <ele>27.054321</ele>
                <time>2006-05-27T10:40:13Z</time>
            </trkpt>
            <trkpt lon="100.938520" lat="12.924042">
                <ele>24.651001</ele>
                <time>2006-05-27T10:40:30Z</time>
            </trkpt>
            <trkpt lon="100.938284" lat="12.924256">
                <ele>25.612305</ele>
                <time>2006-05-27T10:40:36Z</time>
            </trkpt>
            <trkpt lon="100.937791" lat="12.925351">
                <ele>25.131714</ele>
                <time>2006-05-27T10:41:00Z</time>
            </trkpt>
            <trkpt lon="100.937426" lat="12.926273">
                <ele>28.015503</ele>
                <time>2006-05-27T10:41:17Z</time>
            </trkpt>
            <trkpt lon="100.937061" lat="12.926574">
                <ele>26.573608</ele>
                <time>2006-05-27T10:41:25Z</time>
            </trkpt>
            <trkpt lon="100.936396" lat="12.926745">
                <ele>23.689575</ele>
                <time>2006-05-27T10:41:41Z</time>
            </trkpt>
            <trkpt lon="100.936332" lat="12.926702">
                <ele>21.286377</ele>
                <time>2006-05-27T10:41:57Z</time>
            </trkpt>
            <trkpt lon="100.936310" lat="12.926638">
                <ele>23.689575</ele>
                <time>2006-05-27T10:42:28Z</time>
            </trkpt>
            <trkpt lon="100.936224" lat="12.926230">
                <ele>23.689575</ele>
                <time>2006-05-27T10:42:45Z</time>
            </trkpt>
            <trkpt lon="100.936160" lat="12.925715">
                <ele>26.092896</ele>
                <time>2006-05-27T10:43:05Z</time>
            </trkpt>
            <trkpt lon="100.936203" lat="12.925329">
                <ele>25.612305</ele>
                <time>2006-05-27T10:43:19Z</time>
            </trkpt>
            <trkpt lon="100.936053" lat="12.924557">
                <ele>25.131714</ele>
                <time>2006-05-27T10:43:39Z</time>
            </trkpt>
            <trkpt lon="100.936053" lat="12.923698">
                <ele>24.170288</ele>
                <time>2006-05-27T10:43:59Z</time>
            </trkpt>
            <trkpt lon="100.936246" lat="12.922797">
                <ele>23.208984</ele>
                <time>2006-05-27T10:44:21Z</time>
            </trkpt>
            <trkpt lon="100.936332" lat="12.922196">
                <ele>24.651001</ele>
                <time>2006-05-27T10:44:37Z</time>
            </trkpt>
            <trkpt lon="100.936310" lat="12.921338">
                <ele>25.612305</ele>
                <time>2006-05-27T10:44:58Z</time>
            </trkpt>
            <trkpt lon="100.936246" lat="12.920587">
                <ele>25.131714</ele>
                <time>2006-05-27T10:45:16Z</time>
            </trkpt>
            <trkpt lon="100.936053" lat="12.920158">
                <ele>24.651001</ele>
                <time>2006-05-27T10:45:31Z</time>
            </trkpt>
            <trkpt lon="100.935473" lat="12.920072">
                <ele>24.651001</ele>
                <time>2006-05-27T10:45:44Z</time>
            </trkpt>
            <trkpt lon="100.935409" lat="12.920072">
                <ele>24.651001</ele>
                <time>2006-05-27T10:45:46Z</time>
            </trkpt>
            <trkpt lon="100.934572" lat="12.920136">
                <ele>24.651001</ele>
                <time>2006-05-27T10:46:07Z</time>
            </trkpt>
            <trkpt lon="100.934443" lat="12.920158">
                <ele>25.131714</ele>
                <time>2006-05-27T10:46:11Z</time>
            </trkpt>
            <trkpt lon="100.934422" lat="12.920072">
                <ele>26.573608</ele>
                <time>2006-05-27T10:46:15Z</time>
            </trkpt>
            <trkpt lon="100.934293" lat="12.919493">
                <ele>29.457520</ele>
                <time>2006-05-27T10:46:34Z</time>
            </trkpt>
            <trkpt lon="100.934079" lat="12.918806">
                <ele>28.496216</ele>
                <time>2006-05-27T10:46:56Z</time>
            </trkpt>
            <trkpt lon="100.933928" lat="12.918506">
                <ele>29.457520</ele>
                <time>2006-05-27T10:47:10Z</time>
            </trkpt>
            <trkpt lon="100.933478" lat="12.918162">
                <ele>30.418823</ele>
                <time>2006-05-27T10:47:27Z</time>
            </trkpt>
            <trkpt lon="100.932963" lat="12.917733">
                <ele>32.341553</ele>
                <time>2006-05-27T10:47:49Z</time>
            </trkpt>
            <trkpt lon="100.932448" lat="12.917261">
                <ele>33.302856</ele>
                <time>2006-05-27T10:48:14Z</time>
            </trkpt>
            <trkpt lon="100.932255" lat="12.916746">
                <ele>35.706055</ele>
                <time>2006-05-27T10:48:33Z</time>
            </trkpt>
            <trkpt lon="100.931911" lat="12.916210">
                <ele>39.070679</ele>
                <time>2006-05-27T10:48:54Z</time>
            </trkpt>
            <trkpt lon="100.931675" lat="12.915523">
                <ele>41.473999</ele>
                <time>2006-05-27T10:49:18Z</time>
            </trkpt>
            <trkpt lon="100.931396" lat="12.914944">
                <ele>41.954712</ele>
                <time>2006-05-27T10:49:40Z</time>
            </trkpt>
            <trkpt lon="100.931010" lat="12.914901">
                <ele>41.954712</ele>
                <time>2006-05-27T10:49:53Z</time>
            </trkpt>
            <trkpt lon="100.930517" lat="12.914944">
                <ele>42.435425</ele>
                <time>2006-05-27T10:50:12Z</time>
            </trkpt>
            <trkpt lon="100.930109" lat="12.914987">
                <ele>41.954712</ele>
                <time>2006-05-27T10:50:25Z</time>
            </trkpt>
            <trkpt lon="100.929573" lat="12.915030">
                <ele>40.032104</ele>
                <time>2006-05-27T10:50:41Z</time>
            </trkpt>
            <trkpt lon="100.929251" lat="12.915094">
                <ele>40.512817</ele>
                <time>2006-05-27T10:50:50Z</time>
            </trkpt>
            <trkpt lon="100.928650" lat="12.915158">
                <ele>38.590088</ele>
                <time>2006-05-27T10:51:07Z</time>
            </trkpt>
            <trkpt lon="100.928349" lat="12.915158">
                <ele>38.590088</ele>
                <time>2006-05-27T10:51:15Z</time>
            </trkpt>
            <trkpt lon="100.928135" lat="12.915330">
                <ele>38.109375</ele>
                <time>2006-05-27T10:51:24Z</time>
            </trkpt>
            <trkpt lon="100.927556" lat="12.915459">
                <ele>38.109375</ele>
                <time>2006-05-27T10:51:38Z</time>
            </trkpt>
            <trkpt lon="100.927169" lat="12.915630">
                <ele>35.706055</ele>
                <time>2006-05-27T10:51:50Z</time>
            </trkpt>
            <trkpt lon="100.927148" lat="12.915652">
                <ele>36.667480</ele>
                <time>2006-05-27T10:51:56Z</time>
            </trkpt>
            <trkpt lon="100.927148" lat="12.915738">
                <ele>36.186768</ele>
                <time>2006-05-27T10:52:01Z</time>
            </trkpt>
            <trkpt lon="100.927169" lat="12.915845">
                <ele>36.667480</ele>
                <time>2006-05-27T10:52:14Z</time>
            </trkpt>
            <trkpt lon="100.927191" lat="12.915845">
                <ele>39.551270</ele>
                <time>2006-05-27T10:53:20Z</time>
            </trkpt>
            <trkpt lon="100.927191" lat="12.915781">
                <ele>38.109375</ele>
                <time>2006-05-27T10:53:25Z</time>
            </trkpt>
            <trkpt lon="100.926998" lat="12.915351">
                <ele>38.590088</ele>
                <time>2006-05-27T10:53:43Z</time>
            </trkpt>
            <trkpt lon="100.926740" lat="12.914751">
                <ele>39.070679</ele>
                <time>2006-05-27T10:54:03Z</time>
            </trkpt>
            <trkpt lon="100.926418" lat="12.914021">
                <ele>39.551270</ele>
                <time>2006-05-27T10:54:27Z</time>
            </trkpt>
            <trkpt lon="100.926075" lat="12.913184">
                <ele>41.473999</ele>
                <time>2006-05-27T10:54:53Z</time>
            </trkpt>
            <trkpt lon="100.925732" lat="12.912390">
                <ele>42.916016</ele>
                <time>2006-05-27T10:55:18Z</time>
            </trkpt>
            <trkpt lon="100.925388" lat="12.911532">
                <ele>45.319214</ele>
                <time>2006-05-27T10:55:45Z</time>
            </trkpt>
            <trkpt lon="100.925088" lat="12.910888">
                <ele>45.319214</ele>
                <time>2006-05-27T10:56:07Z</time>
            </trkpt>
            <trkpt lon="100.924830" lat="12.910266">
                <ele>48.683960</ele>
                <time>2006-05-27T10:56:30Z</time>
            </trkpt>
            <trkpt lon="100.924551" lat="12.909601">
                <ele>52.529175</ele>
                <time>2006-05-27T10:56:52Z</time>
            </trkpt>
            <trkpt lon="100.924208" lat="12.908850">
                <ele>54.932373</ele>
                <time>2006-05-27T10:57:16Z</time>
            </trkpt>
            <trkpt lon="100.923908" lat="12.908120">
                <ele>55.413086</ele>
                <time>2006-05-27T10:57:39Z</time>
            </trkpt>
            <trkpt lon="100.923650" lat="12.907519">
                <ele>54.451782</ele>
                <time>2006-05-27T10:57:57Z</time>
            </trkpt>
            <trkpt lon="100.923371" lat="12.906854">
                <ele>53.490479</ele>
                <time>2006-05-27T10:58:16Z</time>
            </trkpt>
            <trkpt lon="100.923049" lat="12.906039">
                <ele>53.971191</ele>
                <time>2006-05-27T10:58:38Z</time>
            </trkpt>
            <trkpt lon="100.922964" lat="12.905395">
                <ele>53.971191</ele>
                <time>2006-05-27T10:58:56Z</time>
            </trkpt>
            <trkpt lon="100.922921" lat="12.904794">
                <ele>52.529175</ele>
                <time>2006-05-27T10:59:14Z</time>
            </trkpt>
            <trkpt lon="100.922899" lat="12.904751">
                <ele>53.490479</ele>
                <time>2006-05-27T10:59:26Z</time>
            </trkpt>
            <trkpt lon="100.922813" lat="12.904601">
                <ele>53.971191</ele>
                <time>2006-05-27T10:59:59Z</time>
            </trkpt>
            <trkpt lon="100.922384" lat="12.904601">
                <ele>53.971191</ele>
                <time>2006-05-27T11:00:13Z</time>
            </trkpt>
            <trkpt lon="100.921826" lat="12.904665">
                <ele>54.451782</ele>
                <time>2006-05-27T11:00:32Z</time>
            </trkpt>
            <trkpt lon="100.921397" lat="12.904816">
                <ele>56.855103</ele>
                <time>2006-05-27T11:00:52Z</time>
            </trkpt>
            <trkpt lon="100.920947" lat="12.905009">
                <ele>58.297119</ele>
                <time>2006-05-27T11:01:15Z</time>
            </trkpt>
            <trkpt lon="100.920625" lat="12.905073">
                <ele>62.142334</ele>
                <time>2006-05-27T11:01:34Z</time>
            </trkpt>
            <trkpt lon="100.920217" lat="12.905030">
                <ele>64.065063</ele>
                <time>2006-05-27T11:01:54Z</time>
            </trkpt>
            <trkpt lon="100.920153" lat="12.905095">
                <ele>64.065063</ele>
                <time>2006-05-27T11:01:58Z</time>
            </trkpt>
            <trkpt lon="100.920045" lat="12.905545">
                <ele>65.507080</ele>
                <time>2006-05-27T11:02:14Z</time>
            </trkpt>
            <trkpt lon="100.919960" lat="12.906039">
                <ele>68.390869</ele>
                <time>2006-05-27T11:02:30Z</time>
            </trkpt>
            <trkpt lon="100.919766" lat="12.906961">
                <ele>71.755493</ele>
                <time>2006-05-27T11:02:57Z</time>
            </trkpt>
            <trkpt lon="100.919552" lat="12.907627">
                <ele>72.236206</ele>
                <time>2006-05-27T11:03:18Z</time>
            </trkpt>
            <trkpt lon="100.919080" lat="12.907755">
                <ele>70.794189</ele>
                <time>2006-05-27T11:03:32Z</time>
            </trkpt>
            <trkpt lon="100.918586" lat="12.907906">
                <ele>69.832886</ele>
                <time>2006-05-27T11:03:51Z</time>
            </trkpt>
            <trkpt lon="100.918050" lat="12.908185">
                <ele>69.352295</ele>
                <time>2006-05-27T11:04:12Z</time>
            </trkpt>
            <trkpt lon="100.917706" lat="12.908571">
                <ele>68.871582</ele>
                <time>2006-05-27T11:04:27Z</time>
            </trkpt>
            <trkpt lon="100.917299" lat="12.909257">
                <ele>69.832886</ele>
                <time>2006-05-27T11:04:47Z</time>
            </trkpt>
            <trkpt lon="100.917234" lat="12.909365">
                <ele>70.313477</ele>
                <time>2006-05-27T11:04:50Z</time>
            </trkpt>
            <trkpt lon="100.916955" lat="12.909408">
                <ele>71.274902</ele>
                <time>2006-05-27T11:04:57Z</time>
            </trkpt>
            <trkpt lon="100.916591" lat="12.909257">
                <ele>71.274902</ele>
                <time>2006-05-27T11:05:07Z</time>
            </trkpt>
            <trkpt lon="100.916054" lat="12.908893">
                <ele>70.313477</ele>
                <time>2006-05-27T11:05:23Z</time>
            </trkpt>
            <trkpt lon="100.915132" lat="12.908614">
                <ele>65.026367</ele>
                <time>2006-05-27T11:05:41Z</time>
            </trkpt>
            <trkpt lon="100.913930" lat="12.908077">
                <ele>61.181030</ele>
                <time>2006-05-27T11:05:59Z</time>
            </trkpt>
            <trkpt lon="100.912621" lat="12.907755">
                <ele>53.971191</ele>
                <time>2006-05-27T11:06:16Z</time>
            </trkpt>
            <trkpt lon="100.911741" lat="12.907562">
                <ele>51.087158</ele>
                <time>2006-05-27T11:06:27Z</time>
            </trkpt>
            <trkpt lon="100.911591" lat="12.907562">
                <ele>50.606567</ele>
                <time>2006-05-27T11:06:29Z</time>
            </trkpt>
            <trkpt lon="100.910175" lat="12.907712">
                <ele>43.877319</ele>
                <time>2006-05-27T11:06:47Z</time>
            </trkpt>
            <trkpt lon="100.908093" lat="12.907884">
                <ele>40.993408</ele>
                <time>2006-05-27T11:07:14Z</time>
            </trkpt>
            <trkpt lon="100.906613" lat="12.907820">
                <ele>37.628662</ele>
                <time>2006-05-27T11:07:37Z</time>
            </trkpt>
            <trkpt lon="100.905454" lat="12.907777">
                <ele>30.899536</ele>
                <time>2006-05-27T11:07:56Z</time>
            </trkpt>
            <trkpt lon="100.904124" lat="12.908013">
                <ele>27.054321</ele>
                <time>2006-05-27T11:08:19Z</time>
            </trkpt>
            <trkpt lon="100.903201" lat="12.908528">
                <ele>23.689575</ele>
                <time>2006-05-27T11:08:36Z</time>
            </trkpt>
            <trkpt lon="100.902193" lat="12.908893">
                <ele>22.247559</ele>
                <time>2006-05-27T11:08:56Z</time>
            </trkpt>
            <trkpt lon="100.901248" lat="12.909129">
                <ele>19.844360</ele>
                <time>2006-05-27T11:09:15Z</time>
            </trkpt>
            <trkpt lon="100.900583" lat="12.909322">
                <ele>19.363770</ele>
                <time>2006-05-27T11:09:32Z</time>
            </trkpt>
            <trkpt lon="100.900519" lat="12.909558">
                <ele>17.921753</ele>
                <time>2006-05-27T11:09:40Z</time>
            </trkpt>
            <trkpt lon="100.900562" lat="12.909665">
                <ele>16.960449</ele>
                <time>2006-05-27T11:09:44Z</time>
            </trkpt>
            <trkpt lon="100.900519" lat="12.909729">
                <ele>15.037720</ele>
                <time>2006-05-27T11:09:53Z</time>
            </trkpt>
            <trkpt lon="100.900497" lat="12.909729">
                <ele>11.673218</ele>
                <time>2006-05-27T11:10:10Z</time>
            </trkpt>
            <trkpt lon="100.900562" lat="12.909708">
                <ele>12.634399</ele>
                <time>2006-05-27T11:10:16Z</time>
            </trkpt>
            <trkpt lon="100.900798" lat="12.909751">
                <ele>14.557007</ele>
                <time>2006-05-27T11:10:40Z</time>
            </trkpt>
            <trkpt lon="100.900841" lat="12.909966">
                <ele>14.076416</ele>
                <time>2006-05-27T11:11:02Z</time>
            </trkpt>
        </trkseg>
    </trk>
</gpx>